GFSGL_925_spd_000.txt.gz
Wind_Speed
29 30 28 26 24 23 22 20 14 14 13 11 10 11 13 12 13 16 15 12 11 11 12 12 12 12 13 11 10 12 14 14 16 21 19 18 15 16 18 18 19 20 21
33 31 28 25 25 25 23 20 19 16 17 17 7 10 14 13 14 18 17 14 13 13 13 13 12 12 10 12 13 12 14 15 18 19 22 22 19 18 17 19 21 22 22
30 28 27 28 28 26 30 29 25 23 22 23 20 20 22 19 19 20 19 17 14 14 14 13 13 12 14 14 14 15 16 15 16 19 19 19 21 20 21 20 21 23 22
29 28 27 27 26 28 29 33 31 29 30 31 33 31 17 20 22 22 19 17 15 15 15 15 15 15 15 14 15 15 15 15 18 19 19 20 17 22 22 22 21 24 24
26 25 25 22 23 26 30 38 40 38 41 37 37 26 20 24 23 24 20 19 17 17 16 17 17 16 16 16 17 16 16 18 18 20 21 22 21 19 22 24 25 25 25
21 22 20 22 25 32 31 36 41 48 46 40 34 25 22 24 24 24 21 19 18 17 16 15 15 17 20 20 20 20 19 15 17 20 23 24 23 23 24 22 24 25 22
21 22 24 25 29 30 29 33 39 37 35 29 21 18 26 24 24 24 22 21 18 16 14 12 15 21 20 16 16 17 17 15 18 18 20 21 21 22 22 22 24 26 28
22 23 24 26 27 29 29 32 33 31 27 22 16 19 26 26 22 23 22 18 18 15 10 7 11 20 23 23 17 16 16 15 16 17 17 18 19 20 20 22 25 27 27
22 24 25 27 25 24 27 29 31 30 28 25 19 19 23 23 23 25 24 20 20 17 17 19 24 21 22 20 12 13 15 16 16 15 16 19 21 23 19 17 21 21 21
25 26 27 26 26 27 25 23 25 25 25 23 19 21 23 21 22 25 27 25 21 23 21 17 17 17 16 15 11 12 13 15 12 15 17 17 18 19 19 17 18 19 24
23 25 26 27 26 25 24 22 19 18 18 18 20 24 22 25 19 23 26 23 15 13 13 9 7 11 12 12 11 10 12 11 13 15 17 19 19 18 18 17 19 22 26
20 21 22 22 20 20 22 21 20 19 18 16 19 19 21 21 21 19 22 24 17 11 10 8 8 12 9 10 9 13 14 12 13 15 17 19 18 19 19 20 23 23 26
19 20 19 18 17 17 19 17 17 17 17 16 18 19 21 15 14 17 17 17 15 9 7 8 9 7 9 12 14 13 10 11 13 14 17 17 17 20 22 24 23 24 25
18 17 16 17 17 17 17 15 14 15 14 16 18 11 9 11 10 8 11 12 10 9 8 4 5 7 10 8 6 7 8 10 12 15 16 16 18 19 21 22 23 24 23
15 17 18 16 16 13 9 9 12 5 5 8 8 9 11 11 11 13 13 13 10 9 7 6 8 9 9 7 7 8 9 10 11 12 15 17 17 18 19 20 21 21 21
15 13 13 13 13 12 9 5 8 4 7 6 7 6 3 7 10 17 16 11 9 6 5 8 9 7 8 8 8 9 9 8 10 12 15 15 16 17 18 20 19 19 20
13 13 13 11 12 12 12 13 12 5 5 6 6 9 8 8 10 12 9 6 5 4 7 5 6 6 7 7 8 8 9 8 9 12 13 14 14 15 17 18 19 20 19
10 10 10 11 12 10 9 11 11 11 9 6 5 7 8 10 11 9 8 6 5 4 5 5 6 7 7 7 7 8 9 9 10 11 12 11 12 13 15 17 18 19 21
7 11 11 12 10 7 9 10 11 9 9 11 10 10 13 12 10 8 6 6 5 5 5 5 5 6 6 6 7 7 8 9 8 10 10 10 11 13 14 16 18 18 19
9 12 10 6 6 8 8 9 8 9 9 12 15 14 14 10 8 7 6 6 6 5 5 5 5 6 6 6 6 7 8 7 7 8 8 9 11 12 14 16 17 18 17
10 12 13 12 11 9 7 7 7 8 10 10 10 8 12 10 8 8 8 8 8 7 6 6 6 7 6 5 6 7 6 6 5 6 8 9 11 12 13 14 16 17 16
13 14 12 8 7 7 6 5 6 9 9 9 8 9 12 11 10 10 9 9 9 8 7 7 7 7 6 6 6 6 5 5 5 6 8 9 10 11 13 14 15 16 16
12 11 10 6 6 4 6 9 10 11 9 6 9 10 11 13 12 10 9 9 9 9 8 7 7 7 6 5 6 6 5 3 4 6 8 9 10 11 12 12 13 14 15
8 7 5 5 5 7 9 10 9 5 8 9 10 11 12 11 10 9 10 11 10 9 8 8 8 7 6 6 6 6 5 4 4 6 8 9 10 10 11 11 12 12 14
6 5 4 4 5 8 7 10 10 10 9 11 12 11 9 8 10 11 13 12 10 9 9 9 8 7 7 8 6 5 8 8 5 6 7 8 9 9 9 10 11 10 12
4 4 3 4 4 5 7 7 8 8 9 9 8 8 9 9 11 14 13 11 11 10 9 10 9 9 8 8 7 8 6 5 5 6 5 7 7 8 8 9 9 9 9

GFSGL_925_spd_003.txt.gz
Wind_Speed
31 29 28 28 27 27 24 25 23 22 21 22 26 26 22 19 16 14 12 9 11 10 12 12 12 11 10 11 9 9 10 12 13 15 17 16 13 16 19 18 18 18 21
31 30 29 28 30 30 30 29 29 30 29 32 30 25 21 20 19 16 14 13 14 13 14 15 14 15 15 14 9 13 13 12 14 15 17 16 17 17 16 17 20 20 22
32 32 31 33 32 32 34 34 36 31 32 32 29 26 26 25 21 18 16 14 14 14 13 14 14 14 12 14 14 13 13 14 13 17 15 17 18 22 23 18 19 24 24
33 34 33 33 33 34 36 38 35 36 37 33 29 28 25 23 19 16 16 16 16 15 14 15 14 13 14 15 16 17 18 17 18 16 15 18 20 22 25 18 18 21 25
31 32 31 31 32 33 36 38 38 37 39 35 31 27 23 20 18 17 17 17 17 16 15 14 15 16 19 15 15 18 22 19 20 20 19 18 20 17 19 22 23 24 23
32 32 32 32 32 34 34 35 32 32 28 24 24 24 24 23 20 22 19 17 18 18 16 14 17 15 12 14 17 17 19 25 24 22 19 19 20 19 18 19 21 23 19
27 29 26 31 32 32 32 31 33 32 26 25 30 25 20 19 20 22 21 19 19 17 16 16 15 16 15 12 15 15 21 23 27 23 18 19 18 17 20 21 21 22 25
27 26 28 30 29 28 29 31 30 30 32 28 25 23 19 18 20 18 18 21 20 21 18 17 16 16 16 16 20 21 24 20 21 20 19 20 18 17 17 20 22 25 26
26 25 27 28 29 27 27 26 26 28 29 27 24 21 19 18 20 23 22 20 21 21 20 18 17 20 21 26 24 21 17 18 18 21 20 19 19 21 20 17 19 21 21
28 28 28 28 27 25 24 22 19 19 21 20 20 21 20 19 21 23 23 25 24 25 18 17 21 22 24 20 16 12 15 17 18 17 14 16 20 22 21 23 21 20 21
26 26 26 25 24 21 19 17 15 13 14 19 21 20 20 17 18 22 24 21 20 17 16 17 17 20 17 15 13 10 13 16 14 15 18 20 20 19 19 16 15 19 23
25 26 25 24 22 20 18 16 14 15 15 16 18 16 14 15 18 20 21 23 19 16 17 17 16 20 12 11 12 14 17 17 15 18 20 19 19 20 19 17 21 25 24
24 23 23 21 19 20 18 17 14 13 13 15 15 13 12 14 16 22 24 22 20 23 17 19 11 10 10 13 16 16 16 13 15 17 17 17 19 19 19 21 20 21 23
20 22 22 21 18 18 16 16 15 15 15 12 10 9 10 11 15 11 15 13 16 15 13 9 7 7 9 10 5 9 9 10 12 13 17 17 18 19 19 19 21 22 22
19 20 22 20 19 17 12 10 14 8 9 9 9 10 12 11 11 11 8 11 11 13 12 10 9 11 13 13 11 9 12 13 12 13 15 16 17 17 18 18 19 21 21
20 20 18 19 17 20 15 9 7 5 5 4 5 3 1 6 8 16 18 13 10 10 7 12 13 12 12 12 10 10 10 11 12 12 14 15 15 16 17 18 18 19 20
18 18 18 18 21 18 17 17 14 5 5 3 3 7 7 8 9 12 14 12 10 8 9 12 10 10 10 9 9 11 11 11 8 12 13 14 14 14 15 16 17 19 19
14 17 18 18 17 17 16 13 13 13 10 6 3 6 7 8 9 10 11 10 7 8 9 10 8 8 9 9 10 10 10 11 11 11 12 12 12 13 14 15 17 18 19
15 13 15 13 14 11 10 10 10 10 8 17 10 7 10 11 11 11 11 9 11 9 8 7 7 7 8 8 9 9 9 11 10 11 11 11 11 12 14 15 17 17 20
8 14 12 14 10 9 10 10 9 7 7 19 11 8 10 10 8 9 9 10 10 10 8 7 7 7 7 7 8 8 10 10 9 9 9 9 11 12 14 15 16 18 19
12 14 8 10 10 11 9 8 7 8 7 7 10 18 19 14 13 13 10 9 10 10 9 8 8 7 7 7 8 9 10 9 8 7 8 9 10 12 13 14 16 17 17
13 14 14 13 12 7 7 4 4 5 7 5 15 18 21 10 10 7 8 9 10 10 9 8 9 8 8 8 8 9 10 8 7 6 7 9 10 11 12 14 15 16 17
14 13 11 9 9 7 8 7 7 9 9 3 11 8 8 9 11 8 9 10 9 9 9 8 8 9 8 7 7 8 9 7 5 5 8 9 10 11 13 13 14 15 16
8 11 9 9 8 9 10 10 6 3 8 4 3 4 8 7 8 7 9 10 7 9 9 8 9 9 6 6 7 7 7 6 3 5 7 8 10 11 12 12 12 14 14
9 6 8 8 12 11 11 11 12 10 6 5 11 13 11 10 9 7 7 10 12 11 9 9 9 9 9 9 8 5 6 9 10 9 7 9 9 10 10 11 11 14 11
13 6 5 4 7 7 8 9 9 7 13 15 10 9 12 14 13 13 13 13 14 15 13 10 9 10 8 9 9 11 11 9 8 8 7 6 9 9 8 10 10 12 10

GFSGL_925_spd_009.txt.gz
Wind_Speed
40 39 39 40 40 37 36 36 34 30 29 28 35 33 31 28 26 26 25 23 24 22 21 18 16 15 14 14 8 2 5 10 9 6 4 11 15 16 16 13 15 19 22
43 40 40 38 35 36 38 38 38 36 34 35 35 36 34 32 31 31 31 26 26 27 24 21 20 17 14 14 14 8 5 5 5 3 9 13 15 17 17 17 21 18 21
42 40 38 37 35 36 39 39 38 41 40 37 37 39 39 36 34 34 34 31 27 27 27 23 21 17 18 15 13 11 10 10 10 9 14 18 21 19 19 25 22 19 17
41 40 38 39 40 38 38 41 40 38 40 39 41 40 39 38 36 35 34 31 29 25 26 25 24 21 19 17 15 15 14 14 15 18 17 20 21 21 20 16 12 16 22
41 40 41 41 39 37 36 36 40 37 38 38 39 37 38 37 35 37 35 33 28 27 24 23 23 22 20 18 18 18 17 18 21 21 16 20 24 20 16 17 16 21 22
42 42 41 37 38 36 36 35 35 38 35 35 34 35 33 33 33 33 35 31 26 27 26 24 24 23 23 21 20 19 22 22 22 19 22 21 26 24 19 17 17 17 6
42 41 42 40 36 38 34 33 34 34 32 32 31 30 32 33 33 28 30 30 30 30 30 27 24 24 19 17 19 19 17 18 19 22 24 26 25 25 20 19 19 17 19
41 40 42 40 40 34 35 34 31 33 33 33 31 30 32 32 28 26 29 31 31 32 31 30 27 26 22 19 16 16 18 18 19 22 24 23 23 22 21 20 18 20 24
38 40 43 42 38 35 34 30 29 27 27 28 28 29 28 25 29 25 18 27 34 33 28 21 21 22 19 16 17 21 23 22 21 15 15 16 16 18 21 19 21 22 15
41 42 39 40 35 31 33 29 29 31 23 27 22 22 25 27 25 28 31 24 24 26 25 24 22 24 22 21 20 20 18 17 11 11 11 12 13 15 18 23 26 20 16
36 31 31 31 31 35 35 33 30 25 23 18 18 21 23 26 28 27 26 25 25 25 22 20 23 25 23 20 17 16 14 11 11 13 15 14 14 14 18 9 5 7 11
32 31 31 35 35 39 37 30 27 24 20 22 20 23 25 25 22 21 23 22 24 21 15 13 14 14 17 14 11 11 7 8 12 13 12 12 13 5 9 10 10 10 12
33 32 33 34 33 30 29 26 23 21 20 21 24 23 20 17 18 19 19 20 24 20 17 14 11 10 10 9 7 6 7 7 8 8 9 10 10 9 9 14 14 14 16
33 31 32 33 29 28 26 26 26 23 20 19 18 18 18 17 16 16 16 18 18 20 19 17 13 6 6 6 8 9 9 9 8 7 9 12 7 10 13 12 14 16 20
28 27 28 31 27 26 22 20 22 19 18 20 19 19 18 17 20 17 17 19 18 18 14 11 11 11 10 10 12 13 13 10 10 11 12 5 6 11 10 14 15 19 20
27 24 25 24 29 31 28 25 18 16 14 14 16 14 16 15 14 14 15 12 9 11 15 15 13 11 12 15 17 16 15 14 12 9 3 6 7 7 12 15 15 18 19
24 26 25 26 26 27 28 28 22 16 15 14 12 14 12 14 15 19 17 14 12 15 17 14 12 11 7 9 9 6 3 3 5 2 1 3 5 9 14 12 15 18 20
25 28 25 25 24 23 25 26 27 23 17 15 16 15 14 15 18 19 16 13 14 14 13 13 12 4 8 6 4 4 5 4 1 4 8 11 9 10 9 13 16 20 22
24 22 21 20 24 27 27 26 25 20 21 19 18 17 16 15 16 16 15 14 13 12 12 13 10 11 11 10 7 4 1 1 4 7 6 6 8 7 9 13 18 20 23
22 18 19 24 26 28 27 23 24 23 24 24 21 22 22 22 21 20 18 16 13 9 1 3 10 12 8 5 2 2 2 3 5 8 9 6 5 6 10 15 17 18 25
10 13 4 16 22 25 23 22 25 30 27 28 26 27 26 24 21 19 19 16 12 7 5 8 11 9 4 3 4 6 4 5 7 10 4 1 4 9 13 12 16 20 25
17 17 20 16 19 17 17 12 16 24 23 23 21 19 23 19 18 19 19 17 14 11 10 9 9 9 5 4 8 8 5 5 8 7 6 2 3 8 13 15 17 21 20
12 15 19 19 19 15 18 16 17 25 24 24 22 24 26 18 15 20 20 22 19 15 11 10 10 8 5 4 7 5 3 3 5 5 3 2 5 8 12 15 17 21 19
11 13 11 17 15 11 11 10 6 22 22 20 21 26 26 18 17 17 18 15 13 11 13 12 13 11 8 9 6 4 5 7 7 5 4 5 8 9 11 15 17 16 20
16 18 12 8 9 11 11 9 6 4 3 23 23 24 24 22 18 16 12 10 10 11 12 11 11 11 9 7 9 8 5 7 5 7 10 12 10 9 10 12 11 16 19
13 14 13 9 7 2 3 6 6 12 13 13 23 26 27 26 21 16 13 13 13 14 12 12 13 12 12 11 11 8 7 7 8 9 9 9 8 6 7 11 9 15 17

GFSGL_925_spd_012.txt.gz
Wind_Speed
42 42 38 39 38 38 41 38 36 31 37 37 40 39 38 35 31 28 25 22 21 22 21 20 18 16 13 12 9 6 10 13 10 7 7 8 9 12 14 16 16 17 19
43 40 39 37 36 40 45 44 39 38 36 41 41 42 40 38 35 32 29 27 25 25 22 22 22 18 16 16 15 13 9 7 7 7 10 15 15 17 18 18 20 21 21
41 39 37 36 36 40 42 44 45 41 41 40 41 42 42 40 38 35 33 31 29 27 27 26 23 20 22 19 18 16 14 12 9 10 13 16 20 19 20 21 19 20 18
41 40 38 38 39 40 42 44 42 42 42 42 43 40 40 41 40 38 37 34 32 29 27 27 27 25 23 21 20 19 16 14 13 14 16 19 19 20 19 21 23 15 18
43 42 42 41 37 37 39 42 40 39 41 42 41 39 40 40 42 41 39 36 35 32 28 27 25 27 25 25 22 21 20 19 18 17 18 19 19 22 21 17 15 18 20
41 43 42 39 38 38 38 37 37 36 39 38 37 40 40 41 42 42 40 38 37 34 31 29 25 26 26 28 23 23 22 22 21 21 22 17 21 23 23 19 17 17 6
43 39 39 39 38 38 37 35 35 35 34 34 34 37 37 41 43 40 38 35 34 32 30 31 29 28 25 25 23 23 24 23 21 21 16 20 22 25 23 21 20 19 20
41 39 39 39 38 36 35 36 32 32 32 34 35 34 35 38 40 34 35 29 29 31 32 31 28 27 22 20 21 22 21 18 17 18 19 23 23 20 21 21 21 22 20
38 39 40 40 36 35 35 36 32 30 32 35 37 37 34 31 37 29 25 25 30 32 32 29 29 27 24 21 20 16 16 20 18 16 18 16 16 16 16 17 19 18 15
42 43 44 40 37 35 36 34 33 35 35 37 38 34 30 28 30 24 24 30 32 30 28 24 23 22 21 16 16 20 21 21 18 13 11 12 14 16 15 17 19 21 19
48 45 36 39 38 37 33 33 34 34 34 34 32 30 24 25 21 21 29 28 22 19 21 20 18 17 17 19 19 21 21 13 9 9 12 14 13 11 7 2 5 7 9
38 34 34 36 36 36 37 34 36 36 31 27 27 24 23 21 24 25 26 26 23 20 16 14 13 12 10 16 20 14 9 9 8 7 7 8 6 2 6 5 6 8 10
32 31 32 32 34 38 38 35 29 29 27 25 23 24 24 24 24 23 27 24 22 17 14 13 12 12 9 7 8 8 9 9 8 7 6 3 4 5 5 8 10 10 13
32 29 31 32 33 34 32 33 30 29 27 25 23 23 24 25 24 22 22 22 21 18 16 14 12 9 7 7 8 10 11 11 9 8 7 6 8 7 9 9 12 14 16
34 29 28 28 30 29 26 20 23 25 35 32 30 30 29 26 25 22 21 21 22 20 20 15 12 12 13 12 11 11 11 11 12 11 9 9 7 8 8 9 11 13 15
28 30 27 27 27 30 29 22 25 26 25 26 27 27 27 23 21 19 16 16 17 17 17 15 16 15 14 12 12 12 13 13 13 11 8 7 7 7 7 9 11 12 15
29 29 30 35 34 27 36 38 15 21 25 23 25 24 21 20 21 19 18 17 16 16 16 17 17 16 13 12 11 12 11 10 10 9 6 4 6 8 8 8 10 13 18
23 24 25 24 29 29 27 33 30 25 22 24 24 23 21 21 23 22 22 20 21 18 17 17 17 14 13 15 13 13 12 11 10 7 5 6 6 5 7 8 11 14 19
26 23 23 25 27 30 29 26 19 20 21 24 21 22 24 20 19 23 22 21 22 21 20 17 15 13 16 18 17 17 15 12 9 6 5 5 4 5 7 9 12 16 17
23 22 26 27 27 24 25 25 24 20 20 19 21 23 22 23 26 25 22 20 19 17 14 11 15 13 18 18 15 10 7 6 6 5 6 7 6 5 6 10 12 14 18
18 13 17 21 22 24 25 26 22 15 18 22 25 26 29 29 27 25 22 21 18 16 12 11 13 21 19 16 12 10 10 7 6 6 8 8 7 5 6 9 13 14 18
16 12 10 9 9 12 15 18 22 26 27 26 25 24 25 21 22 22 22 20 19 18 17 20 21 22 19 16 14 13 11 10 10 9 8 10 7 7 6 8 12 15 17
7 0 6 9 11 15 14 10 17 25 23 26 24 25 26 22 21 23 22 21 20 20 19 21 22 19 15 14 10 9 12 11 10 8 12 9 7 7 8 9 12 15 15
22 24 24 23 19 15 12 16 23 22 26 27 27 28 30 28 24 21 20 20 19 18 18 19 19 17 16 15 11 12 9 7 9 10 9 8 7 9 9 9 11 12 14
20 21 22 20 20 16 17 14 19 21 22 25 26 28 31 29 22 22 23 22 21 17 15 15 17 16 14 14 9 5 7 11 12 10 9 11 12 10 7 6 8 10 13
17 17 17 18 16 12 11 14 17 17 21 23 25 27 30 30 26 24 24 22 20 17 16 15 17 18 15 11 7 7 7 8 10 10 11 11 11 10 8 6 7 7 8

GFSGL_925_spd_015.txt.gz
Wind_Speed
41 40 38 38 38 38 42 41 39 35 35 36 35 38 36 34 32 31 28 25 24 22 21 18 16 14 13 12 11 8 10 11 7 8 10 9 11 10 10 12 14 16 16
43 41 41 42 38 38 43 44 42 38 35 33 33 36 39 36 36 35 33 29 28 26 25 22 21 17 15 14 13 13 11 9 10 11 11 12 14 14 13 13 16 16 18
40 41 39 38 39 40 44 43 45 42 40 37 34 36 39 38 37 39 36 33 31 30 27 26 23 20 20 17 13 16 17 14 12 13 15 12 14 14 13 16 19 22 20
39 40 39 40 41 42 43 42 41 44 42 39 39 38 41 41 40 39 40 37 34 33 30 28 26 24 23 20 20 20 19 17 18 18 18 15 14 12 11 15 21 20 16
40 39 41 38 38 37 39 41 42 40 42 42 40 39 40 41 41 41 41 40 38 36 32 31 27 26 25 24 21 20 18 19 19 17 19 14 15 15 12 13 17 19 21
39 41 40 39 38 38 39 38 38 39 39 40 41 42 42 40 40 40 41 39 39 37 35 30 29 28 25 23 23 22 19 21 22 19 17 15 20 15 15 16 14 14 6
41 38 37 37 37 38 37 35 37 37 38 41 40 41 42 42 40 39 39 35 35 38 35 33 33 29 24 21 19 20 19 19 18 19 20 16 15 16 18 17 16 14 17
39 37 36 39 39 36 35 37 35 35 39 39 40 40 41 42 42 40 36 30 23 33 35 31 34 29 26 22 19 20 17 18 16 14 13 16 16 17 16 15 15 16 18
34 35 37 39 38 36 37 37 34 32 33 36 39 40 41 40 39 38 32 30 29 31 30 29 27 27 23 19 18 16 17 16 14 15 15 15 15 14 12 13 15 13 9
35 40 41 41 38 38 39 38 37 36 33 33 39 41 41 38 37 36 29 31 27 30 25 22 23 21 18 17 17 19 17 15 13 13 12 9 10 12 13 14 14 14 12
38 40 37 37 40 41 36 35 38 37 33 33 34 35 40 40 35 29 32 31 29 25 23 20 20 18 15 13 15 16 17 14 13 8 6 6 9 9 5 0 3 5 8
32 29 32 36 36 34 35 33 34 33 31 29 26 27 30 34 26 25 28 24 23 21 20 19 17 15 14 12 15 16 14 11 8 7 4 4 3 1 5 4 6 9 10
29 31 33 33 33 34 34 34 31 32 27 24 23 22 24 25 25 28 26 22 19 18 17 14 13 13 11 12 8 10 11 12 11 8 6 6 5 5 6 8 10 10 13
25 32 34 34 36 39 37 35 33 29 27 23 23 21 23 26 26 25 24 21 20 20 17 15 14 12 11 10 11 12 13 12 11 9 9 8 8 9 9 9 10 12 12
27 25 23 24 34 30 29 29 30 28 31 26 21 23 24 23 35 31 29 28 27 24 20 18 17 14 11 12 12 13 13 13 13 12 9 9 10 11 9 8 9 10 10
15 18 23 27 24 27 32 33 27 24 25 20 16 5 14 23 26 27 26 27 28 25 23 21 18 16 15 16 15 13 13 13 13 12 11 11 11 10 10 8 9 8 10
7 22 22 26 27 27 25 29 25 31 23 15 24 33 30 29 28 26 26 24 21 23 22 21 20 19 19 18 14 14 15 13 12 12 12 10 10 9 9 8 6 9 12
27 4 18 24 28 31 25 21 29 27 25 19 27 23 25 25 25 26 24 21 26 23 20 22 20 20 19 16 13 15 14 12 12 12 11 9 8 6 5 5 7 10 13
20 22 7 6 29 44 35 23 8 14 27 29 20 22 25 26 29 29 29 30 28 25 21 19 17 18 17 14 16 17 16 14 13 12 9 9 8 6 6 6 8 10 11
9 9 35 22 23 26 28 34 29 24 28 29 27 30 28 30 30 32 30 27 25 24 20 18 17 16 15 17 18 17 16 15 15 13 11 11 11 10 8 7 7 9 12
21 21 22 19 18 19 25 27 28 29 27 29 30 29 31 33 34 35 31 24 22 20 19 18 17 17 16 18 20 20 18 17 15 14 12 11 11 12 9 7 6 8 11
24 22 21 20 22 21 18 20 21 21 23 26 27 29 31 28 30 32 26 23 23 20 18 16 14 17 17 22 23 20 18 16 14 12 11 11 13 12 8 7 7 8 10
18 20 22 23 22 23 22 20 20 21 20 22 27 27 26 23 25 25 25 24 22 20 16 15 17 17 21 22 19 17 17 14 13 13 13 14 15 11 9 8 8 8 9
16 14 14 14 16 18 19 18 17 19 22 21 23 27 30 29 26 26 24 21 20 18 17 15 16 20 21 21 18 18 15 13 11 12 12 14 12 11 10 9 8 7 7
18 18 20 18 18 15 12 10 13 14 18 20 23 28 28 26 24 24 22 22 21 18 17 17 16 20 21 17 16 17 14 8 6 12 15 13 12 12 12 10 7 5 6
11 10 13 12 12 10 8 6 5 3 8 13 23 25 26 27 27 23 22 22 21 19 19 18 18 20 20 18 13 12 10 5 7 12 13 13 13 13 12 10 7 5 5

GFSGL_925_spd_018.txt.gz
Wind_Speed
39 39 39 39 40 40 41 46 43 40 37 33 31 30 29 32 30 29 28 26 25 22 20 20 19 17 16 16 14 12 11 11 6 5 7 9 11 10 7 7 8 9 9
42 41 42 41 40 40 44 46 44 41 39 36 34 33 31 32 34 32 31 30 29 26 24 23 22 19 19 16 15 14 13 11 11 10 10 9 10 10 9 10 8 8 12
38 39 38 39 38 39 42 44 45 42 39 36 36 37 36 35 36 35 34 34 32 30 28 27 26 23 23 20 17 16 16 13 13 12 13 11 11 10 10 10 10 12 14
37 36 38 41 42 42 45 45 44 45 41 39 40 38 36 36 37 38 37 36 36 35 33 30 29 28 27 23 19 17 15 16 15 15 15 14 15 13 11 13 15 16 14
39 39 42 41 40 39 39 41 42 43 44 43 42 42 40 38 38 40 39 39 39 38 38 34 29 26 25 23 22 20 17 18 17 16 14 12 13 13 13 10 13 17 18
41 43 40 38 38 41 41 40 40 40 41 41 43 44 43 43 42 40 40 40 39 40 37 34 30 25 25 24 24 23 21 20 19 18 17 14 17 15 12 12 11 10 5
40 38 38 37 37 38 37 37 40 40 40 41 40 41 43 46 44 41 40 40 39 37 36 34 30 30 28 25 22 21 22 21 20 17 19 17 18 14 12 11 11 9 9
35 33 34 37 38 35 35 39 39 39 41 40 40 43 42 44 45 43 43 40 39 38 32 28 30 33 28 21 21 19 18 17 18 17 16 15 13 12 12 12 10 10 12
32 34 37 39 38 37 37 40 39 36 36 38 37 38 42 44 46 45 43 40 37 33 27 26 28 26 25 21 21 19 17 15 13 14 12 11 11 9 9 8 9 6 5
32 39 40 40 39 37 38 37 36 35 33 32 32 40 46 46 47 44 42 38 31 31 26 23 29 21 20 19 19 19 19 17 15 13 11 10 9 7 9 10 9 6 4
30 28 31 35 37 39 38 34 33 32 27 31 33 37 45 47 42 42 40 38 33 30 24 25 24 19 19 17 17 19 18 16 14 12 12 9 5 4 3 3 2 3 5
21 25 26 29 31 31 36 38 36 32 30 28 28 28 31 32 40 37 37 40 32 28 26 25 22 20 18 17 16 15 16 14 13 14 11 8 5 4 5 4 4 5 7
18 26 30 31 33 33 30 29 31 36 33 30 30 27 22 26 36 34 34 34 29 26 23 23 20 18 18 16 16 18 18 17 17 15 13 10 7 6 5 6 6 7 7
10 19 25 28 27 30 30 31 32 33 36 37 37 35 32 29 31 34 33 30 26 24 18 19 21 21 18 18 17 16 16 18 18 15 13 10 8 8 7 9 8 7 8
8 12 22 29 32 29 33 34 37 36 35 30 28 25 26 22 22 32 39 29 30 29 28 26 25 23 20 19 17 18 18 18 17 14 12 10 10 9 8 10 9 7 6
17 18 19 24 25 26 24 16 27 30 31 30 27 29 24 32 24 19 20 23 28 29 28 24 24 25 24 22 21 20 20 20 17 14 13 11 11 10 10 10 8 6 6
16 18 20 24 26 27 24 22 18 28 35 32 30 38 37 18 15 29 39 36 37 30 25 27 25 26 25 24 24 24 22 20 15 15 13 12 12 10 11 10 9 6 5
13 10 8 16 23 27 31 32 33 32 26 26 37 31 27 31 39 50 36 34 34 31 30 29 27 28 23 23 23 21 18 16 18 15 12 13 12 11 11 10 9 5 4
2 5 6 8 22 27 37 36 33 28 25 22 27 29 31 33 38 35 36 36 30 25 29 29 29 26 25 24 21 19 18 19 17 13 12 13 12 14 12 9 8 5 4
5 4 3 5 17 24 15 30 26 24 22 16 14 16 33 35 28 33 29 30 29 28 30 26 23 23 24 22 21 19 20 20 16 14 14 13 15 16 12 9 7 5 4
11 11 4 15 9 16 3 7 22 25 27 22 26 35 35 36 34 35 34 32 34 32 29 24 23 24 23 22 21 23 24 21 19 16 14 15 16 16 14 11 8 8 6
13 13 11 8 7 10 12 7 15 20 21 22 25 30 30 22 24 28 34 34 28 26 25 23 24 23 21 22 24 26 25 21 19 17 18 17 17 17 16 12 9 8 6
14 13 13 11 12 15 14 14 13 14 18 20 21 24 22 20 26 30 30 30 27 24 21 21 20 18 18 20 23 25 23 20 15 16 18 15 16 18 16 11 9 8 7
13 13 15 16 13 11 10 15 14 14 15 17 20 21 26 28 28 27 28 27 24 23 22 20 17 17 18 21 23 23 21 19 16 14 16 15 15 17 14 11 10 9 7
19 19 19 16 14 12 11 8 6 7 8 11 13 17 20 20 21 26 27 25 25 24 22 20 17 16 17 19 20 20 20 18 14 13 13 13 14 15 13 11 11 9 8
21 17 16 17 18 16 14 16 13 9 7 4 7 10 14 18 19 22 27 27 27 25 22 19 18 17 17 18 15 13 14 15 13 9 11 13 14 14 13 12 11 9 7

GFSGL_925_spd_021.txt.gz
Wind_Speed
41 41 40 38 39 38 35 34 35 32 32 29 28 25 25 24 23 25 24 20 22 20 20 19 18 17 14 12 12 11 10 9 9 6 6 7 10 10 9 8 8 8 8
43 40 42 39 38 38 39 38 38 37 36 36 32 29 26 24 25 27 28 23 25 23 24 20 20 18 19 17 15 14 12 11 10 10 7 8 9 8 9 10 8 8 8
38 39 38 38 38 40 41 40 37 36 36 33 34 33 28 26 28 29 30 28 29 29 26 26 30 23 19 16 17 14 14 12 12 12 11 6 6 7 8 8 9 9 10
39 40 40 41 44 42 40 39 38 38 36 36 37 35 32 29 30 31 30 30 30 30 31 28 21 22 23 23 18 16 15 14 12 13 14 12 9 8 8 11 11 10 9
38 39 43 44 41 38 39 41 40 38 39 40 38 36 35 33 33 33 31 32 30 29 30 26 27 28 28 27 20 18 17 16 14 13 14 12 11 10 11 12 12 10 9
38 41 39 37 39 40 38 38 36 38 37 37 37 38 38 37 37 40 40 31 31 33 28 28 28 32 30 27 26 26 23 19 17 15 14 15 14 12 10 11 10 11 11
38 34 32 33 35 38 39 38 40 40 38 38 37 37 39 40 42 46 44 34 31 33 30 27 25 25 32 28 26 26 28 25 22 17 17 16 12 11 9 8 10 11 13
31 31 32 35 36 36 36 39 38 38 39 38 38 38 38 41 46 51 49 44 31 30 30 29 27 25 27 30 22 22 23 24 25 23 21 16 11 8 9 7 7 9 10
33 37 39 40 37 34 36 39 37 35 35 37 35 37 40 42 48 51 49 39 33 31 28 27 26 24 27 30 28 20 21 19 19 21 19 15 14 12 10 7 6 7 11
35 35 27 29 32 35 36 34 33 36 37 35 36 38 41 41 43 49 49 37 31 29 26 25 30 27 25 23 25 24 22 19 16 19 18 15 12 10 10 9 8 10 10
23 26 28 32 35 35 33 33 33 33 30 34 37 37 40 45 39 45 47 37 31 27 26 27 27 28 28 23 24 23 21 16 20 15 14 9 8 8 7 8 7 6 6
20 24 26 29 30 30 32 31 33 33 33 33 33 31 33 36 39 37 43 47 36 32 30 29 29 27 27 25 25 22 23 16 17 15 12 11 11 9 8 7 7 6 6
17 21 24 25 28 29 31 32 31 32 33 32 29 28 28 27 27 40 37 42 42 32 28 28 27 24 26 25 24 24 21 18 16 14 13 12 11 10 10 8 8 8 8
13 17 20 23 26 29 30 29 31 31 32 30 29 31 32 32 34 38 39 41 37 23 13 15 20 23 26 24 23 23 17 15 15 15 14 14 13 11 8 8 8 6 7
3 6 12 19 24 26 31 30 32 35 37 35 34 34 27 22 25 34 35 31 30 22 21 12 16 13 13 16 14 17 15 15 15 15 16 14 12 10 9 9 7 7 9
1 3 7 12 17 24 25 28 38 37 38 42 37 34 31 33 35 40 45 39 35 29 24 25 26 25 16 17 18 17 15 16 17 16 14 13 13 11 11 8 8 8 10
3 3 4 7 10 14 18 19 18 25 37 38 41 38 42 42 44 47 48 45 34 34 22 28 30 29 24 23 21 19 18 18 16 15 14 13 12 10 11 10 9 9 8
11 11 9 17 18 14 8 12 21 19 20 15 47 51 48 51 57 47 44 39 39 36 41 36 32 27 24 23 21 18 18 18 17 16 14 14 12 11 10 10 7 9 8
12 10 10 13 16 14 16 17 24 16 26 30 28 48 57 54 43 40 48 30 32 28 24 31 31 29 27 21 19 20 20 19 19 17 16 13 11 11 10 10 8 9 7
8 7 4 2 3 5 7 13 15 17 18 16 15 48 47 47 36 39 37 27 29 25 21 26 26 26 24 22 21 21 20 18 18 19 16 13 12 11 9 10 11 9 8
12 9 8 3 5 8 6 6 13 10 10 14 25 19 26 32 29 34 34 37 33 31 29 26 24 22 21 21 22 21 20 20 21 19 16 14 13 11 11 13 13 9 8
14 13 13 11 8 4 4 5 8 7 7 8 9 13 14 16 24 26 21 23 23 27 26 24 22 22 23 25 23 22 21 23 21 19 16 14 12 11 12 15 14 10 9
15 15 15 16 11 7 8 11 13 6 9 11 15 16 10 18 22 23 20 23 24 22 18 19 20 21 21 21 20 20 21 22 20 19 16 14 12 13 13 16 15 10 10
20 20 17 17 16 14 14 15 15 15 10 7 7 8 10 11 17 22 27 24 21 19 21 20 19 20 20 18 17 18 18 17 18 19 16 15 14 13 14 16 14 11 11
27 27 23 22 20 18 16 18 16 16 14 11 8 8 9 7 10 12 9 17 20 22 23 20 19 19 18 19 19 19 19 22 15 16 15 12 13 13 15 15 13 12 12
26 28 27 24 23 22 22 20 20 24 23 17 9 5 3 3 5 6 10 13 16 19 20 19 18 18 18 18 18 21 20 18 18 17 12 11 12 14 14 13 12 13 13

GFSGL_925_spd_024.txt.gz
Wind_Speed
40 40 38 38 38 36 35 34 34 31 28 27 26 24 25 24 24 23 23 21 21 20 20 19 19 15 14 13 13 13 12 11 10 7 7 7 8 8 7 8 10 9 10
42 40 41 39 39 38 38 38 36 35 34 31 29 27 26 27 27 26 26 25 25 23 23 22 19 17 18 16 16 14 14 12 12 10 8 11 10 10 11 11 10 12 10
38 39 38 39 39 40 38 38 37 37 36 35 33 32 31 30 30 29 28 28 27 26 24 24 21 21 21 20 19 15 15 13 15 13 11 11 10 10 10 10 11 11 12
38 40 39 40 43 41 39 39 39 38 36 36 36 35 34 33 32 31 30 30 29 29 27 25 23 24 24 21 19 18 14 15 15 14 13 11 11 10 10 12 12 12 12
36 38 40 41 39 37 38 38 39 38 39 38 36 36 36 35 35 35 34 33 32 31 29 27 26 25 26 23 20 19 19 18 16 15 15 13 12 12 13 14 13 9 10
32 38 35 34 35 37 35 37 37 38 38 37 38 38 38 39 40 42 39 36 34 32 31 29 26 27 29 29 28 23 22 20 18 18 17 14 11 11 13 14 12 11 10
35 32 34 33 36 35 34 34 37 38 36 38 38 39 40 42 45 47 49 41 38 35 33 30 27 26 27 25 31 28 29 26 23 18 19 16 13 11 12 8 12 10 11
31 33 33 34 33 30 33 37 37 36 39 39 39 40 40 43 47 49 50 47 34 33 31 30 29 26 25 26 23 26 27 27 28 25 22 21 17 13 10 11 11 10 12
31 36 36 33 32 33 36 38 37 35 35 38 37 38 42 43 46 50 51 41 37 32 31 30 29 29 28 29 26 25 25 26 23 25 24 22 18 16 13 12 11 10 11
31 30 31 32 33 35 35 34 34 35 36 35 37 40 42 42 45 50 52 41 36 37 35 32 34 32 30 31 30 25 24 22 23 17 21 25 22 18 17 16 11 12 10
25 26 28 30 33 34 32 32 32 34 33 34 35 36 38 42 41 48 53 47 40 36 36 34 32 35 32 31 30 26 25 23 22 19 18 17 15 14 13 13 10 10 10
22 24 25 27 29 29 30 29 31 31 31 31 32 34 37 39 44 43 51 57 44 37 36 34 34 35 38 32 30 26 27 24 21 19 18 18 18 17 14 12 11 8 7
19 21 22 23 25 25 27 28 29 30 32 32 33 34 35 37 40 47 48 54 55 41 35 35 35 35 36 34 28 30 24 25 21 21 21 20 18 16 14 12 11 9 8
14 15 16 19 20 22 24 26 27 28 30 31 29 30 33 32 34 34 44 46 50 42 32 31 32 30 33 33 32 30 26 23 20 19 22 20 17 16 17 14 12 10 11
8 10 12 15 18 18 22 23 26 28 29 29 32 31 28 31 33 34 31 34 37 37 40 37 34 33 32 31 32 31 29 25 24 25 23 20 20 19 16 15 12 12 13
3 5 6 9 12 16 18 20 28 29 24 35 35 33 32 39 36 37 39 43 45 45 37 30 31 32 29 30 27 27 31 26 25 25 22 22 23 20 17 15 13 13 14
4 2 1 2 4 6 9 12 15 11 23 35 36 42 45 43 41 42 41 48 56 54 36 34 34 31 37 34 32 31 31 29 26 27 25 24 22 19 18 16 14 14 14
10 8 5 5 4 2 2 3 7 12 18 23 25 32 42 44 48 43 47 57 56 49 41 38 38 41 35 34 34 31 28 28 29 25 24 23 21 19 17 16 15 15 13
8 8 6 7 8 7 7 7 9 11 14 12 12 14 18 26 50 55 62 52 45 37 37 33 30 31 31 34 34 31 30 28 26 26 24 22 20 18 16 16 14 11 11
13 15 7 6 5 5 8 11 11 6 5 7 8 5 10 8 1 21 42 50 47 36 33 27 30 31 33 32 31 27 26 26 28 27 24 21 19 17 17 16 14 14 14
15 13 13 10 10 9 6 6 6 9 7 6 9 7 10 14 13 11 10 13 6 21 25 24 27 29 31 29 29 29 27 28 28 25 23 22 20 18 15 14 15 15 14
16 17 16 15 14 13 12 11 12 10 7 5 1 4 4 8 2 6 11 15 13 17 24 23 24 25 28 29 30 29 29 27 25 24 24 22 20 17 15 15 16 16 16
16 17 17 16 15 15 15 17 15 12 9 9 7 4 1 2 6 10 10 13 15 18 18 23 20 24 25 24 24 27 26 24 24 24 23 21 18 17 15 16 17 17 17
21 20 19 18 18 17 16 16 15 16 14 13 16 15 10 5 7 8 11 16 17 15 18 25 23 24 23 22 21 21 21 22 23 25 23 21 18 15 15 16 17 18 16
23 21 21 19 20 20 19 19 19 20 20 18 15 14 10 11 5 4 7 12 16 22 24 25 19 18 18 18 19 21 21 24 23 23 23 19 17 15 15 16 17 17 16
22 21 19 19 21 20 20 20 19 21 22 23 24 22 12 10 9 5 7 10 16 19 19 16 15 17 18 19 19 20 22 27 24 23 19 18 18 17 16 15 16 16 15

GFSGL_925_spd_027.txt.gz
Wind_Speed
41 41 40 40 39 37 36 33 33 30 27 31 23 26 26 27 26 26 25 21 23 21 19 18 17 17 13 13 11 12 11 9 8 8 4 8 9 7 4 7 11 11 14
41 40 41 39 40 40 40 39 35 35 32 28 29 28 28 28 28 28 27 26 23 24 22 21 20 18 19 15 15 14 13 11 11 7 9 7 11 13 13 12 13 16 15
39 39 37 40 40 42 40 39 38 37 36 34 31 31 31 31 30 31 30 29 26 26 25 25 24 23 21 21 21 16 16 14 12 13 11 12 12 13 15 12 15 16 15
39 39 39 41 44 41 39 39 39 39 37 36 35 35 35 35 35 36 36 34 32 31 32 29 28 27 26 24 20 23 16 16 16 15 14 14 14 14 12 13 15 20 18
36 38 41 37 36 35 36 39 38 38 39 38 37 37 37 37 37 37 36 34 34 34 33 31 28 28 29 27 25 23 22 20 19 18 16 15 15 14 16 15 18 15 14
31 38 36 37 36 37 35 36 36 38 40 39 40 41 41 41 41 43 40 37 35 33 31 29 28 29 31 32 32 26 27 24 22 20 19 17 14 9 11 14 12 11 8
31 30 35 34 36 35 33 35 39 39 36 40 41 40 41 43 45 47 47 41 36 35 33 32 30 30 35 37 38 36 29 30 27 24 21 18 9 11 13 7 12 12 11
28 33 33 35 33 35 37 39 36 37 39 38 39 40 41 44 48 50 50 49 40 35 36 37 36 35 36 35 31 35 35 30 34 30 22 21 20 15 7 11 12 11 12
29 31 33 33 33 34 37 37 35 36 37 39 38 39 42 44 45 50 50 44 42 40 38 38 38 37 36 41 35 31 31 32 31 36 33 25 24 18 14 12 13 13 13
28 28 31 32 34 35 35 34 34 34 35 33 37 40 42 43 42 45 51 42 40 41 41 40 44 41 40 41 40 35 31 33 32 30 32 33 29 23 21 23 15 17 16
23 25 28 31 33 32 31 31 32 32 31 33 34 35 38 40 42 46 49 47 45 40 38 41 41 50 46 47 48 41 41 34 33 29 31 26 22 23 16 23 20 18 16
19 22 25 27 29 30 29 28 28 28 29 30 29 32 34 39 42 44 48 53 50 42 40 39 37 42 51 48 49 45 37 32 28 28 26 25 25 21 18 17 18 16 13
17 18 20 22 24 24 25 25 24 26 27 27 28 30 31 32 34 41 46 50 53 50 43 34 40 38 47 50 43 44 33 31 27 26 25 23 22 23 17 19 18 14 11
13 15 16 18 19 20 22 22 24 25 26 27 26 25 28 27 30 29 36 46 50 53 53 41 25 41 43 48 45 41 31 30 28 27 26 24 21 22 25 23 18 16 15
10 12 14 15 18 18 19 21 22 23 24 23 24 26 25 24 27 27 29 28 31 37 34 34 23 28 34 33 37 42 32 32 29 24 25 24 25 28 26 24 21 21 18
4 8 10 13 16 16 15 18 20 22 18 20 21 22 23 27 28 24 27 36 33 34 34 29 31 36 35 37 37 36 38 35 32 27 30 32 28 26 23 23 22 19 17
4 4 2 4 6 5 6 7 9 7 15 16 14 18 25 30 34 37 36 33 39 41 34 36 36 37 37 40 42 42 38 41 39 39 32 31 31 26 25 23 21 18 17
10 7 4 5 3 3 3 2 2 3 6 7 11 18 23 28 33 36 34 23 31 49 40 38 40 40 40 42 44 43 43 39 41 36 35 34 31 27 25 22 20 19 18
11 9 5 6 7 5 3 1 2 3 2 4 9 9 13 18 21 23 19 26 27 29 37 36 41 45 45 46 47 43 41 38 35 35 33 28 26 26 23 23 20 19 18
16 16 10 8 5 3 4 5 3 4 5 6 6 9 13 16 19 18 11 12 20 21 22 21 24 39 59 58 45 34 32 35 39 35 32 28 27 26 24 22 21 19 16
14 14 12 11 10 8 9 11 12 11 8 5 6 7 9 11 9 9 10 12 10 8 12 14 17 18 15 18 30 29 31 30 34 32 28 27 26 24 22 19 20 19 17
17 19 18 17 15 14 13 12 12 12 13 14 14 9 12 10 7 6 8 8 8 7 3 10 7 12 19 23 28 29 27 30 29 27 24 24 24 22 20 19 19 19 18
22 19 18 17 13 11 13 15 15 14 12 14 13 12 9 12 13 12 11 8 9 10 6 4 14 18 24 22 27 27 25 26 28 29 26 26 24 22 21 20 20 19 19
21 21 20 20 21 16 19 18 18 18 16 17 19 17 19 16 12 8 8 7 9 6 5 10 18 19 22 23 24 22 24 25 26 25 24 25 24 23 20 19 18 17 17
21 20 18 19 18 17 19 19 19 20 20 21 20 22 24 23 24 18 8 5 3 4 6 12 12 16 21 22 25 24 23 25 25 25 24 23 21 20 19 17 16 17 18
21 19 17 17 17 18 20 19 18 19 19 19 21 25 29 29 29 27 22 14 7 3 5 10 6 21 21 17 17 14 16 24 24 24 22 19 20 18 18 16 14 16 16

GFSGL_925_spd_030.txt.gz
Wind_Speed
41 43 41 38 39 39 32 36 31 35 23 30 22 30 30 29 29 28 28 25 26 26 23 22 26 21 19 15 17 13 12 11 8 10 11 17 16 12 11 12 12 11 12
40 39 39 38 38 40 41 36 36 31 37 29 31 29 29 31 30 32 30 30 28 30 32 26 26 26 25 20 15 19 16 14 14 12 4 14 18 17 16 12 12 13 17
36 36 35 38 40 39 39 41 37 38 33 38 31 32 32 31 32 32 32 31 31 27 29 29 28 26 25 28 22 17 21 17 12 15 11 11 17 18 17 17 16 18 17
36 37 37 37 38 37 37 38 40 38 40 39 38 35 34 36 35 35 34 34 34 33 29 29 30 31 29 28 29 29 21 24 22 17 18 18 16 20 23 23 21 19 21
39 39 41 40 37 37 37 37 37 40 42 41 39 39 38 37 37 37 36 36 35 34 33 31 33 34 36 37 36 33 33 23 22 24 20 19 20 15 25 25 19 15 17
38 40 41 39 40 38 38 38 39 41 40 39 40 39 39 40 41 43 41 38 37 36 34 34 33 36 39 41 38 35 36 34 28 24 23 22 25 24 20 24 20 18 6
36 36 37 39 39 40 39 39 40 39 38 40 39 39 42 43 45 47 48 42 38 38 37 35 36 38 42 43 43 40 36 36 38 38 30 28 24 27 19 18 16 11 8
27 28 31 34 37 37 39 39 38 38 39 38 38 40 40 43 46 48 49 50 41 40 40 41 41 39 39 43 44 47 45 42 41 38 39 35 27 13 16 18 15 12 12
29 28 30 30 31 35 38 38 37 36 36 38 38 37 41 42 42 46 47 47 45 44 43 43 43 42 42 42 43 44 43 41 45 44 40 32 29 28 20 20 18 18 12
30 31 29 33 32 34 35 35 34 34 34 33 35 37 39 40 39 41 45 42 40 44 42 44 47 46 44 45 48 40 35 39 36 35 41 38 30 26 21 23 21 16 13
29 26 29 30 34 32 30 30 30 30 29 32 33 33 36 37 38 38 41 42 45 37 38 40 42 45 50 49 50 44 44 33 36 37 35 36 36 35 32 30 26 20 18
21 27 26 27 27 26 27 25 27 27 28 29 28 30 31 32 34 36 40 43 42 38 40 36 37 41 45 53 51 52 44 37 32 34 29 29 30 32 30 31 31 30 26
11 19 21 21 23 24 25 24 22 24 25 24 25 25 23 24 27 30 37 40 44 49 43 41 35 33 40 47 54 54 50 39 34 32 30 31 37 36 34 29 27 27 26
7 10 13 15 18 20 18 23 23 22 22 22 19 19 21 22 23 26 29 38 46 48 51 50 46 45 30 40 50 59 56 47 42 38 37 38 37 33 34 31 31 32 26
5 7 8 11 16 16 18 18 20 23 20 19 22 22 18 15 4 9 14 8 24 40 46 38 34 36 38 36 33 42 50 47 44 42 39 35 34 37 31 35 27 27 22
9 10 12 13 15 15 16 16 17 11 9 8 4 6 6 7 15 21 24 26 23 17 24 27 30 32 33 36 37 35 39 44 44 38 39 36 34 36 37 35 32 27 23
4 5 7 4 7 18 14 13 15 10 10 9 11 16 19 20 21 24 27 29 25 13 22 23 27 30 33 36 37 40 42 44 43 39 37 34 30 26 29 30 31 28 25
10 9 10 9 10 14 13 11 10 9 6 12 16 17 17 20 22 23 23 19 16 13 17 21 25 26 30 34 40 43 44 42 42 41 44 44 45 39 32 30 30 28 23
11 10 10 10 11 10 8 6 8 5 8 5 8 10 15 16 17 16 20 18 16 12 12 12 21 29 31 30 36 40 44 47 50 50 51 45 41 40 38 36 33 31 28
15 14 14 13 7 6 7 6 8 6 5 10 5 7 9 8 10 11 10 11 14 14 13 13 17 21 27 33 35 33 39 49 56 57 48 31 33 35 32 33 29 30 29
13 15 16 15 14 14 14 14 15 13 12 14 14 7 13 11 6 8 11 11 10 12 13 11 7 8 11 16 20 19 17 23 27 22 18 24 32 33 33 34 30 26 26
18 17 15 16 16 16 17 17 18 17 15 16 16 18 17 17 18 16 15 13 14 13 16 17 16 15 13 13 3 9 13 11 13 20 25 24 27 29 29 30 29 25 24
21 21 19 21 22 22 19 19 17 17 19 21 19 16 17 17 20 22 20 19 18 18 18 16 15 13 10 9 8 8 14 21 24 22 23 24 26 25 25 21 22 22 22
20 17 19 20 20 21 21 19 19 21 19 19 20 20 20 23 25 25 25 23 22 21 17 16 13 10 6 5 7 6 12 16 21 19 20 21 22 21 19 18 16 16 19
19 18 17 19 19 20 20 21 20 20 20 20 19 19 22 24 27 28 27 27 25 24 21 17 12 11 5 8 12 13 14 18 22 21 21 21 20 23 20 16 17 19 15
23 18 18 17 18 18 19 19 19 17 19 19 20 19 22 26 30 31 29 28 30 27 25 22 19 6 7 9 11 13 13 22 24 21 16 19 16 22 21 16 15 16 15

GFSGL_925_spd_033.txt.gz
Wind_Speed
39 40 39 38 39 37 36 41 41 31 26 33 25 35 39 37 33 30 29 28 26 25 23 23 21 21 22 18 16 18 17 14 9 9 15 18 20 21 21 18 16 17 16
40 38 35 34 34 38 37 39 41 37 37 28 31 26 33 37 35 35 33 31 30 30 29 27 27 23 23 25 18 24 23 20 19 15 8 23 24 23 20 22 22 20 18
38 35 36 35 34 35 37 39 37 43 42 39 31 29 34 38 37 37 37 35 35 31 34 34 32 30 31 30 31 24 27 25 22 20 15 22 27 25 22 21 20 20 21
38 38 37 37 36 36 36 37 40 40 39 39 41 36 34 38 41 41 39 38 39 39 35 35 39 38 38 37 36 35 27 30 29 25 24 22 25 28 27 27 25 24 24
38 38 40 38 39 37 38 36 40 42 37 39 38 40 39 38 41 43 41 41 41 40 40 41 38 42 44 43 40 39 39 31 34 30 27 27 27 20 30 33 32 28 27
40 43 39 39 38 40 38 40 37 38 40 38 40 41 40 40 40 43 42 38 40 39 39 43 40 41 44 45 46 42 40 41 34 29 27 23 29 32 28 34 31 28 12
42 39 40 39 40 40 40 37 38 37 35 39 39 38 41 42 42 42 43 40 38 39 41 38 39 39 42 45 48 47 45 42 44 40 31 34 30 40 37 30 32 30 26
38 38 36 38 38 39 38 40 37 38 38 38 38 39 37 42 42 43 43 46 40 38 38 40 39 39 39 43 45 47 49 49 46 45 41 39 40 37 36 37 34 34 25
35 34 38 39 39 37 38 38 38 35 35 37 36 36 39 38 37 39 40 43 43 44 39 37 39 42 40 41 42 39 41 47 49 48 46 45 42 33 27 33 30 29 10
32 36 37 39 37 38 38 38 37 37 36 33 35 36 37 35 34 35 37 42 39 37 37 41 42 44 41 42 45 39 39 42 42 41 49 48 46 44 38 32 31 30 22
36 34 33 35 39 38 36 34 33 33 31 31 30 31 31 32 32 31 36 40 36 34 36 37 37 39 43 44 46 45 50 41 41 45 42 47 45 45 44 43 44 41 34
16 27 32 35 34 30 32 31 30 29 28 26 25 25 26 29 29 31 32 38 39 36 35 35 38 38 40 43 49 54 54 45 39 38 40 41 41 44 45 47 46 43 41
6 17 32 32 31 27 25 28 26 26 25 22 22 20 21 26 28 27 31 36 40 45 41 38 39 39 41 39 45 52 56 56 44 40 41 44 43 44 44 48 48 42 36
5 10 21 24 23 23 21 26 24 24 21 19 20 20 22 25 26 23 21 27 35 41 46 48 49 48 46 44 46 42 53 45 46 45 44 42 37 35 41 41 39 40 35
7 8 15 18 20 20 21 16 24 24 25 24 26 24 18 11 10 7 8 8 7 10 13 25 30 28 30 35 39 39 42 44 39 43 41 38 35 38 41 43 39 36 33
12 7 10 14 17 21 22 13 10 16 12 11 14 14 11 9 5 3 6 11 13 10 14 22 23 23 25 27 30 31 33 38 41 38 39 37 35 38 40 40 39 40 34
5 4 14 9 19 23 23 20 25 28 26 21 20 20 17 14 13 14 10 8 9 6 7 12 13 15 18 21 23 27 32 34 42 40 41 40 37 43 49 45 44 41 34
5 11 15 20 22 20 18 22 28 20 18 23 19 17 16 16 16 19 19 17 22 21 13 11 13 17 21 25 28 30 31 32 34 41 44 42 43 44 42 43 50 47 42
11 11 18 20 19 18 17 22 24 23 22 21 15 19 16 14 14 16 16 18 15 15 15 13 13 15 16 16 17 18 22 30 36 37 43 43 47 51 50 51 41 39 30
15 17 18 22 24 25 25 22 23 21 18 23 23 18 15 10 12 13 14 12 13 12 11 11 10 8 8 14 17 20 20 26 29 22 22 11 26 29 23 14 28 24 26
22 23 24 28 26 24 24 23 22 23 22 20 21 20 16 16 15 15 15 15 13 14 13 16 16 16 20 22 21 18 13 11 14 20 22 19 21 22 10 18 21 21 20
24 25 25 23 24 26 25 25 24 23 22 20 19 21 19 19 19 18 17 17 18 17 17 16 17 15 16 18 17 16 15 10 4 3 7 8 13 21 23 23 22 21 22
27 25 24 23 24 26 24 22 22 23 23 23 22 21 21 20 19 20 21 21 20 18 18 17 18 18 17 14 12 10 10 10 8 8 12 16 19 22 22 23 24 25 23
31 27 25 24 23 24 23 22 24 23 20 19 20 20 22 23 23 22 20 19 20 22 22 21 18 19 16 12 8 6 3 3 5 10 17 22 25 25 30 30 29 28 27
28 25 23 23 21 22 22 21 21 20 18 17 17 19 21 23 25 26 25 24 23 25 26 28 26 19 13 8 3 2 0 3 7 14 17 20 23 25 28 28 26 24 25
29 20 18 24 26 24 22 20 19 19 20 20 23 26 28 27 27 27 28 29 31 31 29 26 27 28 20 14 7 5 2 4 9 10 11 13 19 16 14 15 15 14 14

GFSGL_925_spd_036.txt.gz
Wind_Speed
39 40 38 39 39 38 40 41 40 35 26 30 31 31 34 35 35 33 31 29 28 28 26 25 24 23 26 24 20 19 19 17 13 14 14 20 22 29 27 27 25 24 21
44 41 40 36 35 36 39 41 42 42 39 25 31 29 37 36 37 37 36 33 32 31 31 28 29 27 27 29 28 26 25 24 22 20 18 17 22 27 28 29 28 28 27
39 37 35 34 36 38 39 39 42 41 39 37 29 33 35 34 37 40 39 37 35 36 35 34 34 32 32 30 31 32 27 27 26 25 24 20 21 27 30 31 30 30 27
38 37 36 36 36 38 41 38 36 41 41 38 39 37 31 33 35 36 39 40 38 37 37 37 38 38 38 36 33 34 33 29 29 29 29 24 22 27 30 33 32 32 31
37 37 37 37 37 38 37 40 38 36 41 43 40 43 39 38 36 38 40 42 41 39 39 40 41 41 42 42 39 39 37 36 35 32 31 26 23 27 31 32 31 33 35
39 39 37 36 37 37 38 36 38 38 40 37 42 41 43 43 39 41 41 42 43 42 41 42 42 42 45 44 44 44 42 40 36 30 28 25 31 37 38 33 34 27 18
37 35 36 36 35 37 37 35 34 37 37 39 38 39 40 39 39 39 41 43 39 41 41 40 41 42 43 45 46 47 47 48 46 40 36 35 35 40 40 36 31 28 31
33 33 33 33 34 33 33 33 33 33 34 37 37 39 38 40 39 40 40 41 39 38 39 39 40 39 42 43 42 40 48 54 54 52 46 46 46 44 43 44 43 42 38
32 34 34 37 35 34 33 33 34 32 33 34 35 36 38 35 35 39 39 41 43 40 39 41 42 41 40 38 40 38 40 51 50 55 57 56 54 48 47 38 33 28 26
33 35 33 34 37 35 36 35 36 36 34 33 33 34 35 34 34 33 35 40 37 36 37 40 40 41 38 38 42 40 39 43 34 38 49 57 59 57 51 47 40 35 31
33 34 35 40 40 38 35 34 32 32 32 31 31 31 31 32 33 32 34 37 38 33 33 34 34 35 38 43 43 44 47 42 38 40 41 42 46 49 50 54 48 42 36
19 30 34 35 34 31 34 33 33 31 29 28 26 25 27 28 30 31 34 37 40 36 32 32 32 34 39 41 43 49 52 52 46 36 32 38 38 38 43 46 52 54 51
8 24 29 31 32 33 34 31 27 28 26 24 23 22 22 25 31 34 35 35 36 42 40 35 35 35 34 35 40 45 47 49 42 38 36 37 37 39 41 44 49 53 50
6 7 11 20 26 31 30 29 25 23 22 20 20 19 22 28 30 29 28 30 32 36 38 41 41 40 40 39 36 38 40 45 39 38 39 43 40 37 39 44 42 42 42
12 8 11 14 20 23 20 20 23 25 28 26 27 26 19 17 17 16 18 15 12 14 13 16 18 20 24 24 25 28 33 36 37 38 35 37 37 37 36 40 43 44 41
11 7 7 11 15 21 18 11 10 19 22 23 21 19 9 9 10 9 9 9 11 12 13 12 16 18 20 19 18 15 15 18 23 27 30 33 37 37 39 37 42 43 42
11 10 7 11 17 19 20 24 23 28 22 20 18 16 12 11 9 7 6 4 3 5 3 1 4 5 7 13 14 14 15 18 24 25 28 32 36 38 37 46 38 41 47
5 5 4 10 13 17 24 24 26 24 19 22 19 18 18 18 17 15 12 12 14 13 11 8 7 7 7 6 8 10 13 22 20 24 28 29 29 25 29 35 42 35 37
10 16 19 19 20 17 21 20 19 21 20 21 18 16 13 13 13 13 12 13 13 11 11 11 11 11 9 11 15 15 17 17 19 28 22 13 8 11 19 22 25 30 30
19 18 22 23 24 25 26 26 22 22 20 19 20 15 12 13 14 15 15 15 14 14 13 13 14 15 16 18 21 21 21 20 16 10 8 13 12 12 15 17 25 25 27
23 23 25 28 27 26 25 25 23 21 18 18 21 18 15 16 15 16 16 16 15 14 13 13 15 15 16 16 18 19 21 20 15 13 11 9 9 10 10 11 17 20 21
25 25 26 24 25 26 25 24 23 22 19 17 17 20 19 19 18 17 17 16 15 14 14 11 11 13 14 13 15 17 17 18 21 20 15 9 4 3 5 7 15 23 25
26 26 25 24 26 26 25 22 22 21 20 21 21 22 21 20 19 18 16 14 13 14 15 15 14 15 14 13 14 15 16 15 18 15 14 14 9 10 11 15 17 20 23
27 25 26 24 25 25 25 25 25 25 23 23 24 24 23 22 21 21 20 18 17 17 17 18 19 18 16 15 15 13 13 14 13 12 9 11 16 19 19 19 20 20 19
28 24 27 28 26 25 27 26 25 24 23 23 24 24 22 21 21 20 20 21 23 25 24 23 24 22 19 18 15 13 9 10 8 7 7 9 15 18 17 16 17 18 20
22 28 29 28 26 27 28 27 26 26 25 25 26 25 24 24 24 22 19 19 21 23 25 27 28 26 23 20 20 19 13 11 10 9 8 10 12 14 16 17 18 21 25

GFSGL_925_spd_039.txt.gz
Wind_Speed
39 38 38 39 41 40 38 38 37 35 32 28 28 28 29 32 31 29 29 27 26 25 25 25 25 24 26 24 22 20 18 18 13 20 14 14 20 23 26 28 28 28 29
40 40 39 39 41 37 40 40 39 36 33 31 29 29 30 30 32 33 32 32 30 29 29 29 29 27 27 25 25 26 24 21 21 23 24 21 20 22 24 29 30 30 30
38 37 35 34 32 35 39 40 39 37 35 35 33 29 32 33 34 33 34 34 35 33 33 33 33 32 30 30 29 28 29 29 26 27 31 29 25 22 25 29 33 34 34
36 34 34 34 35 40 40 38 38 40 40 39 38 39 35 33 35 33 33 35 37 38 37 36 36 37 37 36 35 34 33 32 33 32 32 33 30 28 28 29 33 35 37
35 35 36 36 38 39 38 39 39 40 41 43 42 40 41 38 35 35 37 36 36 38 40 40 39 39 39 39 39 39 38 37 35 35 30 29 30 28 29 32 34 36 39
37 36 37 35 36 38 38 39 40 40 41 41 43 44 44 41 43 41 39 37 38 39 40 41 42 41 40 40 41 42 41 39 34 30 30 27 30 29 33 31 34 25 18
33 33 33 34 35 37 38 36 38 39 38 39 40 41 41 43 42 42 41 40 40 41 42 42 42 44 43 42 42 43 45 48 48 39 33 34 35 37 33 31 33 32 33
31 31 31 32 33 32 31 33 33 34 36 37 38 38 37 38 42 43 42 41 42 42 44 45 44 42 39 40 40 41 44 46 47 50 50 47 43 42 37 40 40 39 39
31 34 34 35 32 31 32 33 34 32 33 36 37 38 38 36 38 39 38 40 42 43 40 41 41 40 40 38 38 37 42 45 44 44 45 47 51 53 47 34 31 27 30
32 35 33 35 34 34 35 35 36 34 33 30 30 33 37 37 37 37 36 40 36 35 36 38 36 37 36 35 38 40 38 36 34 37 42 45 45 48 52 49 41 31 30
26 26 31 38 38 35 34 32 30 31 28 27 29 30 32 34 34 33 34 37 35 30 30 29 31 35 38 40 43 44 41 43 36 36 35 33 35 43 48 47 50 50 41
25 29 34 33 31 29 30 31 30 28 27 26 25 25 28 31 32 33 33 36 37 36 32 30 30 31 32 34 36 40 43 46 44 35 32 33 31 33 41 46 49 54 57
21 27 32 32 33 33 33 32 26 27 26 23 23 22 22 27 31 32 32 32 34 42 39 33 29 28 27 28 30 33 36 40 38 31 31 35 37 39 38 39 43 50 55
9 6 15 24 29 29 30 26 26 24 23 22 20 19 22 25 29 30 33 34 34 36 37 39 38 35 34 34 34 32 28 27 30 29 29 32 33 31 33 34 36 37 37
8 7 2 6 14 20 21 20 23 25 26 24 26 25 20 18 21 24 22 21 22 24 25 23 21 18 16 14 14 15 15 15 14 15 19 22 23 25 29 33 36 39 36
4 2 1 3 7 14 16 9 10 16 19 20 15 15 14 14 15 14 14 13 11 11 9 10 10 9 9 8 7 9 9 8 10 13 13 17 21 24 26 29 31 32 35
2 2 4 4 11 15 17 19 21 22 10 8 7 8 7 9 8 7 5 4 4 6 6 4 3 4 6 6 5 4 5 9 14 14 20 26 25 24 24 25 28 29 32
1 2 6 9 14 19 19 18 20 20 21 24 22 23 21 20 17 14 12 12 13 10 8 6 4 4 3 3 4 8 11 14 16 15 20 16 16 15 17 19 21 23 24
6 11 13 12 14 20 22 20 21 20 21 23 20 20 19 19 16 14 12 13 11 10 7 6 5 5 6 8 11 13 14 15 15 15 13 11 13 14 15 19 22 20 17
10 14 18 22 23 23 23 25 22 20 21 19 18 15 14 16 16 15 14 13 12 10 8 8 9 9 11 12 12 14 15 15 16 15 14 17 15 14 13 14 14 16 12
12 16 21 23 24 23 22 23 22 22 21 23 20 16 14 18 17 16 15 13 11 10 9 8 9 11 13 15 15 17 18 19 18 16 17 18 16 15 13 10 9 5 4
17 19 20 22 22 24 24 27 24 21 21 21 20 20 18 18 17 15 14 13 11 11 12 13 13 13 15 16 16 16 16 17 18 20 22 21 16 16 14 13 12 7 2
23 24 25 25 27 28 25 24 24 24 21 21 20 20 20 19 17 16 15 13 13 14 15 16 17 17 17 16 16 18 18 18 19 18 21 22 20 20 17 15 14 11 7
14 27 26 22 24 26 26 25 24 25 23 22 23 23 22 22 21 20 19 19 20 20 20 20 20 20 20 20 21 20 20 18 15 17 17 16 17 20 18 18 14 13 11
20 16 21 26 25 25 23 22 22 25 25 23 22 21 20 19 19 19 18 19 19 20 20 21 23 25 25 23 23 25 23 17 13 14 14 14 14 14 12 15 14 15 12
29 26 25 23 24 26 26 24 25 27 27 27 26 23 21 21 21 21 21 21 21 21 21 20 21 21 24 25 26 25 26 23 16 12 13 13 14 15 14 16 14 16 16

GFSGL_925_spd_042.txt.gz
Wind_Speed
38 39 36 38 39 42 42 39 34 29 26 28 26 23 24 25 25 26 25 23 23 23 22 23 22 20 20 20 19 19 18 15 12 18 19 20 18 17 19 21 23 26 27
41 40 41 39 40 40 41 41 36 32 28 30 27 25 26 25 25 26 28 27 27 27 26 26 26 24 24 23 22 23 24 23 21 23 27 26 26 23 22 22 24 26 29
37 38 36 35 36 38 40 41 38 34 32 31 32 32 30 27 27 26 26 28 30 30 29 29 29 28 29 28 27 27 27 26 26 28 26 24 28 27 27 27 27 29 31
35 36 36 37 37 38 40 40 39 36 35 35 34 34 33 30 28 28 28 29 30 31 32 33 33 33 32 31 30 31 32 31 30 30 30 29 30 33 30 33 34 34 34
36 35 37 37 37 40 39 40 40 39 38 37 37 37 36 35 35 32 31 33 32 32 33 34 35 36 36 34 33 34 34 33 27 25 24 22 26 23 26 28 30 36 39
37 36 36 35 37 39 40 40 39 40 39 38 40 40 41 41 40 40 39 36 35 36 38 38 37 36 36 37 37 37 37 33 28 26 28 26 29 28 33 32 29 24 20
35 34 34 35 36 37 39 37 39 39 37 38 40 39 40 43 44 42 41 42 40 40 41 40 39 39 39 39 39 39 40 40 40 36 34 33 34 31 33 30 29 31 33
34 33 33 34 34 33 32 35 35 36 36 36 38 39 39 41 42 43 43 42 42 43 44 43 41 40 39 39 39 40 42 41 39 38 43 48 45 41 37 39 39 37 38
33 34 35 36 34 32 33 34 34 32 32 36 37 37 39 39 38 39 38 40 42 44 39 40 40 38 37 37 36 36 40 37 37 39 39 40 41 41 42 34 26 23 26
34 34 32 34 35 36 36 36 35 32 31 28 32 35 38 38 37 36 36 37 32 35 35 37 38 38 37 37 38 36 34 34 36 34 37 38 38 37 37 40 45 32 29
26 29 33 37 37 34 31 31 29 29 26 26 28 31 33 33 33 32 32 36 34 30 28 27 27 33 34 34 37 40 37 38 35 33 35 31 32 36 39 40 42 39 33
30 32 34 33 31 29 32 30 29 28 26 26 26 26 30 32 31 30 29 32 34 32 27 27 30 30 29 29 31 35 36 38 43 33 29 30 28 29 30 30 33 38 45
27 31 32 31 32 31 31 27 26 28 26 24 23 23 23 29 30 28 28 28 29 37 35 32 29 25 24 24 25 27 30 33 35 28 26 27 27 28 30 30 30 31 34
21 24 27 29 29 28 28 27 25 25 24 22 22 20 20 23 25 25 24 27 30 33 34 36 32 30 29 27 27 28 22 16 17 19 18 20 21 21 22 24 24 26 28
13 11 15 21 23 24 22 21 21 22 24 22 21 20 19 17 20 20 19 20 21 22 24 27 26 23 18 11 9 8 7 5 5 6 8 11 14 18 21 21 20 22 22
8 8 10 15 19 23 23 15 17 18 18 19 17 18 16 16 15 15 13 15 14 12 9 8 6 4 4 5 6 5 4 3 5 7 7 11 14 12 16 17 15 16 19
2 2 5 12 16 20 19 18 16 13 14 17 16 14 15 14 13 10 9 8 8 8 6 4 3 0 2 2 1 2 1 5 8 10 10 12 8 9 10 11 14 16 16
5 4 4 11 14 19 21 19 19 19 20 21 18 19 18 17 14 11 12 11 13 11 11 9 8 7 5 3 3 6 8 10 12 11 11 9 8 12 12 13 14 15 16
7 6 4 9 12 18 21 22 19 21 20 26 28 24 21 20 18 16 13 16 17 14 12 11 8 5 5 5 7 9 10 11 11 11 11 10 11 13 11 11 13 13 13
8 8 10 13 16 18 16 17 19 21 19 14 19 23 21 20 19 19 18 18 16 13 11 9 7 5 6 6 7 7 9 10 10 10 10 12 14 14 11 13 13 9 9
7 10 14 14 13 13 13 13 15 19 21 22 19 17 17 20 17 17 16 14 14 11 9 7 7 7 7 8 9 9 9 9 11 13 13 14 14 14 12 9 8 7 6
9 11 14 16 18 17 16 17 19 22 21 23 22 21 19 20 19 15 16 15 14 13 11 11 11 11 11 12 13 15 15 15 16 16 16 14 15 15 15 14 10 9 5
14 15 17 18 19 20 19 17 18 18 21 21 20 19 21 20 19 17 17 17 16 15 16 16 15 15 15 15 17 18 19 20 20 18 16 15 16 14 14 14 9 6 6
14 16 16 17 22 20 20 22 21 20 21 21 23 24 24 23 22 21 20 19 18 17 17 17 17 18 18 19 20 20 21 21 18 17 16 15 13 13 13 10 9 9 5
20 20 23 19 20 23 23 24 24 23 23 22 24 25 24 22 19 17 15 15 15 15 15 15 16 18 18 18 20 22 20 22 17 16 14 12 11 12 11 12 10 8 7
28 27 28 27 26 25 25 24 25 26 26 25 25 26 24 22 19 17 16 15 15 15 15 16 16 17 19 21 21 18 19 22 22 17 16 14 12 10 10 10 10 11 11

GFSGL_925_spd_045.txt.gz
Wind_Speed
36 35 35 33 34 33 30 30 30 30 26 25 24 23 20 19 19 19 19 16 14 14 13 13 13 13 13 12 11 11 12 11 15 18 15 13 18 18 18 18 19 21 21
38 37 36 35 33 31 33 29 29 32 30 29 26 25 23 20 19 18 18 17 17 17 16 15 15 14 15 15 14 15 15 15 16 20 19 18 19 17 22 23 23 20 22
38 37 35 35 32 33 33 32 31 34 34 29 26 27 24 24 21 20 21 19 18 19 18 18 18 16 17 16 17 17 16 16 16 18 23 20 20 17 18 22 23 25 27
38 37 35 36 36 35 33 32 31 35 35 33 31 28 26 25 23 21 20 20 20 19 20 20 20 19 20 19 19 18 17 18 19 20 24 24 23 21 19 23 23 23 23
37 37 38 36 35 33 31 32 32 31 35 36 32 29 27 25 25 25 24 22 22 21 21 21 21 23 25 26 21 20 17 18 18 20 22 22 23 21 22 23 25 26 26
37 37 35 34 33 34 33 32 30 32 33 30 29 28 27 28 30 33 31 24 23 22 23 23 24 28 31 32 32 30 28 24 24 24 27 27 25 25 25 25 26 27 26
37 34 34 33 34 34 33 32 32 32 29 29 28 28 29 32 37 37 37 33 28 27 26 25 24 24 26 26 25 29 31 32 35 36 33 30 31 27 27 27 28 30 31
35 34 33 34 33 32 31 31 31 30 29 29 28 29 29 32 38 39 38 38 33 32 31 31 30 31 29 27 25 27 27 27 26 28 33 39 35 31 29 30 30 31 37
33 34 34 34 32 31 31 31 29 27 27 28 27 27 29 32 37 37 35 30 32 34 33 32 31 32 31 31 30 30 31 29 27 31 35 36 35 34 34 34 29 24 23
36 36 33 34 33 33 32 31 30 29 28 26 27 28 29 30 32 36 33 27 28 29 28 29 32 34 32 32 32 28 30 28 26 25 24 25 28 30 29 28 30 25 24
29 30 31 33 32 31 30 28 27 27 25 26 26 26 26 28 30 34 32 30 28 26 25 24 24 27 30 31 33 31 30 27 26 26 27 30 30 30 27 23 29 30 26
28 29 30 30 30 28 28 26 27 26 25 24 24 23 23 24 29 28 29 30 31 26 23 21 20 23 26 23 25 29 29 30 36 32 28 25 24 25 23 20 19 23 27
29 29 28 28 27 25 27 26 25 25 24 24 23 22 21 20 21 24 28 26 27 33 25 22 22 22 22 22 23 25 27 30 32 27 24 24 19 17 18 20 16 16 18
26 26 27 28 27 26 25 25 25 24 24 23 21 20 19 18 18 17 19 26 27 28 31 30 28 27 26 26 26 24 24 24 18 15 15 14 13 12 12 13 14 14 16
20 23 24 24 28 26 24 22 24 22 24 23 21 20 19 17 17 16 15 14 17 22 23 20 21 23 22 21 18 10 8 7 7 6 7 9 10 12 12 10 10 11 13
8 10 13 15 20 22 22 17 20 20 23 23 18 16 17 15 13 13 14 14 13 12 12 14 13 11 9 7 6 6 5 4 3 4 6 8 9 10 10 9 9 11 12
7 10 8 4 13 11 16 16 11 6 12 17 19 18 17 14 16 13 11 9 9 13 8 8 9 7 5 4 3 3 3 1 1 4 6 8 9 9 9 11 11 11 13
7 6 6 9 21 13 13 13 12 11 9 8 12 17 15 13 11 10 10 10 10 8 7 7 7 6 5 3 1 0 2 3 4 5 7 9 9 9 12 12 11 10 10
3 6 16 22 18 14 13 13 12 12 12 16 19 18 18 19 19 16 13 10 12 12 11 11 8 6 6 4 3 3 4 5 5 7 7 8 9 10 12 10 9 8 9
9 12 8 10 13 13 14 14 14 14 15 13 12 13 13 16 14 14 13 15 14 15 14 10 8 7 6 4 3 3 3 4 6 8 7 8 9 9 11 12 10 8 7
10 10 11 9 11 13 15 15 14 14 17 17 14 11 12 14 14 14 13 11 10 9 8 8 8 7 6 5 5 5 6 6 7 9 11 12 12 13 12 11 12 10 8
7 6 6 6 8 11 13 16 20 23 22 20 17 17 15 14 13 13 13 12 11 10 9 9 10 9 8 7 7 7 8 8 9 10 11 12 12 12 14 15 12 14 9
4 1 4 5 8 15 16 16 20 23 23 19 16 13 12 13 12 14 13 13 12 13 12 12 12 11 10 9 9 9 9 10 11 11 11 13 14 12 12 13 13 14 10
5 5 7 9 8 10 13 18 21 23 23 22 20 18 17 17 17 17 16 15 13 12 12 12 12 11 10 9 9 9 11 14 12 12 10 10 12 13 11 13 12 12 13
6 7 10 11 13 15 18 16 22 21 21 22 22 22 21 18 16 13 12 12 11 11 12 12 10 10 12 12 12 11 10 11 13 12 8 9 10 11 10 12 14 13 12
8 11 8 13 14 15 18 20 24 28 29 27 25 23 22 19 15 12 12 12 10 8 9 10 10 11 10 11 13 12 12 11 11 10 10 10 11 11 12 10 10 12 12

GFSGL_925_spd_048.txt.gz
Wind_Speed
38 37 35 35 33 30 29 27 24 22 20 19 18 18 19 18 17 17 15 13 13 13 12 12 13 12 12 11 11 11 12 12 14 15 13 13 14 15 15 16 17 18 20
38 37 37 35 33 32 30 29 25 24 23 22 20 19 20 20 19 19 18 17 17 16 15 15 15 14 15 14 14 14 15 14 16 17 18 19 19 18 19 19 19 21 23
37 37 37 35 34 33 31 30 27 25 25 24 22 22 21 21 20 20 19 19 18 18 18 18 18 17 17 16 16 16 16 16 16 18 20 20 20 20 21 21 20 22 23
38 38 37 37 37 35 34 31 29 28 26 26 25 23 23 23 23 22 21 20 20 19 19 19 20 20 19 18 17 17 17 17 18 20 22 21 20 19 20 21 20 20 22
38 40 38 38 37 36 33 32 32 30 28 27 27 26 24 24 25 25 24 23 21 21 21 20 21 22 22 22 19 17 17 18 19 20 21 21 21 19 19 24 27 27 26
37 40 37 36 36 36 34 33 32 31 29 27 29 28 27 27 28 29 27 24 23 22 23 22 22 23 24 27 28 29 27 22 24 24 24 24 21 23 24 27 29 29 27
36 36 36 36 36 36 36 34 33 32 29 29 28 29 29 30 30 31 32 29 24 24 24 23 23 24 23 22 23 24 24 27 30 31 29 28 28 26 25 26 29 28 27
34 36 36 35 35 34 34 35 33 32 31 30 29 30 30 31 32 34 34 31 29 29 27 27 27 27 26 24 22 24 24 24 24 25 25 25 24 22 21 23 25 28 27
36 36 37 37 35 35 34 33 33 31 29 30 30 30 31 31 33 35 35 28 29 31 31 31 31 30 30 29 28 29 29 28 27 29 31 32 29 27 27 26 24 24 25
38 40 38 37 36 35 34 34 33 31 31 30 30 30 31 30 30 34 34 28 28 28 28 29 33 35 32 31 30 28 28 26 22 23 23 21 18 19 19 19 17 19 18
35 33 33 34 34 32 31 31 32 32 28 29 28 28 29 29 29 30 33 31 29 27 27 27 27 28 28 29 33 30 27 23 22 21 20 19 18 18 15 17 22 24 21
31 32 32 33 32 30 30 29 29 28 28 26 27 26 27 27 29 29 33 35 30 27 27 24 22 22 22 24 24 26 26 26 23 23 21 21 21 20 23 19 16 18 21
26 28 30 30 30 27 29 28 27 27 26 26 26 25 24 24 25 30 32 31 32 31 26 23 21 17 15 18 21 21 20 20 22 26 25 25 24 19 12 14 15 13 14
25 25 25 25 26 27 26 27 27 27 28 26 25 24 23 24 23 21 24 28 28 27 32 27 23 20 19 16 16 17 19 21 21 22 21 16 13 11 13 11 12 11 13
23 22 21 20 22 21 19 16 23 22 24 25 23 22 22 22 22 21 19 18 19 24 20 19 20 19 19 16 15 20 22 16 13 10 11 10 12 11 11 8 9 10 11
19 21 20 18 19 17 18 5 7 9 8 19 16 16 15 14 12 18 19 14 15 15 16 14 14 15 15 14 11 9 7 7 7 7 10 9 9 9 9 8 8 9 11
14 16 13 14 16 18 16 13 10 13 18 16 17 18 12 12 13 14 16 17 15 14 8 9 8 7 7 6 6 5 6 5 3 6 7 7 8 9 7 8 9 10 9
9 20 16 19 22 23 19 12 7 22 19 20 18 19 17 16 13 14 14 13 13 8 8 9 9 7 6 6 4 4 3 2 2 3 6 8 8 8 9 9 9 9 10
6 12 15 19 14 9 26 26 28 26 16 8 8 11 14 15 16 16 14 9 12 11 9 9 8 7 6 5 3 1 0 2 4 4 5 6 5 5 8 9 9 10 10
13 10 5 7 22 16 10 13 11 15 11 12 11 15 21 22 17 12 10 10 10 10 10 8 8 7 6 4 2 1 0 1 2 3 4 5 7 8 9 10 10 11 10
8 9 10 11 18 17 7 11 13 18 16 13 10 13 18 17 15 13 13 11 11 11 10 8 7 6 5 4 3 2 2 2 4 5 7 8 9 10 11 12 12 13 12
12 11 13 13 10 11 9 9 9 11 15 17 15 16 19 17 16 15 14 12 11 11 10 9 8 7 5 4 4 3 4 5 6 7 8 9 9 10 11 12 13 13 14
10 7 8 8 9 13 12 15 14 13 13 14 15 14 13 15 15 16 16 15 13 12 11 10 9 8 6 6 5 5 5 6 7 7 7 9 10 11 12 13 14 13 13
4 5 6 6 6 10 11 13 14 14 12 12 11 13 13 14 15 16 15 14 13 13 12 11 10 9 7 6 6 7 8 9 8 9 9 9 10 11 12 13 14 15 14
4 5 9 7 5 9 11 14 14 13 13 13 12 13 14 15 16 15 15 14 13 12 12 12 10 9 10 10 9 9 9 10 10 9 7 9 10 12 11 12 12 15 15
4 7 7 9 14 13 8 10 14 14 12 13 14 14 15 15 14 14 13 14 13 12 11 10 11 10 8 8 9 8 9 10 9 7 8 8 10 11 12 11 12 14 13

GFSGL_925_spd_051.txt.gz
Wind_Speed
39 38 37 36 33 33 27 27 24 21 18 19 15 17 19 19 19 18 18 12 16 14 13 11 12 13 11 10 10 11 11 11 12 13 12 12 10 12 15 16 15 19 21
41 38 39 37 36 34 33 29 26 26 23 20 20 19 20 21 21 21 20 18 17 16 16 16 15 15 16 17 13 12 12 11 13 14 17 19 19 18 21 20 17 17 19
39 40 37 37 37 36 35 33 30 28 26 25 24 22 22 23 22 22 22 21 19 19 19 18 18 17 17 17 15 16 15 16 15 17 18 18 19 19 20 20 20 18 19
39 40 39 39 39 38 35 34 33 31 29 27 26 26 24 24 24 24 23 23 22 21 20 20 20 20 20 19 18 18 17 17 18 19 20 21 20 18 18 19 17 17 22
38 38 39 40 40 38 37 35 34 33 32 30 28 27 27 25 25 26 24 23 23 22 21 22 23 23 22 21 20 19 19 19 19 20 19 19 19 18 18 23 26 22 23
37 40 39 39 38 39 38 37 35 33 33 31 29 28 29 28 27 28 28 25 24 23 22 23 23 22 24 27 27 29 27 20 18 20 23 22 23 23 22 23 26 27 23
35 37 35 37 39 38 39 37 37 35 32 31 30 29 30 31 29 29 31 29 24 25 24 23 23 22 24 24 23 24 25 26 28 30 27 27 27 25 25 24 24 24 24
36 34 37 36 38 37 37 38 37 36 35 32 31 31 31 32 33 33 31 32 29 28 24 24 25 25 22 19 19 21 21 21 22 23 28 27 24 24 22 24 26 26 23
33 36 39 39 37 36 37 37 36 34 33 33 32 32 32 32 33 36 33 28 29 29 28 29 28 26 25 26 28 27 28 28 28 29 31 32 33 33 31 30 25 22 20
37 41 38 38 37 38 38 37 35 34 34 34 33 32 32 32 33 34 35 30 28 28 28 30 32 34 30 29 29 27 27 25 24 23 22 21 19 19 20 22 23 18 17
37 32 34 37 38 37 35 34 34 34 33 32 31 30 30 33 32 35 38 34 31 27 28 27 27 29 30 29 32 33 30 26 22 21 19 18 17 16 14 15 17 20 19
32 32 33 34 34 32 32 32 31 30 29 27 28 28 30 30 33 34 34 37 34 31 28 25 24 25 26 24 24 25 23 23 19 20 20 19 16 17 21 21 22 18 19
30 32 31 31 31 29 31 30 29 28 28 28 27 29 28 29 30 33 32 35 36 35 28 22 24 21 10 13 16 18 18 15 16 17 16 18 19 20 18 18 14 16 16
28 29 28 30 29 28 29 29 27 28 27 26 26 25 26 26 26 25 30 36 35 34 36 28 24 18 15 14 12 13 15 15 16 17 20 20 17 13 14 11 13 13 13
27 27 28 29 29 27 24 26 27 16 22 27 25 25 24 24 27 27 25 22 24 29 22 22 22 21 22 20 18 17 14 17 19 18 15 13 12 12 14 12 11 11 12
26 26 28 29 29 27 20 13 13 10 10 15 10 6 6 12 16 24 27 20 22 21 22 20 19 18 16 14 11 11 15 14 10 8 8 9 12 10 11 10 10 11 11
25 27 29 27 31 26 27 22 18 13 10 6 5 5 2 2 3 12 19 20 16 19 17 16 12 10 9 9 9 10 9 8 6 7 9 9 8 9 8 10 10 11 11
17 20 26 19 25 20 17 17 19 16 13 7 4 1 6 7 8 5 9 14 14 13 10 11 10 8 8 8 7 6 7 8 4 2 3 6 8 9 9 9 9 9 10
10 14 17 23 26 27 24 20 17 15 15 12 9 3 6 12 9 8 12 11 14 13 12 10 11 10 9 8 6 3 2 1 1 3 3 5 5 6 7 7 8 9 10
13 11 11 13 17 16 16 19 12 13 14 13 11 8 11 7 9 10 5 9 11 11 13 12 11 10 9 6 5 3 3 2 2 3 4 5 5 6 8 9 9 10 10
13 15 11 8 6 9 13 17 15 13 8 6 13 8 9 11 12 8 6 8 10 10 11 10 10 10 7 6 5 4 3 3 2 3 4 5 6 7 9 10 11 13 13
16 17 13 13 12 14 15 13 13 10 12 13 15 14 14 6 12 11 11 11 9 9 9 10 9 8 6 4 3 2 2 2 1 3 4 5 6 7 8 8 11 12 13
10 7 15 19 17 16 14 12 14 9 12 22 21 21 13 12 12 9 9 10 9 9 9 9 10 9 9 6 5 4 4 4 3 4 4 5 6 7 8 10 11 12 13
10 8 11 12 13 17 18 19 16 15 16 20 18 18 17 14 13 11 10 10 10 10 11 9 8 8 7 7 6 6 5 5 5 5 5 4 6 7 9 10 11 12 12
5 3 6 10 12 14 18 20 19 18 14 15 15 17 18 16 17 15 11 11 12 11 10 10 10 11 11 11 10 9 8 8 7 6 6 5 7 8 8 10 11 12 13
10 12 10 13 13 14 13 15 17 23 20 17 17 15 14 13 13 16 15 15 13 13 10 10 10 9 8 10 11 10 9 9 8 7 9 9 8 9 10 11 13 15 17

GFSGL_925_spd_054.txt.gz
Wind_Speed
38 38 36 36 36 38 27 33 25 28 17 19 16 18 19 20 18 17 19 15 17 16 15 11 16 12 15 11 9 11 11 10 11 16 15 16 16 16 18 22 23 24 20
40 38 38 36 37 36 39 28 33 27 27 18 21 17 19 19 20 21 21 19 17 19 18 16 12 12 13 16 17 13 10 9 9 14 19 22 20 17 21 22 23 24 22
37 37 36 37 37 37 37 37 33 34 27 27 21 24 21 22 22 23 23 22 20 19 20 19 19 17 17 15 15 15 15 15 18 19 20 17 19 23 27 27 27 25 24
39 37 38 40 39 39 36 39 34 33 33 30 29 26 26 25 25 24 24 24 23 22 20 23 21 21 21 20 20 20 19 19 20 19 21 23 23 23 19 15 17 20 23
37 40 40 39 40 38 37 37 39 36 34 32 31 29 29 28 28 27 26 25 26 24 24 23 24 23 22 22 20 20 21 21 19 20 20 17 17 18 21 21 20 21 28
38 41 39 39 38 37 39 36 37 38 35 33 32 32 30 31 30 29 30 28 26 27 26 26 24 23 27 27 26 25 27 26 25 19 17 17 22 23 21 24 25 22 13
35 35 37 38 38 40 37 38 36 37 36 35 34 32 32 33 34 32 32 32 29 27 26 27 25 24 26 26 28 30 31 30 30 32 29 27 27 28 25 24 21 20 20
37 33 37 37 40 38 38 37 38 35 37 36 34 34 33 34 36 35 32 34 32 29 28 29 29 27 27 20 27 27 28 29 28 27 30 30 28 26 26 27 25 25 24
34 37 39 40 38 39 39 39 38 35 35 35 34 34 35 33 35 38 36 33 35 35 35 34 27 26 29 28 29 30 29 27 22 23 26 30 30 31 32 31 28 20 18
37 40 37 40 38 41 41 39 37 37 37 35 35 35 35 35 35 37 39 37 28 30 30 33 33 35 36 30 27 28 27 27 24 24 24 23 21 21 20 19 21 19 15
39 33 35 38 40 37 35 35 35 35 33 33 33 32 32 36 34 38 38 40 32 28 28 27 29 32 32 34 36 36 33 28 22 21 21 20 21 21 18 13 13 17 19
33 34 31 35 36 34 36 34 34 33 33 31 31 28 30 31 35 35 37 40 37 31 27 25 27 30 30 30 30 32 31 31 28 21 18 19 19 16 13 19 23 23 22
30 36 34 33 33 33 34 32 31 32 30 30 27 28 27 28 32 35 37 38 38 40 32 26 28 26 22 16 19 26 24 24 22 16 17 18 15 18 20 21 19 13 14
29 31 33 31 32 33 29 33 31 30 30 27 29 26 27 27 28 32 37 39 37 38 39 34 30 23 11 9 11 15 19 18 18 18 17 18 20 20 19 15 11 12 11
27 29 31 30 33 31 31 30 30 31 32 31 27 29 25 27 31 29 33 37 40 40 36 31 26 27 22 18 16 15 15 16 19 19 17 21 20 14 14 10 13 10 6
26 27 29 28 29 29 30 18 29 31 31 33 35 26 24 18 21 30 37 34 34 33 29 22 21 21 22 21 21 19 15 16 16 16 17 14 12 11 14 6 4 6 9
21 24 25 27 29 31 30 23 18 17 17 19 21 24 17 13 12 15 17 29 32 26 22 20 18 19 17 14 13 14 14 13 10 9 8 11 14 12 8 7 9 10 7
12 21 26 30 27 32 30 26 23 22 19 14 16 14 10 10 9 8 12 23 22 23 24 14 15 13 9 10 11 10 9 9 10 7 5 3 5 8 8 6 6 6 8
1 12 16 23 27 31 29 27 24 21 19 16 13 12 12 9 8 8 9 3 17 21 19 18 15 10 10 11 12 12 11 11 8 5 0 2 4 5 6 7 6 7 7
14 16 7 13 27 28 26 22 20 19 19 16 10 9 10 13 12 12 14 16 18 9 3 10 14 16 14 14 11 8 6 6 3 2 2 2 3 4 6 8 8 10 11
13 19 19 23 13 11 10 12 15 14 15 14 6 13 18 19 24 17 7 13 26 3 1 10 15 17 13 10 8 6 7 6 2 0 1 2 4 6 7 7 9 11 13
18 17 16 18 17 17 20 19 18 11 7 20 18 10 12 15 23 25 26 28 28 25 18 12 13 15 16 12 7 4 5 7 6 3 2 2 2 4 6 2 5 10 13
14 19 22 21 21 21 23 22 16 11 13 16 15 10 16 19 26 29 29 25 24 22 19 14 15 16 15 12 10 10 14 11 9 5 2 2 3 4 5 6 4 8 9
17 18 19 21 24 20 20 23 23 22 23 26 23 20 19 26 23 24 22 21 20 23 22 22 20 21 21 17 10 7 6 6 5 1 1 2 5 4 4 7 5 5 7
15 20 23 14 22 24 19 19 19 16 28 27 24 25 24 23 20 20 21 20 21 22 19 17 14 12 12 12 13 12 9 7 6 5 5 2 6 8 6 6 7 12 11
24 28 29 27 28 25 17 13 14 15 19 21 24 25 25 24 24 23 21 18 25 22 20 20 20 16 13 14 13 10 7 7 7 7 8 9 6 8 10 8 9 10 11

GFSGL_925_spd_057.txt.gz
Wind_Speed
40 37 38 39 41 39 35 33 25 22 18 17 29 28 25 23 18 18 18 15 17 16 14 14 14 14 12 12 9 6 9 10 8 15 15 15 19 20 18 19 22 25 27
40 38 37 38 40 42 39 37 34 28 26 18 25 27 26 26 23 21 21 19 18 17 19 20 18 15 18 14 15 12 11 8 9 14 17 18 18 16 19 23 27 28 28
39 39 36 36 41 39 42 37 38 36 32 31 25 30 28 27 24 24 24 23 22 19 21 21 19 18 16 15 15 14 12 12 10 11 15 15 20 24 25 26 15 16 16
40 39 40 40 38 42 39 44 38 35 36 35 32 29 29 28 27 25 25 26 25 24 21 22 20 20 20 19 19 19 19 20 21 22 21 21 21 24 17 19 23 22 25
42 41 41 40 38 35 37 40 47 37 41 38 34 33 30 30 29 28 28 28 29 27 24 26 23 23 24 23 22 22 21 21 21 22 23 20 17 18 21 26 29 30 26
41 42 40 38 40 39 37 37 42 43 37 42 40 37 33 31 32 31 30 31 30 30 30 28 27 24 25 26 25 24 24 23 23 20 23 23 29 31 32 30 26 23 6
41 40 41 41 39 40 37 37 37 41 38 35 38 36 38 38 34 33 32 32 35 33 32 32 30 28 28 26 26 26 29 30 31 31 30 32 29 30 27 26 27 26 23
42 40 42 41 42 38 38 39 36 35 38 36 35 36 37 39 39 36 35 34 36 35 35 32 31 31 28 25 26 25 31 31 30 31 32 33 34 30 27 28 29 28 26
29 40 42 43 41 38 41 39 40 35 34 37 35 35 36 36 38 40 37 38 39 40 38 36 35 34 33 30 29 30 26 24 22 22 22 24 26 24 23 27 27 21 17
33 34 39 42 41 42 42 40 35 37 36 31 34 35 38 38 38 39 41 41 39 38 41 40 37 35 31 25 28 35 34 34 32 30 29 27 25 22 20 22 22 18 18
40 36 36 42 42 42 38 37 38 34 34 34 33 33 32 36 37 40 40 42 37 33 33 35 41 40 39 38 38 40 39 39 33 28 23 20 23 25 23 21 17 17 18
20 30 37 40 39 37 39 36 36 35 33 32 31 29 32 34 38 39 41 43 44 35 32 35 33 35 33 32 33 35 36 37 33 27 24 25 25 21 18 15 15 20 21
17 36 36 36 39 35 37 36 33 33 32 30 29 30 30 31 34 40 42 43 44 45 36 32 28 28 32 34 33 31 37 39 38 33 30 25 22 19 18 19 22 18 12
19 22 37 32 33 35 34 36 35 34 32 30 30 30 29 29 30 32 39 42 42 43 46 38 34 31 26 24 21 20 23 25 28 27 23 19 18 17 19 21 16 10 9
17 24 29 32 34 33 32 33 36 37 38 35 33 31 28 28 35 34 36 42 43 44 43 36 30 32 31 26 20 16 17 18 19 19 19 18 16 17 19 11 11 10 10
18 18 25 30 29 30 31 29 35 34 37 39 36 33 32 33 30 34 35 37 38 38 37 25 26 27 27 25 25 25 23 22 23 20 17 15 16 12 11 9 7 5 5
15 16 24 30 28 29 28 26 21 24 33 39 40 38 33 34 38 30 37 38 36 38 25 26 23 24 24 26 28 27 27 25 19 16 15 12 10 10 13 11 8 6 9
15 13 17 26 25 25 27 27 23 23 20 21 28 36 32 21 22 23 24 23 33 30 25 21 18 13 16 17 18 18 13 12 12 11 10 8 5 3 7 9 10 7 5
13 14 15 18 25 26 28 26 25 25 23 27 23 24 26 23 18 16 15 19 26 23 17 16 18 14 12 11 10 2 4 8 10 11 9 6 3 2 4 5 4 2 3
12 9 11 21 20 26 27 24 25 25 22 22 22 27 25 24 22 18 16 20 29 30 28 25 23 22 18 13 4 6 5 1 4 5 5 4 3 1 1 1 1 2 4
13 6 6 7 4 21 22 13 15 21 21 19 12 18 21 20 22 21 20 16 17 25 30 31 29 23 24 23 20 15 7 8 5 2 3 4 3 4 5 6 4 2 3
6 8 14 17 21 25 20 22 25 28 24 22 17 11 9 15 17 15 12 11 13 15 17 18 19 15 16 17 18 21 15 12 9 9 8 6 4 0 3 8 4 1 3
8 19 18 24 22 27 21 21 19 23 33 17 21 20 22 22 21 22 23 25 24 27 26 25 26 24 20 18 17 18 20 15 10 7 6 7 4 1 3 5 2 3 3
20 21 20 26 24 25 23 23 24 26 28 33 24 24 23 24 26 24 26 27 28 28 27 26 24 23 20 16 15 14 13 11 7 5 9 5 5 5 1 3 4 4 6
29 28 23 23 24 24 26 26 27 27 27 26 26 27 23 25 25 25 26 28 28 28 25 23 21 19 15 12 11 10 9 9 8 7 8 6 6 4 5 3 3 7 9
31 32 30 28 27 26 26 23 30 29 29 28 28 28 28 26 26 29 26 26 26 25 20 20 20 20 16 15 13 11 10 8 7 9 11 11 5 3 5 7 9 8 5

GFSGL_925_spd_060.txt.gz
Wind_Speed
39 41 40 42 42 40 38 35 29 24 29 28 28 32 29 25 23 21 18 15 15 14 13 13 14 10 10 8 8 8 6 4 5 13 13 13 15 18 16 17 21 25 26
41 38 39 43 46 43 42 42 37 31 24 30 26 28 35 30 25 24 21 19 18 17 16 16 14 10 11 13 11 10 11 10 9 13 15 15 17 17 22 22 22 14 18
38 39 37 37 40 43 42 44 42 37 30 23 23 25 33 33 28 26 24 22 21 20 17 18 19 18 18 14 14 13 12 12 10 12 17 20 22 22 22 21 13 22 29
40 39 38 39 39 42 43 41 44 40 40 32 28 28 34 34 31 28 27 25 24 23 22 21 20 21 19 19 18 18 17 17 18 20 21 22 21 21 18 17 26 31 29
38 38 40 37 39 40 41 42 45 47 42 42 36 32 32 35 35 34 31 28 26 25 25 24 24 21 22 20 20 21 20 21 21 21 22 23 23 21 23 28 30 27 27
38 39 38 38 36 37 40 42 43 46 47 43 41 41 37 37 37 36 32 30 28 28 28 27 26 25 25 23 23 23 23 25 25 24 25 23 27 30 31 28 26 24 8
34 36 37 37 37 37 35 38 38 41 43 41 40 41 40 40 38 36 33 32 31 32 32 31 29 28 27 26 26 24 24 25 27 28 28 31 32 32 29 28 30 26 22
13 30 33 36 36 36 36 36 36 35 38 38 39 40 40 42 41 39 36 35 35 35 36 35 33 31 29 27 27 27 27 27 27 29 32 34 33 31 30 25 26 26 27
15 13 19 33 33 35 37 37 36 33 34 37 37 37 40 40 42 44 42 38 38 39 37 36 36 34 32 28 28 29 30 30 28 28 24 24 24 25 25 25 26 21 11
24 16 15 11 32 37 37 37 37 37 36 33 35 37 38 39 39 42 41 41 39 39 40 40 38 38 36 33 31 32 34 36 33 32 30 28 27 26 23 22 22 23 17
21 16 17 24 25 37 37 36 37 36 34 34 34 35 37 41 40 41 42 43 37 33 34 34 41 40 38 38 35 34 36 36 36 34 32 30 27 22 20 21 21 21 21
30 27 27 32 32 35 37 37 37 34 35 35 32 33 36 36 41 41 43 44 44 36 33 37 39 40 38 37 38 40 41 40 39 36 33 33 28 25 23 19 15 12 13
24 25 38 38 40 42 39 39 35 35 33 32 33 33 32 32 34 40 44 45 44 46 39 34 37 36 34 33 32 32 33 33 34 32 31 33 34 27 21 18 17 17 20
30 35 36 35 35 40 39 41 38 36 36 33 33 32 29 29 32 33 39 43 43 44 48 41 38 36 33 32 30 31 32 30 29 30 30 31 27 21 19 17 19 18 11
22 31 32 29 35 35 37 38 40 42 43 39 37 32 30 31 34 35 33 39 46 47 44 40 33 35 33 33 31 27 24 23 23 23 23 21 20 19 20 18 17 12 12
17 21 22 25 25 32 31 34 41 39 41 45 40 36 34 36 31 33 35 36 37 37 37 27 28 28 29 30 31 31 27 26 24 20 21 22 20 18 18 16 12 14 13
19 22 23 21 23 24 29 27 27 36 39 41 44 41 37 31 35 31 32 37 36 34 27 27 26 28 29 26 28 28 25 27 27 26 26 22 15 14 13 13 11 11 8
23 27 27 23 22 26 29 30 28 28 28 30 40 43 42 38 34 33 36 35 36 32 32 26 27 26 25 24 22 20 19 17 14 8 1 6 8 9 8 9 11 14 14
25 25 22 22 27 28 27 29 25 27 27 26 28 34 42 41 41 37 33 38 35 33 30 27 29 27 25 25 23 22 25 25 26 23 11 7 9 6 7 8 8 8 7
25 25 20 24 26 22 23 23 21 18 18 20 26 28 28 27 26 29 32 34 35 33 30 29 32 32 29 27 25 27 24 23 23 21 27 30 22 15 10 11 10 9 7
26 23 17 19 16 19 23 26 23 20 18 17 15 22 30 25 18 17 14 18 20 21 22 27 28 28 29 29 26 23 20 21 22 24 25 20 17 16 10 12 11 10 7
27 21 10 9 8 9 14 19 24 21 21 21 21 19 14 18 18 16 12 11 13 16 20 25 25 23 22 16 15 18 20 20 19 18 18 17 16 12 13 15 14 9 6
15 4 8 8 12 18 21 20 22 26 24 29 29 28 22 19 16 14 14 13 14 15 16 17 17 14 10 12 15 17 19 19 16 17 15 11 11 13 11 13 12 8 6
14 13 13 18 17 17 17 19 21 20 27 18 24 21 21 26 30 24 20 21 21 17 18 20 22 21 21 20 20 18 16 15 13 12 13 12 8 10 10 7 4 3 4
20 20 23 22 21 21 20 16 20 26 22 25 25 26 24 23 29 28 28 25 28 25 25 24 23 22 20 19 17 14 12 11 8 8 11 10 10 10 10 9 6 5 4
31 29 19 27 23 25 28 24 19 22 31 28 30 33 32 33 27 30 27 29 28 26 25 22 21 20 18 20 18 16 17 13 13 13 15 13 10 9 7 7 9 9 7

GFSGL_925_spd_063.txt.gz
Wind_Speed
41 44 41 40 36 35 33 31 28 20 23 25 27 25 25 23 21 20 19 16 16 16 15 13 13 11 10 7 6 5 5 3 4 7 10 13 14 16 18 20 18 12 15
39 42 42 43 41 39 37 36 32 30 23 21 24 25 26 28 26 24 22 20 19 17 16 15 15 12 11 10 10 8 7 8 7 10 15 14 19 21 23 21 19 15 26
34 35 37 37 40 41 41 39 36 33 32 27 22 27 28 28 30 29 25 23 22 21 18 17 16 15 16 15 12 13 11 10 10 11 15 20 23 21 21 21 20 26 28
30 32 34 37 40 43 42 42 41 39 36 33 30 25 29 31 27 31 29 27 26 24 22 21 20 19 20 19 17 17 15 15 15 16 18 20 20 20 20 21 29 27 26
30 30 34 35 38 41 40 42 43 43 41 38 34 33 28 28 28 31 31 30 28 27 26 25 25 24 21 20 20 19 18 19 19 19 20 22 23 22 21 24 25 25 28
37 35 34 33 34 37 40 41 40 42 45 43 41 37 37 33 31 31 33 34 33 31 30 28 27 25 24 24 23 21 21 22 23 22 23 23 26 25 25 25 25 23 7
34 35 37 36 34 37 39 38 39 40 40 41 46 44 42 39 38 36 35 36 37 36 34 32 30 29 27 26 25 25 26 24 24 25 27 28 29 28 27 28 26 21 19
27 31 33 33 36 34 34 37 39 37 39 39 38 40 42 42 43 40 38 38 40 40 38 35 33 32 31 28 26 26 26 26 27 27 28 28 26 25 24 22 20 23 23
15 20 31 36 35 34 34 35 36 33 33 35 37 37 39 40 40 44 40 40 41 43 42 39 36 36 34 31 30 29 29 30 27 26 26 26 26 26 25 24 24 21 12
15 14 13 25 31 33 35 34 33 33 34 32 33 38 40 38 39 41 41 42 38 39 40 41 42 39 36 33 31 31 32 34 30 29 28 27 26 25 22 21 21 20 17
13 9 10 17 15 25 30 33 30 31 29 28 31 33 36 38 39 38 40 43 38 34 35 34 38 42 39 37 36 34 36 34 34 33 31 30 29 27 22 20 18 19 22
15 14 10 15 21 17 19 28 30 29 29 30 29 29 31 34 36 38 40 42 43 37 34 32 37 40 40 38 37 37 37 36 36 36 32 35 35 31 26 22 19 21 19
20 19 18 17 17 22 25 26 28 30 30 29 29 30 29 27 32 37 39 41 42 45 40 34 34 38 37 37 36 35 32 32 35 37 36 35 31 31 28 21 19 17 16
20 16 16 15 18 18 29 31 31 29 30 30 29 28 26 26 28 28 32 38 40 42 46 44 41 39 38 38 36 34 32 32 33 33 33 31 26 24 21 17 17 16 15
19 11 16 14 16 18 20 23 27 33 34 32 33 30 29 29 32 34 36 38 41 43 44 37 32 36 37 37 38 37 35 31 32 30 26 23 24 21 19 16 15 13 14
19 14 15 19 18 18 15 24 26 38 38 41 40 36 32 34 28 32 36 37 37 35 34 31 30 31 32 31 29 31 37 35 33 29 25 23 22 20 18 16 12 13 13
20 17 17 22 24 24 22 12 18 34 39 41 42 44 39 37 33 32 32 35 37 35 31 27 29 29 30 29 29 30 31 36 38 33 31 29 26 22 20 18 16 14 14
22 22 14 21 19 22 25 26 21 14 19 28 44 44 47 46 38 32 36 34 36 37 30 27 28 28 27 27 29 30 33 32 31 32 33 30 28 26 23 22 22 20 20
21 23 21 21 22 23 24 24 25 25 25 27 28 38 46 47 42 40 37 36 33 31 37 31 27 27 30 32 33 33 33 32 31 30 29 32 33 32 30 26 24 22 24
19 22 24 24 25 23 25 25 27 27 27 25 24 29 28 35 36 40 43 41 34 33 30 33 31 31 32 30 33 33 31 30 31 32 32 28 24 22 19 20 23 23 21
20 22 22 23 27 25 25 26 25 23 24 24 26 28 33 31 29 29 35 40 40 33 29 28 25 27 27 28 29 30 28 27 26 24 22 19 20 20 19 20 16 13 9
19 20 25 24 24 24 27 28 25 24 23 24 26 26 27 25 24 26 27 25 22 20 21 22 22 22 22 23 24 25 21 18 18 19 23 20 18 17 15 13 13 14 13
20 25 25 23 21 26 28 27 22 22 25 27 27 26 24 24 24 23 23 21 19 17 17 20 22 21 18 20 20 17 15 15 15 16 17 17 18 17 16 14 15 15 13
5 6 4 9 13 13 9 9 9 14 20 23 23 24 25 24 24 21 19 19 21 20 20 22 21 20 20 13 11 13 13 15 17 16 13 13 14 15 17 18 18 14 11
10 13 14 9 0 10 11 14 19 19 16 18 23 27 28 29 27 24 24 24 28 27 27 26 25 23 22 18 18 12 10 12 12 13 13 13 15 16 16 14 12 12 11
20 22 22 18 12 13 19 18 21 23 21 23 23 23 31 31 33 35 32 33 34 33 34 34 33 33 29 27 24 16 10 6 8 11 15 16 16 13 12 12 12 12 10

GFSGL_925_spd_066.txt.gz
Wind_Speed
33 38 38 39 37 33 33 30 25 20 15 18 20 18 19 18 16 16 14 13 13 13 13 13 12 10 9 8 7 6 5 5 4 8 12 14 14 18 21 19 17 13 21
39 38 40 41 39 37 35 35 31 28 24 16 17 16 17 20 19 19 18 16 16 15 14 13 13 11 10 9 9 9 9 7 8 10 14 15 19 19 19 19 15 19 21
29 32 34 38 39 39 38 36 35 33 30 26 20 18 19 19 20 21 23 21 18 18 16 15 14 13 13 11 12 11 11 11 10 11 14 17 20 20 21 19 19 19 18
29 31 31 36 40 42 40 39 37 36 35 33 30 26 22 20 21 21 21 25 23 20 19 19 18 17 16 14 15 15 14 15 14 14 17 19 20 21 20 19 22 22 24
33 34 38 40 40 40 39 40 39 39 39 38 36 32 29 25 23 23 23 24 28 25 22 21 22 21 20 19 19 17 17 17 17 17 19 18 20 20 18 18 21 24 25
33 33 33 33 36 40 41 40 40 39 39 41 40 39 37 34 31 27 24 24 27 28 26 24 23 23 23 22 22 22 21 21 22 20 19 17 21 22 22 22 22 15 6
22 30 33 35 34 36 38 38 39 41 40 40 41 41 41 40 38 35 32 28 28 29 29 28 28 26 24 23 23 24 25 25 26 26 26 23 25 24 24 24 19 17 12
8 22 28 35 34 33 32 35 39 38 37 39 40 41 42 44 42 40 38 36 34 34 33 32 32 30 28 26 24 25 26 26 26 26 27 27 27 24 22 21 19 20 20
10 11 24 27 33 34 32 34 36 32 34 36 37 37 39 42 41 41 41 40 40 40 39 37 36 35 34 30 27 27 28 30 28 27 27 27 25 24 22 22 20 14 10
16 14 14 22 27 30 36 33 33 32 34 33 34 37 39 41 39 37 37 39 34 38 38 40 39 38 37 35 32 31 30 33 29 27 28 27 25 25 22 22 21 17 13
15 14 13 12 18 27 29 32 31 32 29 29 30 33 36 38 40 36 34 38 35 32 33 31 38 42 40 38 37 35 36 33 32 30 30 30 28 28 25 24 23 21 20
18 14 13 13 13 19 21 30 33 32 31 30 28 28 32 38 37 36 34 35 39 34 32 31 34 37 38 37 34 36 35 34 33 34 31 30 31 33 31 29 22 23 24
22 18 14 15 14 16 18 23 24 30 30 29 28 28 28 29 35 34 35 35 36 43 37 35 35 35 34 34 34 33 30 30 30 28 30 33 33 34 30 25 22 19 23
22 22 17 16 16 17 15 21 26 26 27 28 27 28 27 26 29 29 33 37 36 38 46 41 39 35 34 35 33 32 32 31 31 32 33 34 33 30 27 25 22 20 20
22 21 20 16 14 15 16 19 23 32 32 30 32 30 27 27 32 33 33 37 38 40 39 37 31 31 30 31 33 35 34 33 32 33 34 33 31 30 28 26 24 22 20
19 15 16 17 19 18 18 18 17 24 31 39 39 33 31 35 28 31 31 34 33 32 31 29 27 27 27 27 27 28 30 37 40 39 37 34 31 30 28 27 24 23 22
18 15 16 17 17 20 18 15 14 21 24 35 39 44 37 32 29 30 28 28 32 31 28 24 26 25 27 28 28 27 29 30 34 34 34 35 35 32 29 26 23 21 23
19 17 19 18 19 21 18 18 13 18 19 21 27 42 45 44 37 32 29 26 32 37 30 26 25 28 28 28 28 27 27 27 30 32 31 32 33 32 25 24 24 25 24
22 21 15 18 20 24 22 22 18 20 22 23 23 27 35 45 38 36 30 34 32 28 35 32 30 29 28 30 30 28 29 29 28 27 28 28 28 27 26 24 22 20 17
22 23 22 23 20 21 23 20 20 21 22 21 19 24 24 23 27 33 38 40 33 31 28 31 33 33 32 31 29 28 27 27 29 28 26 26 27 29 26 23 20 14 17
22 23 21 21 21 22 20 21 21 21 24 22 23 25 34 31 23 19 25 38 39 34 31 30 32 31 30 31 31 27 27 28 28 27 27 26 25 22 19 14 11 14 14
25 21 23 23 21 22 22 23 21 24 25 27 28 23 24 28 16 21 21 25 29 31 32 33 32 32 32 32 30 31 29 26 26 24 22 19 17 13 14 16 16 19 19
22 23 24 26 28 27 25 24 24 27 24 26 24 25 27 21 21 21 21 21 21 21 23 26 27 25 25 25 25 27 28 26 22 18 14 13 15 16 17 20 22 21 19
18 18 20 18 21 22 21 22 23 26 24 23 23 22 21 22 21 19 18 18 17 16 16 17 18 17 16 16 17 19 20 19 19 18 19 18 16 16 19 19 19 19 18
9 7 5 3 4 7 8 7 11 13 14 18 18 21 22 22 21 21 21 20 20 20 20 20 19 17 14 13 14 14 14 16 16 17 14 17 19 11 16 18 18 16 15
4 5 8 11 12 10 8 8 7 5 12 17 19 20 22 24 23 24 25 27 29 29 29 29 29 27 25 22 18 16 16 14 14 13 17 16 18 16 9 12 11 12 12

GFSGL_925_spd_069.txt.gz
Wind_Speed
26 28 27 26 28 28 25 26 25 22 17 14 15 15 15 15 14 14 12 11 11 10 10 9 8 8 6 5 5 5 5 4 8 8 7 9 11 12 15 15 12 12 15
27 28 29 32 28 25 29 28 29 26 23 18 15 15 15 16 16 16 13 13 12 11 10 10 10 9 8 7 8 8 8 7 8 10 10 10 11 13 15 14 12 13 14
22 24 25 26 26 28 28 30 29 29 26 22 20 17 16 17 18 18 17 16 14 13 12 12 11 10 10 9 9 9 8 8 9 10 13 11 12 12 15 14 13 13 13
20 23 26 30 31 30 29 29 31 33 31 27 26 24 20 19 19 18 18 17 17 16 15 14 14 13 12 11 10 11 10 10 11 12 13 13 12 12 13 14 15 14 16
21 23 26 29 33 37 33 30 31 29 31 34 29 26 25 21 20 19 18 18 17 17 17 16 16 17 17 15 13 12 11 12 13 13 15 15 14 12 13 14 15 15 16
17 25 25 25 26 27 30 36 30 31 32 30 30 29 28 27 27 27 23 18 18 17 19 20 19 20 19 18 18 19 18 15 15 15 17 17 15 14 13 14 16 13 10
16 19 24 24 25 27 28 27 28 29 30 29 30 31 35 35 34 35 32 25 21 19 20 20 20 19 21 18 18 19 20 22 23 22 21 21 19 17 15 16 15 14 15
17 10 18 23 25 25 24 27 28 28 28 30 29 31 34 36 41 41 40 36 27 26 24 24 25 23 21 21 18 17 18 18 21 24 25 24 21 18 16 16 15 16 16
18 14 9 17 21 23 25 26 26 24 25 28 28 29 29 37 39 40 40 33 32 32 31 30 29 28 31 31 26 22 21 22 20 23 25 27 25 23 21 19 17 17 18
21 19 14 10 13 19 22 24 24 23 24 24 25 26 30 34 37 38 37 32 31 34 33 33 35 37 36 36 33 25 24 26 20 19 19 20 22 24 22 23 19 19 20
22 19 19 16 11 12 14 19 21 23 23 23 25 26 28 30 34 37 35 34 32 31 33 32 35 37 41 41 39 31 31 27 21 19 20 20 18 17 17 19 22 21 21
30 23 19 22 18 12 10 14 18 23 25 25 25 26 26 29 34 36 35 35 36 32 32 32 32 35 38 37 38 41 38 33 24 23 23 23 22 21 20 20 20 21 22
29 26 24 20 21 17 13 12 15 19 25 23 23 24 26 26 28 33 38 36 36 39 35 33 32 31 33 33 32 32 31 29 25 24 25 25 23 22 19 18 18 20 20
30 28 28 22 21 18 17 15 14 20 21 23 24 25 26 26 27 27 27 37 36 37 43 36 32 29 28 26 24 27 31 26 26 26 26 25 22 20 19 18 18 18 18
27 28 25 25 21 20 18 18 17 20 23 27 27 26 26 27 29 31 29 27 27 32 28 27 28 28 28 27 26 26 25 24 27 28 27 25 23 22 22 20 19 19 21
29 27 23 20 20 22 21 23 23 25 25 28 34 34 28 33 32 31 34 36 30 26 24 28 27 27 26 25 25 26 27 30 30 27 28 26 26 24 23 21 20 21 21
29 25 22 21 20 21 23 23 23 19 20 23 26 32 39 47 35 35 35 31 33 30 25 25 27 26 26 25 26 27 28 28 26 27 27 26 25 25 24 24 22 22 23
26 24 23 20 19 22 21 24 23 22 20 19 17 20 23 34 41 45 36 30 33 37 29 28 25 25 24 24 25 25 25 24 23 25 24 25 25 25 24 24 24 26 24
24 23 22 21 23 25 24 26 25 24 22 23 22 24 26 26 25 34 38 37 31 29 34 32 29 27 27 28 27 26 26 27 28 27 28 27 25 24 24 24 23 24 23
24 26 27 24 22 22 24 24 23 24 23 25 24 27 20 18 21 26 35 43 33 31 29 29 31 29 30 29 29 29 27 27 30 31 30 28 27 27 26 24 24 23 26
24 25 26 24 23 23 23 23 24 23 23 26 29 26 23 24 24 23 27 31 36 38 34 30 28 28 28 29 29 29 29 30 30 30 29 27 26 25 25 25 27 26 21
25 25 25 25 24 24 25 26 25 25 26 28 29 27 24 27 28 25 25 29 32 35 34 32 31 32 30 30 30 30 29 29 28 29 29 29 29 28 26 26 21 20 19
26 26 26 26 26 25 25 26 26 27 24 29 28 23 22 29 28 25 24 24 23 27 31 31 29 29 28 28 30 29 29 30 33 33 30 29 27 25 21 20 19 18 19
22 24 24 23 23 24 25 27 27 29 30 31 27 24 24 24 25 26 22 19 18 18 17 17 21 24 23 25 26 26 25 27 28 26 24 21 18 16 16 17 19 18 18
16 20 18 18 19 21 22 21 21 22 26 27 25 24 21 19 18 17 15 14 11 10 8 7 9 10 9 10 11 12 16 20 21 22 19 14 13 12 10 8 12 11 11
9 8 11 10 10 14 15 15 13 12 11 13 13 14 19 18 17 16 14 15 15 13 13 12 12 11 9 9 9 10 12 13 17 18 17 16 15 13 12 13 14 15 14

GFSGL_925_spd_072.txt.gz
Wind_Speed
20 21 22 22 22 20 20 18 18 16 15 16 15 15 14 13 13 12 10 9 11 11 11 11 11 9 10 8 7 7 7 7 9 9 7 6 10 10 12 13 13 12 12
22 20 23 22 21 21 21 21 19 19 18 16 14 16 16 16 15 14 13 11 12 12 12 12 12 13 11 10 10 10 10 8 11 11 11 12 9 11 12 13 13 12 13
17 19 20 21 22 23 22 21 20 20 21 19 17 15 15 16 17 17 16 14 13 13 12 12 13 13 14 13 11 11 11 10 11 12 13 12 11 12 12 13 12 12 12
15 16 19 20 23 24 25 22 21 21 22 23 21 18 16 17 18 18 17 16 16 16 16 15 14 14 14 13 13 12 12 12 13 14 15 14 12 11 12 14 14 14 13
12 15 18 18 20 22 23 23 23 23 23 24 24 23 21 20 21 21 20 18 18 18 17 17 16 17 17 16 15 14 13 14 15 15 15 14 14 11 11 15 16 15 16
12 12 17 18 18 19 20 23 25 25 24 24 24 25 25 26 25 24 23 20 19 19 18 19 19 19 20 22 22 21 18 16 17 18 18 16 15 15 14 15 16 17 15
19 15 10 17 18 18 19 20 21 25 28 28 27 27 28 29 30 30 29 27 23 21 21 21 21 22 22 20 20 22 23 23 25 23 21 21 19 17 16 16 16 16 17
22 22 18 10 15 16 18 20 22 24 25 28 30 30 30 30 31 33 35 32 29 28 26 24 24 25 23 22 21 21 20 19 21 24 26 26 23 21 19 18 17 18 18
20 22 21 21 9 8 18 20 22 23 25 26 28 29 29 31 32 34 35 32 33 33 32 32 30 29 29 28 27 24 24 23 22 25 26 26 27 27 24 20 21 19 19
22 21 20 20 22 12 18 20 23 25 25 24 26 28 29 30 30 35 37 31 30 32 34 35 37 38 33 33 32 29 27 27 25 24 20 23 26 28 29 30 24 23 22
20 22 23 21 22 19 21 20 21 23 25 25 25 26 27 28 29 30 33 33 32 32 33 33 36 38 41 43 39 34 33 29 26 26 26 26 26 25 22 22 24 26 25
23 24 22 21 20 20 21 22 17 21 25 25 25 25 28 29 29 30 32 35 34 32 33 33 33 33 35 38 40 44 42 36 31 30 30 29 27 26 25 24 24 24 25
24 25 25 22 21 21 21 19 20 21 23 24 23 25 26 27 27 30 33 34 35 37 33 32 32 30 27 30 33 39 38 35 34 33 32 31 30 29 26 24 21 22 24
27 26 27 25 23 22 22 21 20 21 23 19 22 24 26 24 27 28 25 29 34 34 37 37 33 30 28 29 27 30 33 31 30 31 31 31 30 28 27 26 26 25 25
28 27 26 25 25 25 24 24 23 22 25 19 22 21 24 28 28 28 27 25 21 23 26 25 29 30 30 31 30 30 27 26 31 32 30 29 29 28 28 27 27 26 26
28 27 25 25 24 25 24 26 27 28 28 28 34 35 30 28 27 22 21 27 24 17 16 24 29 30 31 29 30 29 30 31 29 28 29 30 30 29 28 27 28 28 27
26 28 27 26 26 25 25 25 27 27 27 28 31 32 36 39 35 36 27 28 26 25 25 27 28 31 31 29 28 29 30 29 27 29 29 28 28 29 28 29 28 28 27
25 27 28 28 24 25 26 28 26 27 25 26 25 26 27 29 30 31 34 39 31 30 25 25 29 29 29 26 28 28 28 28 28 29 28 28 28 28 27 28 28 28 28
28 26 25 26 26 27 28 29 30 30 30 29 27 26 26 27 26 27 27 25 29 29 27 30 29 28 26 26 24 28 28 29 28 28 27 28 27 26 27 28 28 29 28
28 28 27 28 28 27 26 30 30 30 32 29 29 28 23 19 18 17 19 24 23 29 28 29 27 29 30 29 27 28 27 25 27 28 28 28 28 29 28 27 27 27 26
28 27 27 28 28 28 29 29 31 29 26 30 31 29 28 23 24 20 19 20 20 24 27 29 29 29 26 27 29 30 29 30 27 27 27 28 27 28 29 28 25 25 23
30 30 29 28 28 28 28 27 27 28 29 28 32 30 31 28 29 28 26 21 22 23 25 25 27 28 30 28 27 28 29 29 29 29 28 29 29 29 27 25 23 21 19
29 29 30 29 29 29 30 30 30 28 29 30 30 29 29 27 26 24 25 23 20 23 23 26 31 25 32 32 28 29 30 28 29 31 31 29 28 28 28 26 24 22 21
26 26 26 27 28 28 29 30 29 30 30 31 30 31 30 28 30 23 22 26 22 20 22 23 25 28 28 27 27 28 31 33 32 25 29 31 29 31 30 26 25 24 22
20 22 24 25 26 26 27 29 30 29 27 30 31 30 28 21 16 18 20 22 19 18 18 17 18 18 19 22 24 26 29 30 30 28 26 25 23 24 23 20 19 14 12
17 17 16 16 18 20 23 24 26 27 26 28 29 29 26 24 31 27 24 22 18 15 14 11 11 9 8 9 11 14 16 15 17 21 20 20 21 17 16 17 14 13 15

GFSGL_925_spd_075.txt.gz
Wind_Speed
20 19 18 19 20 19 18 16 16 13 10 9 6 10 10 11 12 12 12 8 11 12 12 8 10 13 10 10 9 9 8 8 10 12 9 4 4 10 11 12 12 14 7
22 20 19 18 19 20 19 19 17 17 15 14 12 13 14 14 13 14 14 12 12 13 14 14 13 14 15 17 10 8 10 9 10 11 13 15 14 11 11 14 13 12 12
24 22 20 19 19 19 20 19 19 18 18 17 17 16 15 16 16 16 16 15 13 14 14 14 15 15 15 16 13 16 14 13 13 14 14 14 14 13 13 14 13 12 12
11 13 18 17 17 19 20 19 19 20 19 19 19 19 18 17 17 17 18 17 16 16 15 15 15 16 16 16 16 14 15 14 13 14 16 16 15 13 11 14 13 13 14
18 12 8 11 14 16 18 20 21 20 21 21 21 21 20 19 20 21 20 19 19 18 18 17 19 18 18 18 17 18 16 16 16 16 16 16 14 12 10 12 17 16 15
18 17 15 8 7 14 16 18 19 22 22 22 22 23 24 25 25 24 22 23 24 22 21 21 20 19 22 23 25 25 18 13 16 17 18 17 15 14 15 15 16 17 17
16 16 18 17 10 12 11 17 18 21 22 24 25 24 26 28 28 27 27 26 24 22 22 20 22 23 25 22 23 26 27 26 26 25 20 20 20 17 17 17 17 17 19
14 15 19 18 16 11 14 17 17 19 20 23 25 26 26 28 32 32 32 31 30 30 25 22 25 26 23 23 23 22 23 24 27 29 30 32 27 25 23 21 20 21 20
12 14 17 18 19 18 16 14 18 18 21 22 23 25 27 29 31 33 35 31 32 32 32 33 29 27 27 29 25 24 24 25 24 28 28 28 27 25 24 21 22 21 20
14 14 15 15 16 18 18 20 21 20 21 22 23 27 28 29 29 33 33 33 31 32 32 35 39 38 35 32 33 29 29 29 24 26 21 27 31 33 31 31 25 25 23
15 16 16 16 17 15 15 15 20 21 22 22 23 25 27 28 30 33 32 33 34 31 32 30 33 36 40 43 40 34 35 30 28 30 29 29 29 27 25 25 28 28 26
18 19 19 18 17 17 18 18 17 18 21 18 21 23 27 30 31 29 31 35 35 34 33 30 30 33 34 38 41 45 46 42 34 32 31 29 27 27 27 27 28 33 30
21 22 22 22 21 19 18 19 19 19 19 17 21 17 23 28 30 32 37 38 37 39 37 34 32 31 24 20 34 37 38 42 34 31 32 32 30 30 30 29 29 22 27
23 25 25 25 25 23 22 22 21 22 19 18 18 15 23 25 27 29 26 37 40 39 41 40 41 35 32 29 20 25 31 30 31 31 31 32 31 31 30 29 29 29 26
25 26 27 27 27 26 25 24 23 23 22 19 20 19 16 21 22 20 16 12 19 30 31 28 28 29 31 31 29 29 28 26 29 32 31 29 28 29 30 29 29 26 25
26 26 25 26 27 27 26 27 26 27 25 29 30 32 33 31 34 37 32 25 19 16 16 24 26 27 27 27 27 28 29 31 29 27 27 30 29 28 27 26 28 27 25
25 26 27 28 27 28 27 28 28 26 26 28 30 31 33 34 32 30 31 30 27 29 22 28 24 24 26 26 27 27 27 27 29 30 29 26 26 27 27 27 26 25 25
26 28 29 28 29 31 31 29 30 29 27 27 26 27 28 29 27 25 23 23 26 25 28 27 27 27 29 27 27 27 24 23 23 24 24 25 27 25 23 24 25 25 26
26 27 26 25 26 29 33 31 30 31 31 30 29 28 28 29 29 29 28 26 24 25 27 30 31 30 29 30 28 22 23 22 22 21 22 24 24 24 25 25 25 25 25
26 26 27 28 28 28 29 32 34 32 32 31 30 30 27 26 24 19 23 24 22 24 27 28 29 30 30 28 26 25 25 23 23 28 29 29 26 27 30 28 28 27 25
26 26 26 28 28 28 28 30 31 32 33 31 32 30 29 27 28 27 23 18 23 19 25 26 26 27 29 28 28 26 27 27 26 25 24 25 27 27 26 26 26 29 31
27 28 27 27 28 29 29 28 31 31 34 34 33 32 29 31 33 32 30 30 28 26 28 23 26 23 27 28 28 26 27 25 23 23 24 25 26 27 27 26 27 29 28
25 26 27 27 28 29 30 31 31 32 31 32 35 36 35 31 30 32 33 34 27 29 23 22 24 25 29 26 25 24 24 25 25 23 23 22 24 27 28 27 27 26 27
23 24 25 26 26 25 26 27 29 33 33 31 32 36 36 36 33 34 37 33 23 25 22 22 25 25 26 25 34 33 29 26 25 24 25 26 27 28 29 27 27 27 28
22 22 23 23 24 23 24 26 27 31 31 31 31 33 36 36 34 33 28 15 18 20 22 25 26 26 24 25 25 27 27 26 25 26 26 29 29 24 23 22 24 26 27
22 23 22 21 21 21 21 22 23 26 29 29 30 35 35 32 34 35 23 13 18 21 21 21 23 22 20 19 19 20 18 17 17 18 20 24 23 20 18 16 16 14 9

GFSGL_925_spd_078.txt.gz
Wind_Speed
25 26 25 25 23 19 16 11 15 7 4 16 19 12 12 13 12 13 13 8 13 14 13 7 16 9 15 14 8 10 10 10 8 14 11 6 11 13 12 13 15 13 14
25 24 25 25 23 22 20 17 15 15 14 11 9 10 17 13 14 14 13 12 14 13 12 12 10 11 12 15 14 14 13 12 12 15 17 19 15 16 15 12 14 14 12
9 28 24 24 23 23 24 21 19 18 18 16 16 16 14 14 14 15 15 15 13 15 14 14 14 14 15 16 15 14 14 13 14 16 19 16 16 16 17 16 14 18 18
28 13 12 28 27 24 20 21 19 20 19 20 18 19 18 17 17 17 16 18 15 13 16 16 16 18 18 17 18 19 19 18 16 17 17 19 22 22 20 16 12 12 13
17 20 6 13 16 12 14 15 18 20 22 21 21 21 20 21 19 20 20 20 18 19 18 16 18 17 19 18 18 18 20 20 19 19 21 22 21 11 11 13 14 14 14
14 15 15 3 6 8 10 16 16 19 20 21 23 22 24 23 23 23 22 21 22 23 21 20 21 20 20 23 21 24 25 18 19 19 18 17 20 14 15 16 18 17 10
17 12 14 14 12 7 8 11 15 19 19 21 22 23 24 26 27 25 22 25 23 23 24 24 22 22 25 26 27 26 27 28 28 27 26 25 24 28 24 22 18 18 20
12 14 15 13 12 13 14 12 7 13 16 20 21 23 25 25 27 30 28 25 27 29 27 22 26 26 26 20 21 25 26 25 26 28 32 34 34 33 30 26 23 24 26
13 15 17 19 15 11 11 14 13 11 12 20 22 23 23 25 28 29 29 32 30 31 30 32 33 27 27 28 28 27 24 27 25 25 26 28 28 26 25 22 22 19 20
12 15 15 16 17 18 16 16 18 15 14 14 19 24 27 28 27 30 32 31 27 29 30 33 35 35 38 31 29 33 29 32 26 25 25 23 28 32 31 31 30 24 22
14 15 16 17 18 18 17 17 15 18 18 20 20 23 26 26 28 30 32 33 31 28 28 28 31 35 40 42 42 40 36 33 30 31 31 32 31 29 29 31 33 37 29
19 19 18 18 18 18 20 21 21 19 19 19 21 23 24 26 28 31 32 31 34 30 30 30 29 29 36 37 38 41 44 46 39 32 30 29 28 26 28 32 34 36 39
17 18 20 22 22 21 21 21 20 19 20 21 20 19 21 20 24 28 33 34 34 38 35 36 35 37 37 28 22 37 45 46 38 32 32 32 31 31 32 37 38 36 30
18 19 20 20 23 25 24 22 22 20 20 22 20 20 19 18 18 17 17 10 11 22 40 42 41 38 36 35 29 22 25 33 38 33 33 33 30 29 31 32 34 33 31
21 21 22 21 21 22 22 23 24 25 24 24 26 22 20 18 16 18 14 26 23 19 19 26 26 27 28 31 34 32 28 28 32 34 30 28 29 29 30 30 32 31 27
21 22 22 24 23 23 25 28 29 31 32 30 36 34 34 35 35 33 30 28 25 17 20 17 20 24 26 26 26 28 32 34 31 29 31 31 29 28 28 26 27 29 27
20 21 23 25 25 25 24 26 29 30 29 32 31 31 32 34 31 31 37 33 27 23 21 25 25 24 27 28 27 26 28 31 33 34 33 30 28 27 28 28 27 27 23
20 22 23 24 24 25 26 26 26 27 27 28 30 30 28 25 26 29 27 23 25 20 22 25 27 30 31 29 30 31 26 25 28 33 33 32 30 28 24 25 26 25 25
22 20 21 23 25 26 28 29 30 30 31 32 32 27 28 29 28 30 29 26 25 23 22 23 26 29 30 31 29 29 33 35 26 22 21 27 27 24 27 28 27 24 22
22 23 22 23 24 26 26 28 28 27 30 30 30 30 27 28 26 25 24 27 27 26 26 26 27 29 28 29 29 30 31 32 35 30 26 27 27 27 26 26 28 27 25
23 24 24 25 24 25 26 28 28 30 30 30 31 32 32 36 28 27 24 24 21 21 22 22 21 23 26 26 27 28 29 30 31 32 30 26 25 27 27 26 27 27 27
23 24 23 23 24 25 27 29 29 30 31 31 32 34 35 37 32 30 26 27 30 28 26 24 25 23 24 24 22 25 31 32 33 32 30 30 28 26 25 24 23 23 23
21 23 24 24 24 26 27 28 29 30 31 31 32 32 32 33 32 30 34 29 30 35 35 36 29 25 21 20 21 22 23 25 28 28 20 24 26 27 26 22 22 20 21
18 21 23 24 26 25 25 28 28 30 31 29 28 30 31 31 33 37 38 38 34 29 36 28 25 23 26 26 26 27 25 27 28 22 19 33 31 31 26 26 24 24 24
16 20 22 23 25 25 26 26 27 29 29 26 26 26 32 31 33 37 39 35 26 27 23 20 24 23 23 23 24 27 32 33 33 28 26 31 34 32 31 28 27 25 22
16 20 22 22 23 25 25 25 26 28 28 28 30 30 31 34 30 29 35 38 31 25 20 20 19 21 23 24 25 27 29 31 30 27 26 26 29 30 30 28 26 22 18

GFSGL_925_spd_081.txt.gz
Wind_Speed
32 28 25 23 21 21 18 14 14 12 13 18 19 16 14 12 13 14 12 12 9 13 11 11 8 7 9 12 11 10 12 8 4 5 8 7 13 15 13 18 17 18 16
7 22 27 26 23 21 21 20 16 16 16 14 14 16 17 17 15 14 14 14 12 17 17 17 13 8 9 10 10 11 9 11 10 13 15 16 15 13 17 18 15 19 21
18 8 17 22 22 22 23 23 20 16 17 15 13 17 22 16 15 19 15 15 12 14 14 13 14 13 15 15 15 14 12 12 12 12 15 15 17 21 23 23 24 21 12
11 15 7 6 15 21 22 23 22 22 20 20 18 19 17 17 20 18 18 18 17 17 15 16 17 16 16 17 15 15 15 17 18 16 17 18 20 22 15 13 11 10 11
15 10 7 4 6 9 4 18 22 22 22 22 21 21 20 22 22 22 22 21 19 21 20 18 18 19 19 20 19 18 16 17 18 16 14 14 14 12 9 14 18 19 20
13 16 12 5 11 12 19 27 16 20 22 23 22 22 24 22 24 24 24 25 23 21 22 23 23 21 20 22 21 20 22 20 19 17 18 18 20 18 21 22 22 21 9
17 11 10 4 6 6 7 13 9 14 19 21 22 22 24 25 26 24 25 30 29 27 25 24 23 22 22 23 23 26 28 27 26 26 27 29 29 30 29 29 27 25 23
16 15 14 9 7 8 7 8 8 8 4 10 18 20 23 25 27 28 30 28 23 26 28 28 29 28 27 25 26 20 24 28 29 28 28 30 29 28 28 28 26 25 25
16 16 15 13 13 15 13 13 12 13 11 9 9 15 19 23 25 27 27 30 31 32 29 28 29 30 27 24 28 29 27 28 27 27 27 27 26 24 26 27 26 23 20
18 17 16 16 15 16 16 15 17 15 16 15 14 12 15 21 22 24 25 29 33 33 32 33 33 35 32 31 32 31 33 36 33 31 28 29 29 30 27 29 29 28 22
17 15 15 16 17 17 19 18 19 20 18 17 18 18 18 19 22 24 23 26 32 32 29 28 31 34 34 35 37 39 41 41 33 33 34 35 35 35 35 35 33 33 31
17 16 16 17 18 18 20 21 21 21 23 22 22 21 20 19 19 21 23 27 29 30 31 30 28 29 31 32 35 37 38 41 43 32 28 28 28 31 33 32 30 33 38
16 17 18 18 17 18 19 20 21 21 21 23 22 21 23 24 22 16 13 17 23 26 28 32 34 33 33 35 38 37 27 31 38 32 32 33 33 33 32 32 34 36 39
18 19 19 19 21 19 21 19 19 19 20 19 21 20 22 29 23 12 12 10 9 17 21 21 26 31 40 37 34 37 35 30 31 36 36 38 34 31 34 35 34 32 31
18 18 19 21 22 22 21 22 22 22 22 28 28 26 25 25 29 28 29 30 27 28 28 29 28 26 26 29 31 33 34 36 38 42 36 31 29 30 33 31 31 30 29
18 17 18 19 22 21 23 26 22 23 25 27 28 29 32 33 32 31 33 32 29 28 28 26 24 22 23 24 25 28 29 31 35 36 35 34 31 30 30 29 28 27 27
16 18 21 20 19 20 22 23 26 28 26 26 26 28 26 28 30 33 26 28 29 30 28 33 29 26 27 25 28 28 28 31 32 29 32 34 34 33 31 30 28 26 26
16 16 17 18 20 21 22 23 25 26 29 31 27 29 36 35 30 32 31 33 33 30 30 31 31 29 30 28 29 31 32 33 34 35 39 39 31 30 28 29 28 28 27
15 16 17 17 17 21 23 23 23 26 28 29 30 29 27 29 32 33 34 33 31 30 28 32 34 34 34 32 32 32 34 33 29 33 35 34 31 27 32 31 30 33 30
14 14 16 18 19 20 20 22 24 25 27 28 28 27 28 28 28 31 31 29 31 35 36 31 31 33 33 33 31 30 33 34 31 32 37 35 33 34 39 37 35 31 32
15 16 16 17 18 19 20 20 22 24 26 28 30 30 31 33 33 33 32 32 30 30 31 30 25 28 29 27 25 25 23 27 31 31 32 37 37 34 36 35 35 36 34
13 15 17 17 18 18 19 23 25 25 27 29 31 31 33 34 32 32 32 31 30 34 35 32 35 36 31 28 30 28 30 27 23 23 23 26 31 31 27 21 19 12 15
12 16 19 20 20 19 21 21 23 25 27 29 30 30 31 30 30 31 33 32 34 37 37 36 33 31 30 26 26 26 29 26 24 22 21 19 18 16 11 12 16 22 14
11 17 18 21 21 23 21 23 24 25 26 28 29 30 31 30 30 35 33 31 33 32 30 28 29 30 29 29 27 26 22 21 22 21 21 21 22 20 22 21 19 28 24
12 16 21 24 24 22 23 24 25 26 26 27 28 28 30 32 33 35 35 29 31 31 29 28 27 30 32 25 22 20 22 21 23 23 24 23 23 25 26 25 25 25 25
15 16 17 19 23 23 23 26 27 26 26 28 29 29 30 32 33 33 33 32 34 38 34 31 31 34 31 28 27 27 29 29 28 27 26 24 24 27 28 31 30 29 30

GFSGL_925_spd_084.txt.gz
Wind_Speed
23 23 23 26 25 23 20 16 16 18 17 19 18 18 17 18 14 16 14 12 12 12 12 6 8 7 6 6 6 6 6 5 3 3 8 9 10 12 12 16 16 18 18
10 16 21 23 23 24 25 21 16 17 18 17 16 17 16 18 16 16 16 14 14 12 13 14 14 12 8 7 7 7 6 6 5 3 8 10 11 14 19 21 20 19 17
9 5 7 18 22 23 24 24 22 20 21 18 16 17 19 21 18 17 17 15 14 15 15 17 15 13 14 13 13 12 12 10 9 9 11 13 16 17 19 15 13 11 8
9 9 12 3 11 15 20 21 21 22 22 23 21 18 18 20 20 21 20 21 18 17 16 17 15 15 15 13 13 13 13 13 12 12 13 14 14 14 10 13 17 19 21
10 11 6 7 4 3 5 3 8 17 23 25 22 21 20 21 21 22 22 21 21 20 21 21 20 18 17 16 18 19 17 16 15 15 15 14 16 17 17 16 20 25 25
10 9 8 2 3 8 10 12 13 14 15 21 25 23 23 23 21 24 23 23 23 24 23 24 25 23 21 21 21 22 25 24 21 19 19 18 20 21 23 24 26 25 10
9 7 7 4 1 3 10 8 10 17 16 16 23 22 23 24 24 23 22 24 26 26 26 27 25 24 24 25 25 24 23 25 27 27 26 26 27 27 27 27 26 24 23
17 16 17 10 6 4 7 9 7 8 11 11 13 18 21 23 21 23 24 25 27 27 25 28 31 30 27 26 25 26 27 27 25 30 34 34 30 27 26 25 26 24 27
18 17 16 14 12 12 9 10 14 12 12 13 11 14 14 16 16 20 22 24 26 29 27 28 28 29 30 30 32 33 31 31 30 30 31 31 31 29 27 28 29 25 21
14 13 13 12 11 11 12 11 11 13 13 13 14 16 16 15 15 16 20 23 26 27 29 30 31 31 33 32 31 32 35 38 36 37 38 38 36 35 33 31 32 29 21
11 10 10 10 11 11 12 12 14 14 15 15 15 15 16 15 18 17 17 21 24 27 30 29 30 31 30 31 32 35 38 39 35 34 35 35 35 35 35 36 36 35 29
9 10 11 12 12 12 13 14 13 15 16 15 16 16 17 16 17 18 16 18 19 23 25 26 23 23 26 27 29 32 35 36 39 36 28 29 31 33 38 37 35 35 36
11 12 12 11 12 13 14 16 18 17 19 18 18 19 20 20 19 17 19 23 19 14 13 14 18 21 23 31 36 35 33 36 37 35 30 30 32 35 34 33 35 35 36
11 12 13 15 15 15 14 14 15 17 18 19 21 21 23 26 23 22 25 28 24 25 26 27 27 28 28 29 29 32 39 41 40 35 34 36 35 31 32 34 33 33 31
12 11 13 15 16 16 16 16 15 13 14 20 19 21 20 23 26 26 26 26 27 26 30 30 31 29 30 29 27 28 29 31 38 42 36 34 34 32 33 32 31 29 27
13 13 14 15 16 16 20 24 19 15 18 18 16 18 22 25 29 29 27 25 25 27 29 27 28 28 26 25 25 25 25 28 31 31 33 33 30 28 29 28 28 27 27
13 14 16 15 16 18 20 21 23 28 23 20 20 22 23 26 29 26 26 29 27 28 28 30 29 30 30 28 30 27 27 27 31 32 33 32 31 29 28 28 27 24 25
12 13 14 17 18 19 22 24 22 19 23 26 24 24 25 26 28 29 30 26 24 22 24 29 31 30 30 30 30 30 30 28 26 29 29 31 30 31 28 28 27 26 25
12 13 15 17 18 20 22 24 24 23 22 24 26 25 24 27 29 29 27 26 23 24 25 25 27 31 32 32 31 33 34 34 31 29 29 31 32 28 29 30 27 23 26
8 10 11 14 16 18 21 21 21 22 24 24 25 25 27 28 29 30 27 27 27 26 26 27 28 27 28 29 30 30 31 31 30 32 33 29 30 30 28 28 30 30 28
5 6 10 14 18 20 21 21 22 24 24 26 27 27 29 31 31 30 30 29 29 29 29 29 27 28 29 28 29 28 26 26 29 28 23 21 19 21 23 29 27 28 26
3 4 7 11 14 16 17 18 20 22 23 25 28 30 30 29 28 28 30 31 30 31 33 32 32 33 34 32 34 33 31 30 28 25 21 22 19 17 14 9 10 9 7
5 7 9 12 13 15 16 16 17 20 23 25 27 29 28 28 29 31 32 33 32 35 32 32 33 34 33 32 27 27 30 31 26 21 19 20 18 17 17 15 12 9 6
10 9 12 14 16 18 21 21 20 21 23 25 25 27 28 29 30 31 33 35 35 37 39 34 35 38 39 40 40 35 31 26 20 19 18 19 22 19 19 18 22 25 25
13 12 14 15 16 18 20 19 19 21 21 22 26 27 29 30 31 32 34 35 36 38 38 36 40 37 34 36 37 33 26 20 18 18 19 20 21 20 22 22 23 22 23
17 16 19 19 19 17 19 19 19 20 20 21 24 27 28 28 31 33 33 34 36 37 38 37 38 38 39 41 37 34 33 32 29 25 22 23 24 27 25 24 24 23 25

GFSGL_925_spd_087.txt.gz
Wind_Speed
24 22 20 22 20 19 18 14 14 14 16 17 17 19 19 17 15 15 13 12 12 13 12 11 7 6 5 5 3 3 3 4 1 3 6 7 8 11 13 15 15 13 13
11 17 17 19 20 21 20 19 16 15 16 18 16 17 17 17 17 16 15 15 14 14 12 12 14 11 10 7 7 6 6 6 5 6 9 10 11 13 14 11 11 13 11
8 5 6 5 9 14 17 18 19 21 18 16 15 17 17 17 17 17 15 15 16 15 15 15 15 13 14 14 13 12 11 9 10 11 12 15 17 16 13 10 10 12 14
9 3 9 9 5 3 2 5 12 17 19 18 19 19 16 18 18 19 18 16 17 18 17 17 15 14 15 15 14 12 11 11 11 13 14 16 16 14 13 13 16 18 22
10 10 13 6 7 7 5 2 4 5 10 15 16 19 19 18 18 18 20 20 20 21 20 20 20 20 18 16 16 16 16 16 17 16 16 17 19 18 16 16 19 23 26
8 9 4 7 2 2 6 5 4 8 10 14 16 17 18 21 21 20 21 22 22 23 24 23 22 21 23 21 20 21 20 20 23 21 23 22 25 24 24 23 23 23 9
13 11 8 6 4 2 3 6 6 7 8 10 12 10 15 19 20 21 21 21 22 23 23 23 23 24 24 23 24 24 25 25 25 24 26 28 30 30 27 27 26 24 24
21 19 15 13 10 6 5 4 6 7 9 12 13 13 13 11 17 18 20 21 23 24 25 23 24 25 22 24 26 28 27 27 27 26 27 29 28 28 30 30 28 28 30
19 17 14 13 12 12 12 11 10 7 9 9 13 14 15 17 13 12 14 16 20 23 24 25 25 27 27 26 26 28 30 33 32 32 32 32 32 31 30 31 30 29 23
15 13 12 11 10 9 9 9 9 11 10 11 11 12 16 15 14 12 11 13 15 18 21 23 23 24 25 26 26 28 33 36 35 35 36 37 36 35 34 32 33 29 23
10 9 9 10 10 11 10 10 9 10 9 11 11 8 8 12 15 21 14 12 14 14 17 21 20 19 19 19 20 25 31 30 31 30 31 32 33 34 34 33 31 32 28
8 8 10 11 10 10 11 11 11 11 11 10 13 12 11 12 14 15 15 18 18 15 14 13 13 13 15 19 22 26 28 27 28 31 30 30 30 31 33 32 33 33 33
7 8 8 8 10 10 11 12 13 13 14 15 15 16 17 17 18 19 18 17 18 20 18 18 18 18 20 23 22 22 24 26 29 32 34 32 35 36 35 34 34 35 36
8 8 9 10 10 11 11 11 11 13 14 15 16 18 20 21 22 23 26 26 26 25 25 24 23 23 22 26 26 26 25 25 25 29 29 32 32 29 31 31 29 30 28
7 7 9 10 11 12 12 14 12 8 9 13 15 16 20 22 21 23 25 27 28 29 30 29 28 28 27 26 27 28 27 26 25 27 28 30 27 27 29 28 28 29 25
6 6 8 8 9 11 13 14 12 12 12 9 9 12 17 18 21 23 24 25 24 24 27 26 28 27 26 26 26 28 30 29 25 23 27 30 28 27 27 26 26 26 24
5 6 6 7 8 10 13 16 19 18 14 13 15 15 15 18 20 22 25 27 24 24 22 24 25 24 25 26 27 26 28 31 29 27 25 26 25 27 28 27 25 23 24
6 5 6 8 10 12 14 15 16 18 21 21 20 19 18 19 22 23 22 24 26 24 23 23 24 23 23 24 26 27 27 28 27 27 27 26 26 26 27 25 25 25 25
6 7 7 9 11 12 14 15 15 16 18 20 24 25 24 26 28 24 21 18 19 20 24 24 22 24 24 23 23 25 27 30 29 30 29 29 27 26 27 26 25 27 28
5 5 6 9 12 15 17 17 17 15 15 15 17 21 24 27 26 28 26 23 22 22 23 23 24 26 27 25 25 23 23 26 26 26 27 28 29 28 26 24 23 23 23
4 3 2 6 10 13 16 19 21 20 19 18 19 19 23 24 24 23 24 24 26 26 26 27 27 27 29 29 28 31 32 30 31 32 32 33 29 28 27 25 23 22 25
4 1 2 4 7 11 14 18 21 22 24 24 25 24 25 23 22 23 25 26 27 27 28 31 34 31 29 29 30 31 32 32 29 26 29 31 29 26 26 23 22 22 24
8 4 3 5 7 10 13 16 19 22 23 26 26 25 25 26 26 28 29 30 30 31 31 30 32 34 34 34 33 33 33 35 36 33 36 34 31 29 26 21 20 18 20
12 11 8 9 10 10 12 14 17 20 21 23 23 22 22 23 27 29 30 31 33 34 32 32 35 36 38 39 37 40 35 32 31 29 30 26 24 23 24 24 20 21 22
19 17 15 15 15 14 14 14 15 17 17 17 20 19 22 25 26 27 29 30 32 34 35 35 35 37 38 41 40 41 38 40 37 37 39 34 28 26 25 23 23 21 23
21 20 18 17 18 18 17 16 16 17 20 19 20 21 22 24 27 28 29 31 33 35 37 39 39 40 42 42 42 42 44 45 43 43 42 33 27 27 26 25 24 20 23

GFSGL_925_spd_090.txt.gz
Wind_Speed
21 22 18 18 17 15 13 11 11 10 10 14 13 13 14 14 14 13 13 12 11 10 10 9 9 7 7 5 5 3 3 3 2 4 7 8 9 12 13 12 12 11 9
19 10 17 16 16 15 15 13 11 11 11 11 12 12 13 14 15 14 13 13 12 11 10 10 10 10 9 10 8 6 6 7 7 8 11 12 15 16 17 15 12 10 11
16 6 4 7 13 12 13 14 13 13 13 13 13 13 11 12 13 13 15 15 15 14 10 11 12 12 13 12 14 14 13 11 10 11 12 15 17 18 18 15 15 17 16
18 15 12 10 8 5 3 2 5 7 10 12 12 12 12 12 12 16 17 16 14 14 12 11 11 11 11 12 13 14 14 12 11 11 14 16 16 16 16 17 19 21 23
13 12 11 8 7 7 6 2 2 2 3 4 8 11 11 13 13 14 15 16 17 16 15 14 15 13 14 16 16 16 15 14 14 15 15 17 19 20 19 18 20 22 24
10 8 6 7 7 2 5 5 3 4 3 5 3 7 9 10 13 14 16 17 18 17 18 16 17 16 16 16 17 19 19 18 19 18 18 16 22 22 22 22 20 14 9
13 10 7 7 6 5 4 3 4 6 5 5 6 7 5 4 8 12 14 16 18 19 18 18 18 18 17 16 16 18 18 18 19 21 24 25 23 25 24 24 23 22 17
20 17 14 13 11 7 5 5 3 4 5 6 8 9 9 12 11 9 11 15 17 19 19 19 20 21 19 19 21 21 21 21 21 22 24 26 27 27 26 25 25 27 28
17 15 13 10 9 9 9 8 9 8 6 6 4 9 12 12 10 9 10 8 12 14 17 19 19 20 21 20 20 23 25 27 27 27 28 28 29 29 28 28 28 20 22
13 11 10 9 9 10 9 9 9 8 8 6 8 7 12 11 13 16 12 9 9 10 11 11 12 13 13 13 16 18 20 24 25 26 27 26 26 27 26 26 26 19 19
8 8 8 8 9 9 8 8 8 7 8 10 9 9 8 9 9 10 13 16 16 13 10 6 5 5 7 8 11 14 17 18 20 22 27 28 29 30 31 31 29 27 21
6 7 8 8 8 8 8 8 8 8 8 9 7 6 8 9 11 12 13 13 14 15 15 15 14 12 14 14 16 18 17 17 18 21 23 25 27 29 32 34 33 30 30
5 7 8 8 9 10 9 10 10 10 11 10 10 11 12 12 13 15 17 18 17 19 18 19 17 17 16 17 17 19 20 22 21 21 21 25 25 28 30 30 31 33 33
7 7 8 9 10 10 10 11 11 12 12 11 10 12 15 15 16 19 20 20 21 22 24 23 23 23 22 21 22 21 19 20 23 21 21 26 27 22 23 23 23 23 22
7 7 7 8 9 9 11 12 11 11 11 12 13 13 13 14 16 17 19 22 22 23 25 25 25 25 25 25 25 24 24 22 19 21 21 21 22 21 22 20 22 22 21
6 6 7 7 8 9 10 10 10 10 9 8 9 11 13 13 16 17 18 19 20 19 20 18 17 16 16 17 19 21 23 23 24 23 24 21 23 23 22 22 21 20 21
6 6 6 7 8 8 10 11 12 11 12 12 12 11 11 13 18 21 22 21 20 19 20 16 16 16 17 18 18 19 22 21 25 25 25 23 22 24 24 23 23 22 22
9 8 7 8 9 9 10 11 11 12 14 16 15 16 15 17 21 21 20 21 22 21 18 17 19 21 20 21 21 21 20 22 22 22 23 23 23 24 26 26 25 23 24
11 10 9 10 10 11 12 12 13 13 13 14 17 18 19 22 22 22 20 14 16 17 17 19 20 21 22 22 23 24 25 24 23 25 25 27 26 25 25 27 27 28 28
11 10 9 8 8 9 11 13 13 13 13 13 12 14 15 18 16 15 14 15 15 16 18 19 20 21 22 23 27 27 26 25 27 27 28 28 30 28 26 26 29 31 27
14 12 8 5 5 5 7 10 11 13 12 13 14 15 16 15 14 14 15 16 15 17 18 20 23 25 26 25 27 27 26 27 27 28 30 30 27 28 28 31 30 29 30
15 13 11 7 5 2 2 5 8 10 11 10 12 13 15 12 13 15 16 17 17 18 18 20 22 23 24 24 27 30 30 30 29 29 30 34 33 31 29 30 29 31 29
17 14 11 9 6 4 3 4 7 11 15 15 15 15 14 14 15 16 17 17 18 19 20 20 22 24 24 25 26 29 32 32 32 33 36 34 33 28 28 30 30 29 27
19 16 12 9 7 8 8 8 10 11 13 16 17 17 15 16 18 19 19 20 21 23 24 25 26 27 29 30 31 31 33 35 39 42 39 37 36 31 29 29 26 26 26
21 18 15 13 11 10 11 12 13 14 15 17 19 18 17 18 20 21 23 24 24 27 29 31 34 34 33 33 36 38 40 41 40 42 43 42 41 38 38 36 35 33 29
24 21 18 15 14 14 14 15 16 17 17 17 19 19 18 18 22 25 24 28 29 29 33 33 35 38 40 41 40 39 42 43 44 43 42 44 40 39 36 34 34 30 26

GFSGL_925_spd_093.txt.gz
Wind_Speed
19 19 18 16 15 14 10 8 6 7 8 9 10 11 13 12 13 14 11 11 12 10 10 10 8 8 6 5 5 4 4 3 6 7 6 7 12 11 14 15 13 13 13
19 23 20 15 16 16 15 12 9 7 6 6 7 10 11 11 12 14 13 10 12 11 9 10 9 8 9 8 7 7 7 6 7 10 10 10 11 12 15 15 13 13 15
16 17 15 13 14 16 14 14 13 11 11 10 8 6 8 9 10 11 11 11 12 13 13 11 10 9 10 11 9 10 10 9 9 11 12 10 10 11 13 13 13 12 12
20 17 15 13 9 11 10 9 9 9 9 10 10 8 6 7 6 8 10 11 14 12 11 13 12 10 10 10 9 9 10 10 10 11 12 12 12 12 13 13 14 14 16
19 16 17 14 10 5 5 6 6 5 4 5 7 8 7 7 6 7 7 9 11 12 12 13 14 12 12 12 11 11 11 13 12 13 14 14 14 13 14 15 15 14 16
14 14 15 13 10 7 6 7 5 5 6 5 3 4 5 6 10 12 12 11 11 11 12 13 13 15 14 14 15 16 16 15 16 16 16 16 17 15 14 14 16 16 16
15 13 12 12 11 10 7 7 6 5 4 5 6 7 6 2 5 11 13 12 12 13 14 14 14 13 13 14 13 14 15 17 18 18 17 18 18 17 14 15 16 17 19
17 15 13 12 9 7 6 6 4 3 5 5 6 7 6 7 2 3 5 7 8 9 10 12 13 15 14 15 15 15 15 17 17 16 19 19 18 17 16 16 17 18 20
16 14 12 11 10 9 8 7 6 4 5 5 6 9 7 10 10 4 3 3 3 3 5 7 9 9 12 15 15 14 15 15 16 19 20 21 23 23 21 17 19 20 23
13 12 11 10 9 8 7 6 6 6 6 8 11 10 8 8 9 10 6 7 7 6 3 2 2 4 5 6 7 8 11 12 11 15 17 18 18 20 20 21 20 22 23
10 9 9 8 8 8 6 6 7 7 8 9 10 9 7 6 7 11 12 8 8 7 7 6 8 11 11 11 11 11 11 16 18 17 17 18 18 18 19 19 18 20 23
8 8 8 7 5 6 5 5 6 6 7 6 6 5 6 6 8 10 10 10 9 7 7 9 13 11 12 11 11 12 13 16 14 14 15 16 17 17 17 18 20 22 23
7 7 7 6 7 6 5 5 5 6 6 4 5 4 5 6 7 11 12 12 10 10 10 13 16 16 15 13 13 15 14 10 13 14 16 16 17 19 19 19 18 20 23
6 6 6 6 6 6 5 5 5 5 5 4 5 5 6 7 10 13 14 14 15 13 16 14 14 14 12 13 12 11 11 10 11 16 17 18 18 19 18 18 20 19 21
6 5 5 5 5 6 7 6 5 6 5 4 4 4 5 6 10 12 14 14 15 14 15 11 11 11 11 10 11 12 11 12 13 14 17 19 20 19 20 18 19 20 20
6 5 5 4 4 4 5 7 9 8 6 6 5 5 4 4 8 9 8 8 8 10 8 9 10 10 11 12 14 14 13 14 15 16 17 19 20 21 22 22 21 20 21
6 7 6 5 5 5 5 6 6 6 9 9 8 8 7 9 10 11 11 10 13 10 8 9 10 11 12 13 13 14 16 16 16 18 19 19 22 22 22 23 23 24 24
7 9 7 6 6 6 6 6 5 5 5 5 7 9 11 12 12 14 15 12 10 11 11 12 13 14 14 15 16 16 18 18 19 19 20 21 22 23 23 24 24 25 26
9 8 8 8 7 7 7 6 6 6 6 6 6 7 12 14 15 15 16 13 12 12 12 12 13 14 16 17 18 19 21 21 22 22 21 22 21 24 25 25 27 29 29
9 10 9 8 8 6 6 5 5 5 6 6 7 9 11 11 11 12 12 12 12 12 13 13 15 16 17 18 19 20 21 21 22 23 24 24 24 26 26 26 26 27 29
13 12 10 7 7 6 6 5 5 4 5 5 5 6 11 8 10 11 11 11 12 12 13 14 15 16 17 18 19 20 21 22 22 24 26 27 27 27 30 29 30 30 29
15 15 14 10 9 7 5 4 3 3 4 5 5 6 10 6 7 8 9 10 11 12 13 15 16 17 18 19 21 22 24 25 25 25 26 28 29 31 32 31 30 31 31
17 16 14 12 11 9 7 5 3 1 1 3 5 6 7 6 7 8 9 10 11 12 13 14 17 18 19 19 20 22 24 26 27 28 31 32 33 35 36 35 35 32 30
19 17 15 13 12 10 8 6 5 5 4 4 4 6 7 8 8 9 10 11 13 14 15 17 18 20 21 22 22 23 24 25 27 30 32 36 37 37 35 35 36 37 37
21 20 18 15 12 10 8 7 6 5 6 6 6 6 8 9 9 10 11 12 13 15 17 20 19 21 24 26 28 28 28 31 34 35 39 37 38 38 39 39 38 36 38
27 21 18 15 13 11 9 8 8 8 8 8 9 8 9 10 10 11 11 12 14 16 19 19 22 24 27 29 29 33 37 36 39 41 42 43 41 39 37 38 38 39 40

GFSGL_925_spd_096.txt.gz
Wind_Speed
11 13 14 12 9 8 9 9 7 6 7 9 9 11 10 10 10 10 8 7 9 10 9 9 10 10 11 10 9 8 9 9 11 14 7 9 10 11 14 14 15 16 17
10 12 12 12 13 11 11 11 10 9 8 6 6 9 10 10 11 11 11 9 10 10 9 10 11 12 11 12 12 11 12 10 12 13 15 15 12 13 13 14 15 16 15
14 13 11 13 10 12 12 11 12 11 8 8 7 6 8 9 9 10 11 10 10 10 9 10 10 11 12 13 12 14 14 14 13 16 16 17 15 15 14 16 15 13 14
12 11 14 16 21 13 10 11 11 11 11 12 11 10 8 6 6 7 9 9 9 10 11 10 10 11 11 11 13 12 13 13 16 16 18 18 17 14 15 16 16 15 15
16 16 15 14 15 12 7 6 5 5 6 9 11 10 10 9 9 9 9 9 10 11 12 11 12 12 14 14 13 12 12 14 15 17 16 16 16 13 13 17 17 17 18
13 14 13 12 10 11 7 5 4 4 1 2 6 7 9 7 13 14 12 10 10 11 12 11 11 13 15 16 17 18 17 16 16 16 18 17 16 16 15 15 18 19 17
17 14 14 13 9 8 8 5 4 4 4 4 2 3 4 0 8 9 11 10 12 12 11 11 11 12 10 12 13 15 17 17 19 21 20 20 20 18 17 18 18 20 21
16 13 11 9 7 6 8 7 5 2 2 2 5 5 4 5 2 3 3 5 9 9 10 9 10 9 11 12 12 14 16 17 17 18 18 20 21 19 17 18 21 23 24
14 12 11 9 9 6 6 4 3 3 4 5 4 6 4 4 3 3 3 1 2 2 2 6 7 7 10 12 10 13 16 17 17 17 19 20 22 24 24 21 22 24 25
10 9 9 8 7 6 6 6 4 5 5 6 5 4 5 4 3 2 2 2 2 1 1 4 6 5 7 7 6 7 10 12 13 17 20 21 21 22 20 19 18 21 24
10 8 7 7 6 6 4 5 4 5 6 5 5 4 4 4 5 4 3 2 1 3 1 2 4 5 6 7 8 6 8 12 14 15 17 17 17 18 19 17 15 18 22
7 7 4 5 3 3 4 5 4 4 5 5 4 4 2 1 4 8 6 4 3 3 4 6 9 10 9 10 9 8 11 13 13 13 15 16 16 16 17 16 16 20 23
6 6 5 3 2 3 3 3 3 3 5 6 6 5 3 1 2 10 10 9 8 5 8 10 9 10 10 7 8 14 13 11 14 15 15 16 16 18 19 21 21 20 23
4 5 5 5 4 2 2 2 2 3 3 4 4 4 3 1 3 7 9 8 10 7 12 9 7 6 6 7 7 7 9 9 12 16 18 18 19 19 20 20 22 22 23
5 4 4 4 4 4 3 2 2 1 2 1 1 1 2 1 5 9 10 9 8 8 9 6 5 6 6 7 8 8 10 11 12 13 15 18 20 20 21 21 21 23 25
6 6 5 5 5 5 5 5 5 3 3 2 2 5 2 3 5 5 4 4 5 7 6 6 7 9 9 11 11 12 11 12 14 16 17 17 20 20 21 22 22 22 24
6 6 6 6 5 5 6 7 6 4 6 4 3 3 1 3 4 5 5 5 13 6 4 6 7 8 9 10 11 12 12 13 16 16 18 19 20 21 23 23 23 25 26
8 9 7 6 6 6 5 5 4 6 6 4 3 4 7 9 10 10 9 6 4 5 7 7 7 8 9 11 12 13 14 15 16 17 19 20 20 21 24 24 24 25 26
9 9 8 7 7 7 6 5 5 4 4 3 4 2 6 7 10 12 12 7 7 7 9 9 10 11 12 13 14 15 16 17 18 19 19 20 21 22 24 25 26 27 27
11 10 10 9 8 8 7 7 5 4 5 4 4 2 4 3 2 4 5 6 6 7 8 9 10 11 12 13 15 16 17 18 19 19 20 21 22 23 25 26 27 28 29
13 13 12 10 9 8 8 7 6 5 4 2 3 2 5 1 3 4 5 6 6 7 8 9 10 11 11 13 14 15 17 19 20 21 22 23 23 25 26 27 28 30 31
16 15 15 13 11 10 9 7 7 6 4 3 2 2 4 0 2 3 4 4 5 6 7 9 10 11 13 14 16 17 19 20 21 22 24 25 26 27 27 28 29 29 32
18 17 16 14 12 11 10 9 8 7 6 4 3 2 2 2 3 4 5 5 6 7 8 9 10 12 13 14 16 17 19 21 22 23 26 28 29 29 29 32 32 34 34
21 20 18 17 15 14 13 11 10 8 6 6 6 4 4 4 5 5 6 6 7 7 8 9 10 12 13 16 16 18 19 20 21 25 27 28 31 32 32 33 34 36 37
23 21 20 19 18 17 14 12 11 10 9 8 8 7 6 6 6 6 7 7 8 9 9 11 11 13 15 18 19 19 20 28 26 27 32 32 33 35 37 37 37 37 38
25 24 23 20 18 17 15 14 12 11 10 9 8 8 8 8 8 8 8 9 10 10 12 11 13 14 18 18 18 23 29 30 34 37 35 38 36 36 35 37 38 38 37

GFSGL_925_spd_099.txt.gz
Wind_Speed
10 10 13 12 12 10 8 9 9 9 6 3 4 7 7 9 10 11 13 6 9 11 13 9 7 10 13 15 15 14 14 12 14 13 14 6 9 10 10 15 18 20 20
4 7 7 12 13 10 10 9 10 8 7 5 9 9 11 11 13 13 12 12 11 12 12 11 12 12 11 13 15 17 18 20 18 18 20 20 19 15 14 13 17 18 17
14 12 10 9 9 12 7 8 11 11 9 9 9 9 11 13 12 12 13 12 12 11 11 11 10 10 11 13 12 15 15 15 15 17 18 20 20 20 20 17 16 17 17
18 13 14 9 12 11 13 12 13 12 12 13 12 11 10 10 12 12 13 12 12 11 11 11 11 12 11 11 10 12 14 14 15 15 18 19 16 15 16 17 15 17 17
14 14 14 14 14 15 16 15 12 11 11 14 13 12 11 12 10 13 11 11 11 12 11 12 14 12 12 13 12 12 12 11 15 18 16 17 16 20 19 18 18 18 20
15 13 10 10 10 10 13 10 10 8 7 6 9 9 7 9 7 10 11 7 11 11 12 12 13 12 14 18 17 17 17 15 15 15 17 18 20 16 17 18 19 21 19
11 10 11 10 6 6 6 6 9 5 5 4 4 4 2 5 6 9 11 12 10 12 12 11 12 5 7 9 12 14 14 16 18 18 17 19 20 19 19 20 19 19 22
13 14 14 12 9 6 3 3 3 4 3 3 4 6 5 5 2 1 4 6 9 9 8 8 9 10 10 11 12 13 14 15 17 17 17 18 19 19 15 19 22 26 27
13 11 10 8 6 4 3 3 3 6 5 5 4 6 4 4 3 1 2 5 2 3 4 4 3 4 9 11 10 11 14 17 17 15 18 22 25 27 24 21 21 22 22
15 12 8 7 7 5 3 2 0 1 2 3 6 4 3 4 5 3 3 5 2 6 2 3 4 7 10 10 9 9 12 11 11 15 17 18 19 21 21 21 23 18 20
12 10 9 8 5 4 3 2 4 1 4 5 4 3 2 3 5 6 4 4 5 5 6 4 1 7 8 8 10 10 9 15 17 16 17 17 16 17 17 14 9 14 17
8 8 8 7 5 3 4 3 2 2 2 3 3 5 2 1 5 9 6 4 3 4 6 9 13 13 13 12 11 11 13 16 16 17 16 16 17 15 15 16 21 22 22
7 6 5 4 3 2 3 3 2 3 4 6 6 6 3 0 3 13 10 6 6 5 5 11 10 9 8 7 9 10 10 11 13 14 17 18 18 18 21 21 21 22 23
5 3 2 4 3 1 2 2 5 4 6 7 6 6 6 5 2 6 7 8 8 6 8 8 5 5 6 6 7 7 9 9 11 13 15 18 19 18 19 20 22 23 24
6 6 5 6 6 5 2 3 3 1 1 2 2 4 5 5 3 8 6 5 4 4 6 6 4 5 6 6 8 8 8 11 13 14 15 17 18 18 19 21 22 23 22
6 7 7 7 7 8 6 4 3 1 3 5 4 3 1 5 6 5 4 6 4 2 1 3 4 6 8 8 9 11 10 11 13 15 16 16 18 19 20 21 21 22 23
7 4 5 7 7 7 8 9 6 1 2 2 2 4 6 5 2 1 5 6 5 2 4 3 4 5 6 7 8 9 11 13 15 15 17 18 19 20 21 21 21 22 23
8 7 7 7 7 7 8 9 9 9 9 6 3 3 5 5 6 5 3 2 2 2 4 5 5 6 7 8 9 10 11 13 13 15 16 17 18 20 22 22 22 24 25
10 8 10 8 7 6 7 7 8 6 5 5 7 4 1 3 6 8 6 4 4 4 4 5 6 7 7 8 9 11 12 13 14 16 16 17 18 19 21 22 23 27 29
12 9 11 9 7 9 8 8 8 6 6 6 5 3 3 5 4 3 2 3 4 4 4 4 5 6 7 8 10 11 12 14 15 16 17 18 19 21 22 24 24 26 26
14 12 14 11 10 11 10 9 9 8 8 7 7 5 3 3 2 2 0 2 2 3 3 4 5 6 7 8 10 11 13 14 15 17 18 19 21 23 24 25 26 27 29
17 16 17 15 13 12 11 10 9 10 8 7 7 5 2 5 3 2 1 1 1 2 3 4 5 6 7 8 10 11 13 14 16 18 20 21 22 24 25 26 28 29 30
20 19 18 18 16 14 13 12 12 11 10 8 7 6 6 5 4 4 3 3 3 3 4 4 5 6 7 8 10 11 13 15 16 18 21 23 24 25 26 29 30 31 32
23 22 21 20 19 18 17 16 14 12 9 10 10 9 7 6 6 5 5 5 5 5 5 6 6 7 7 9 10 12 12 10 16 21 21 23 28 31 31 31 31 33 35
20 22 23 22 21 21 19 18 16 15 14 13 12 10 9 7 7 6 6 6 6 7 7 7 8 7 8 10 12 11 13 19 18 24 29 30 30 32 33 35 36 36 36
29 21 17 22 24 22 21 19 17 15 14 12 11 10 9 9 8 8 7 7 8 8 9 10 9 10 10 11 10 14 21 20 26 28 29 32 29 31 32 32 34 35 36

GFSGL_925_spd_102.txt.gz
Wind_Speed
11 11 13 10 10 9 7 5 2 2 1 9 9 11 12 12 12 13 13 11 6 11 12 10 8 9 13 15 17 18 18 16 10 1 11 6 13 20 20 17 18 17 17
17 11 5 12 12 12 8 1 4 5 4 6 10 10 10 12 12 13 13 11 10 11 10 10 10 11 10 12 16 16 15 18 12 11 13 17 16 19 20 17 18 17 18
18 11 8 7 10 6 3 7 7 10 10 8 8 12 14 15 14 14 15 15 13 10 11 10 10 10 9 10 13 15 15 16 17 14 16 19 21 24 24 19 12 16 14
13 12 14 13 7 6 4 9 13 10 8 10 10 12 13 11 11 11 13 13 12 12 11 10 11 11 10 10 11 11 10 10 15 17 15 18 13 19 18 18 17 19 21
13 11 12 13 12 11 12 11 13 16 13 9 11 12 10 8 9 11 11 10 12 12 10 9 12 12 12 11 11 11 13 13 14 16 17 19 18 21 19 21 18 23 25
16 15 13 13 10 8 10 10 11 13 10 9 9 7 7 5 7 8 10 8 9 6 9 10 11 11 12 14 16 17 15 15 16 15 16 15 20 20 20 19 22 19 13
16 12 10 8 6 3 2 2 4 8 9 6 4 6 1 3 6 5 7 9 11 8 9 10 10 9 12 7 7 8 11 12 15 19 20 18 18 19 18 19 17 18 20
15 14 11 10 7 5 5 3 2 2 5 5 6 4 3 6 5 4 4 5 6 6 5 2 4 10 10 11 10 10 11 14 15 15 15 18 18 19 20 22 24 25 24
15 13 12 9 7 4 2 1 2 3 2 1 3 4 3 4 4 4 3 9 4 3 6 5 1 7 10 11 11 10 9 11 9 7 10 15 20 23 23 25 28 19 16
17 15 13 13 10 8 5 5 4 2 2 4 6 4 2 5 8 4 5 3 6 8 6 4 5 8 10 11 11 11 10 11 17 19 19 17 13 17 19 21 26 22 16
12 11 9 10 8 6 3 3 3 3 5 5 6 1 3 4 7 9 5 4 4 4 4 2 3 8 9 9 12 12 11 15 18 17 18 23 20 17 16 17 14 14 14
13 12 10 8 6 5 4 3 2 3 4 5 3 2 3 3 7 12 10 6 5 5 6 9 11 9 10 10 10 10 10 13 12 15 15 19 22 22 26 25 20 21 21
10 9 8 6 5 7 3 4 2 2 2 5 6 5 7 5 2 7 9 8 9 8 5 10 7 7 6 7 8 7 9 10 11 14 14 16 20 22 21 22 23 22 21
8 7 7 7 6 6 2 2 6 4 5 4 6 5 5 2 2 6 10 7 3 2 9 6 4 5 7 4 8 10 11 11 15 17 19 20 21 21 21 22 24 27 26
6 5 5 5 6 5 2 3 3 2 2 5 3 5 5 4 2 5 10 8 5 3 4 6 6 8 12 11 12 13 17 15 16 17 20 19 20 21 21 24 24 24 22
9 8 8 9 9 11 8 3 3 2 5 8 5 1 2 5 9 9 6 2 2 2 2 3 7 6 8 9 11 12 15 17 17 16 18 19 21 21 24 23 23 23 23
7 3 7 7 12 11 11 12 9 5 7 7 8 7 6 8 6 2 4 2 3 1 4 4 6 6 7 8 9 11 11 13 12 15 16 16 18 18 21 22 23 23 24
8 7 7 7 9 7 8 9 8 13 11 7 4 2 1 1 2 5 2 2 4 1 4 6 6 6 6 7 7 9 10 10 13 14 15 15 17 18 18 18 19 21 23
9 9 10 9 8 7 6 8 9 8 4 15 9 5 5 4 5 3 1 5 3 5 5 6 5 6 6 7 8 9 10 12 12 13 14 15 16 18 19 20 22 23 25
13 13 9 11 8 6 8 8 9 8 7 8 11 13 7 3 6 5 3 1 2 4 4 4 4 5 5 5 7 8 9 11 12 13 14 16 18 19 19 21 22 24 24
15 13 15 12 12 9 12 11 11 9 9 9 7 12 7 7 7 5 2 4 1 3 3 3 3 3 4 6 7 8 10 11 12 14 16 17 18 18 19 20 21 22 24
18 16 15 17 15 14 15 13 12 10 10 9 11 11 5 9 6 6 4 3 3 2 1 1 1 3 4 5 7 8 8 9 10 12 15 16 17 18 19 21 23 24 26
20 20 18 16 17 16 17 14 14 13 13 11 10 14 7 10 11 6 5 5 3 3 2 1 1 2 4 4 6 7 8 6 7 13 14 15 17 20 24 25 26 27 27
22 21 19 19 18 17 17 17 17 16 15 14 13 12 10 9 9 8 6 5 5 4 3 2 2 3 2 3 4 6 7 10 15 11 16 18 20 26 28 27 28 29 31
27 22 17 18 19 19 18 18 18 17 16 13 11 13 14 12 10 8 7 7 5 5 5 5 5 5 4 4 6 6 9 14 16 16 19 22 24 24 26 27 28 30 30
24 25 19 7 7 16 20 17 18 18 16 16 17 16 12 10 8 7 6 6 5 6 4 5 7 6 7 6 9 9 13 16 15 16 19 21 22 24 25 27 30 31 33

GFSGL_925_spd_105.txt.gz
Wind_Speed
26 24 19 15 14 12 11 9 6 3 2 8 9 8 9 10 9 11 13 11 10 9 9 9 10 9 9 11 11 11 10 13 3 6 7 9 11 16 19 19 19 21 23
20 27 23 20 17 14 12 12 10 8 5 4 4 5 9 7 10 11 11 11 7 11 11 10 10 9 11 9 9 9 9 9 9 10 10 10 17 22 20 19 17 15 15
24 19 19 18 13 9 10 11 13 10 8 6 4 6 7 10 13 13 14 14 13 12 10 11 10 9 9 8 11 11 9 9 9 9 11 14 14 20 17 18 16 14 14
18 16 13 12 13 12 9 5 7 6 4 9 8 8 7 7 10 13 13 12 12 12 9 10 10 8 9 9 9 9 9 11 12 13 15 17 14 16 14 17 21 21 22
14 11 9 11 11 9 7 9 9 9 8 6 7 4 3 5 12 12 9 5 9 10 8 9 8 5 6 10 10 10 10 12 12 13 15 17 18 20 21 21 21 22 24
15 14 11 10 9 7 6 8 8 10 9 7 8 5 4 4 6 6 5 6 6 5 5 9 7 8 7 9 11 10 11 10 11 11 13 13 15 16 19 20 19 20 8
14 13 12 9 8 7 6 6 5 4 3 3 5 3 1 4 6 3 3 4 6 5 4 5 5 8 10 9 5 3 2 3 6 9 12 14 16 17 18 20 21 22 20
13 13 12 16 15 12 9 7 7 9 8 10 8 4 2 2 3 5 5 2 3 3 4 3 2 3 6 6 4 3 2 2 3 5 7 10 12 15 19 22 23 23 23
20 19 17 15 12 10 9 7 6 6 9 9 9 7 4 6 4 3 4 8 6 8 7 5 5 5 7 7 7 6 5 3 6 7 8 9 12 15 17 16 17 14 15
16 16 14 15 14 11 9 10 8 8 10 15 12 5 3 4 6 3 3 5 7 8 4 3 4 7 8 8 9 10 10 11 14 13 9 13 18 14 21 18 15 13 13
13 13 13 13 10 9 8 7 7 8 10 9 7 4 4 5 6 5 3 4 5 4 2 3 5 7 8 10 9 8 8 11 11 12 12 13 16 18 20 17 17 18 17
12 11 11 10 10 8 7 7 8 10 12 10 6 3 2 3 6 10 11 4 3 2 1 3 6 5 4 5 7 8 7 8 11 13 16 21 22 23 20 17 16 16 15
11 11 10 9 9 8 8 8 6 6 5 4 3 2 9 4 2 8 8 5 3 2 3 6 3 2 3 6 10 4 8 12 13 16 20 20 19 18 18 21 21 20 18
9 8 7 7 7 6 5 4 4 6 4 6 3 3 11 9 3 4 8 8 4 4 4 5 9 10 8 14 13 15 16 15 16 16 16 17 17 19 21 23 24 25 20
8 7 7 6 6 6 5 4 5 5 3 3 4 4 8 6 1 4 8 11 8 4 7 11 9 8 10 12 14 15 15 16 18 18 19 20 21 23 25 22 23 24 20
9 8 7 7 10 8 6 4 2 3 4 6 4 3 1 1 4 8 8 6 4 1 4 5 9 12 15 16 17 17 19 18 19 18 19 19 21 22 23 23 23 22 21
8 5 10 11 11 12 12 8 6 4 3 4 5 6 9 10 9 7 4 2 2 1 4 11 14 15 14 14 15 15 16 16 16 18 18 20 21 22 23 23 23 22 22
10 7 3 8 9 9 18 15 12 11 8 4 2 2 2 3 4 5 4 1 3 3 10 15 16 14 14 13 12 14 14 15 16 17 18 19 20 21 22 23 23 23 23
11 11 9 12 6 9 5 8 5 12 12 9 7 4 2 2 3 5 2 4 6 13 14 14 13 12 11 11 10 11 13 14 14 15 17 18 20 20 21 22 23 24 23
15 14 10 12 12 10 9 8 7 8 16 18 15 10 8 5 5 6 4 4 11 12 13 11 10 8 7 6 7 8 11 12 11 12 14 15 17 17 19 21 22 22 22
19 17 17 14 13 14 12 14 12 11 12 19 17 16 12 6 9 9 10 8 10 9 8 8 7 6 7 5 4 6 7 8 8 9 12 14 14 16 17 21 20 20 21
20 16 19 20 19 13 15 15 15 14 11 12 21 21 14 9 9 9 16 9 8 6 6 6 5 4 3 3 4 5 4 4 6 11 14 14 15 16 19 22 19 21 23
22 19 17 29 23 22 15 18 16 15 13 9 19 20 15 10 15 9 13 12 12 9 7 7 5 6 5 4 2 1 2 3 8 13 13 16 18 20 20 22 24 25 23
25 24 21 17 28 23 21 18 20 13 14 15 18 18 14 10 12 12 12 11 10 10 7 7 6 4 4 3 3 3 3 5 11 14 13 15 17 18 19 21 23 23 23
20 23 18 7 26 24 20 17 21 20 17 15 14 19 18 16 17 15 15 12 12 10 9 6 6 4 7 7 5 5 5 8 14 11 11 13 14 15 16 19 21 23 24
15 20 19 13 3 9 15 21 14 19 20 18 20 13 13 19 19 17 15 17 14 10 10 10 5 5 8 6 6 7 7 11 12 11 10 12 14 14 15 18 21 24 25

GFSGL_925_spd_108.txt.gz
Wind_Speed
29 26 24 21 19 14 13 12 10 8 7 12 12 9 11 10 10 10 12 9 9 10 8 8 7 5 6 4 2 2 2 2 2 3 9 11 14 11 15 14 10 12 11
28 25 23 21 18 17 14 12 12 9 6 7 9 10 10 9 7 10 11 10 10 8 9 9 9 10 9 8 7 7 6 5 4 4 6 7 4 11 14 14 13 10 13
20 21 20 19 19 18 16 14 14 10 10 8 7 6 6 9 9 11 10 10 11 11 11 9 9 10 10 7 9 8 4 1 3 3 5 7 6 10 13 13 15 15 14
29 24 31 29 23 19 19 17 13 10 11 11 8 7 7 7 8 10 12 12 10 7 9 11 11 10 9 10 10 9 8 7 5 9 10 10 8 8 10 14 18 18 19
25 26 22 18 16 18 17 12 10 10 8 4 7 10 9 8 6 5 6 6 9 8 7 7 9 6 10 12 13 11 11 12 11 9 8 10 12 13 12 14 17 19 22
22 21 19 17 15 14 10 9 10 10 9 9 9 7 6 6 5 5 7 6 7 10 9 7 5 8 11 8 11 12 12 12 10 7 9 10 11 11 14 16 17 19 10
20 18 16 15 14 10 9 8 6 7 8 9 11 10 8 3 1 0 3 3 6 8 8 7 7 6 6 6 5 4 5 5 6 6 9 10 12 12 16 19 20 17 16
20 21 17 15 13 10 8 8 7 6 10 13 12 10 7 4 2 1 0 6 8 9 8 8 5 2 2 2 2 0 1 3 4 6 8 10 11 12 11 13 14 13 12
20 20 18 21 18 13 10 10 9 10 14 12 9 7 6 8 5 3 4 7 9 9 9 7 6 5 6 5 5 5 3 4 6 7 8 12 14 15 13 11 13 13 6
24 24 23 20 17 15 13 10 9 12 13 12 11 6 4 6 5 2 4 7 8 9 7 5 3 3 4 4 5 5 6 8 9 8 7 8 11 14 16 19 17 15 7
16 17 17 16 15 14 13 12 11 15 16 14 9 7 4 5 5 4 2 2 5 5 4 3 1 3 3 3 4 4 5 6 7 9 10 11 13 14 16 16 18 18 18
12 13 14 12 11 11 10 11 13 17 16 13 11 8 7 7 6 6 4 2 3 4 3 2 2 1 2 1 4 5 5 8 9 10 14 16 17 17 16 14 14 15 17
11 11 9 8 7 6 8 8 10 12 14 12 10 11 11 8 3 4 5 3 1 1 1 2 2 6 5 6 7 9 11 9 11 15 16 15 15 14 13 14 13 11 9
11 9 8 8 6 5 4 5 6 5 5 6 4 6 13 9 5 1 2 4 3 2 2 8 10 14 15 15 13 14 13 13 14 16 15 14 14 16 20 20 21 22 17
8 8 7 6 5 5 4 5 5 4 4 3 2 3 12 11 5 2 3 5 4 4 12 13 13 16 17 16 16 14 13 13 16 16 16 17 18 19 20 20 22 23 20
4 5 5 5 6 6 4 4 3 3 2 1 2 3 4 6 4 3 5 4 0 6 9 10 15 18 19 17 17 16 15 15 16 15 16 17 18 19 19 21 22 22 19
2 1 4 7 9 9 9 8 6 4 3 1 2 4 6 10 10 7 5 2 3 5 9 18 20 18 17 15 14 15 16 17 13 16 17 18 18 18 20 21 21 21 19
8 8 7 11 12 13 14 15 13 9 7 5 3 1 2 5 5 4 4 4 6 8 18 20 19 17 15 13 13 15 15 12 13 14 16 17 17 18 19 21 20 19 18
15 14 13 10 11 9 13 15 18 17 14 9 8 5 3 2 3 4 2 3 10 17 19 18 16 14 12 12 12 12 10 11 12 13 14 15 16 16 18 19 19 18 18
15 15 13 13 12 13 11 11 12 12 13 13 13 10 7 5 5 6 6 12 17 18 16 15 14 12 11 9 10 9 9 9 10 12 13 13 13 14 16 18 17 17 16
20 16 14 15 14 16 14 15 14 12 11 14 17 16 12 9 10 10 6 12 14 13 11 10 10 8 7 6 5 5 6 8 9 10 10 11 11 14 15 14 12 13 14
25 21 18 18 19 20 19 16 16 15 14 13 19 19 17 14 12 12 13 16 13 9 7 6 9 8 6 5 3 3 5 5 6 9 10 10 11 12 13 13 15 16 17
23 25 23 24 24 23 21 20 21 18 17 15 18 22 23 20 14 12 18 18 16 12 9 8 9 9 6 4 3 2 1 2 5 9 8 8 10 11 11 12 14 16 19
17 20 25 29 27 29 29 26 25 22 19 17 18 22 25 21 17 17 19 21 17 14 13 9 8 8 7 5 4 2 3 2 6 8 7 6 7 8 9 11 13 16 18
17 16 17 21 24 28 25 26 30 24 23 18 21 24 25 22 18 18 23 22 20 17 14 10 8 9 9 10 8 5 3 2 6 7 6 4 5 6 9 10 13 16 19
14 14 14 16 21 20 19 23 25 22 25 25 21 20 26 27 24 22 26 25 21 18 15 13 12 13 13 13 9 6 4 4 5 8 6 6 7 7 10 11 13 16 20

GFSGL_925_spd_111.txt.gz
Wind_Speed
26 24 21 19 16 14 12 11 10 7 9 11 13 15 13 13 13 12 11 10 9 6 6 5 6 5 5 4 4 3 4 5 4 6 9 9 8 5 9 10 12 13 14
27 23 22 19 17 16 15 14 13 11 9 7 11 13 10 11 9 11 11 12 11 9 7 8 8 7 7 6 6 5 7 8 9 11 10 7 5 7 9 10 12 12 12
24 22 19 18 13 17 18 18 16 14 10 7 6 7 7 9 11 12 12 11 11 10 9 9 6 6 7 6 5 7 7 7 7 7 8 8 11 9 11 10 12 12 11
17 20 18 17 18 24 21 19 17 15 13 12 11 10 9 8 10 11 12 14 14 12 10 10 9 8 7 7 9 10 10 10 8 8 10 10 8 9 10 12 17 17 18
16 23 22 24 26 26 27 24 17 14 6 6 8 11 12 11 10 9 9 10 11 12 9 7 7 6 6 9 10 10 12 12 10 9 8 6 8 8 9 12 14 18 18
17 24 29 28 32 33 28 15 11 9 7 10 10 9 8 8 8 9 10 9 10 12 11 8 7 5 6 8 10 12 12 13 10 7 4 7 10 10 9 12 13 12 6
18 22 22 19 17 15 13 12 11 10 11 13 11 10 9 7 7 6 6 7 9 10 11 13 11 7 6 6 5 5 5 3 3 3 3 4 8 10 13 14 10 8 7
16 18 23 23 19 15 14 13 12 11 12 11 11 9 6 3 3 3 6 6 9 11 10 12 8 5 2 2 2 3 2 4 4 5 4 4 5 4 6 5 3 3 3
15 19 25 24 19 16 13 11 8 11 14 14 12 9 5 5 4 2 3 5 7 6 6 6 4 4 4 2 2 3 5 6 6 8 11 9 11 11 10 5 8 4 2
22 26 22 20 20 17 14 10 8 10 13 13 12 8 6 4 4 2 2 4 8 8 8 6 5 2 2 2 3 2 2 3 6 10 10 10 10 13 15 14 10 8 4
15 16 21 19 16 13 11 8 10 15 15 13 11 8 5 5 4 3 3 5 6 6 5 5 3 4 5 3 2 2 3 6 8 8 9 9 11 13 17 16 14 13 10
15 14 16 13 11 10 7 8 9 14 16 14 10 9 7 6 4 4 3 2 4 6 6 5 3 4 2 2 3 5 7 9 9 8 10 12 12 12 12 13 12 15 15
12 12 11 11 9 8 8 5 8 10 12 10 8 6 5 3 2 4 6 5 1 2 5 4 4 4 4 6 8 10 9 8 8 11 14 14 13 12 10 10 9 9 12
12 11 10 9 9 7 6 5 6 7 6 6 5 6 8 7 3 2 3 5 5 3 1 3 8 12 13 15 14 12 10 9 9 12 13 12 10 12 15 15 15 9 13
8 8 7 6 6 6 6 5 5 5 5 5 4 5 10 11 6 4 4 6 5 0 11 15 16 15 16 15 14 13 11 10 12 12 12 12 13 14 16 15 17 18 20
5 5 4 4 4 4 4 5 4 3 3 2 2 2 5 7 8 6 7 6 3 7 11 12 14 15 14 13 13 13 12 12 13 11 12 13 13 14 14 16 17 18 19
4 5 3 3 4 4 4 3 2 2 3 3 3 4 6 8 11 12 11 7 5 9 10 16 18 15 15 12 11 13 14 12 10 11 12 12 12 13 14 16 16 17 17
6 4 4 2 8 8 9 10 9 8 6 5 5 4 4 5 5 5 5 6 6 8 17 21 18 15 12 13 13 13 13 11 9 10 11 12 11 12 13 14 16 16 17
9 8 8 7 6 7 8 10 13 14 13 10 8 8 6 3 3 3 4 7 10 15 20 19 17 15 14 14 13 11 10 9 9 9 10 10 10 11 13 13 14 16 17
14 13 10 9 10 11 11 11 11 13 15 16 14 12 9 6 6 7 4 7 17 20 20 18 15 12 12 11 11 9 9 8 8 7 8 8 9 10 11 13 15 15 15
21 19 16 13 14 15 13 13 13 13 14 15 17 15 15 11 9 11 10 14 18 18 17 14 12 12 11 9 8 8 7 7 5 5 5 6 7 9 10 11 10 10 11
15 20 22 21 20 19 20 19 17 16 16 17 16 16 18 16 13 14 14 16 18 15 13 11 12 12 11 7 7 7 8 6 4 3 4 5 5 6 7 8 8 11 10
15 18 20 22 24 25 23 21 22 19 20 19 17 16 20 23 22 18 17 20 22 19 14 11 13 14 12 9 5 4 4 3 2 2 2 3 4 4 4 6 8 11 10
13 16 18 20 22 25 27 25 25 27 26 25 21 21 21 25 26 22 18 22 24 20 16 14 11 11 12 10 8 7 5 3 2 1 1 2 2 1 1 3 5 7 9
15 16 16 17 19 20 21 25 27 24 23 25 24 25 24 23 25 24 20 24 26 24 20 17 14 12 11 10 10 9 7 5 3 1 1 1 2 3 4 4 6 8 11
12 12 12 14 16 18 21 23 24 24 25 24 20 26 27 25 27 26 23 28 30 28 24 20 17 14 13 13 13 11 9 7 5 2 2 4 5 6 7 7 8 9 11

GFSGL_925_spd_114.txt.gz
Wind_Speed
30 25 21 17 15 11 10 10 10 6 8 10 12 12 16 14 14 14 13 12 12 9 8 7 9 8 8 7 7 7 7 7 6 7 10 13 12 6 8 9 12 13 12
29 25 22 18 15 13 11 9 9 10 9 9 10 11 14 11 12 14 14 14 15 14 13 12 11 9 9 10 10 10 8 8 8 8 11 12 12 11 12 11 12 11 10
28 24 22 21 19 16 13 9 10 12 12 11 9 11 14 13 12 12 14 14 15 16 15 14 12 10 10 10 10 9 9 8 8 7 8 11 14 11 10 9 10 10 11
28 26 25 23 18 16 9 14 11 13 16 16 13 11 12 11 12 13 13 14 16 17 16 16 15 13 10 7 7 9 8 8 9 10 10 11 9 8 9 8 13 13 14
28 29 27 20 13 12 12 13 19 16 15 13 14 15 14 13 12 10 10 11 12 13 14 12 14 11 7 6 7 7 7 7 7 9 9 6 6 7 7 9 12 15 10
18 24 22 15 14 13 17 20 20 21 20 15 9 8 11 11 12 10 11 10 8 9 11 12 10 11 7 7 8 9 9 9 10 7 6 3 5 7 7 12 11 5 4
19 15 15 20 21 13 20 23 26 19 15 13 12 14 12 10 10 9 6 4 4 7 10 12 9 6 6 5 6 5 5 4 1 3 2 2 4 5 8 9 6 3 2
16 15 17 18 17 18 20 20 18 18 17 17 15 10 9 6 6 5 3 5 4 4 5 8 12 7 5 6 5 1 2 3 2 2 1 2 2 5 4 4 3 2 5
17 17 20 19 18 21 24 23 21 16 14 12 9 7 5 3 3 3 5 6 7 9 7 6 7 6 5 4 2 2 5 6 6 7 9 8 5 4 3 0 1 1 2
11 11 13 15 15 19 16 12 9 12 13 13 11 8 5 3 3 2 1 2 4 6 6 5 5 5 5 4 3 3 4 5 8 9 9 7 7 7 6 7 5 3 2
13 8 5 7 17 18 17 14 10 12 14 13 11 8 5 4 4 1 2 3 4 4 4 3 3 3 3 4 3 3 4 7 9 8 8 8 8 9 11 10 10 8 7
13 12 5 6 8 14 13 11 13 15 16 15 12 8 6 5 4 3 1 1 3 4 4 4 5 5 2 2 3 4 7 8 9 8 7 9 10 10 9 10 10 11 12
17 18 14 13 7 9 8 9 10 13 16 14 11 8 6 4 3 4 4 3 1 2 4 5 4 2 2 5 6 9 9 8 8 8 10 10 10 9 8 7 8 9 11
19 19 15 12 10 8 7 6 8 10 10 10 8 7 6 6 4 0 2 3 4 3 3 5 8 7 10 12 12 10 10 8 7 10 9 10 7 7 9 9 8 4 8
15 14 13 12 10 10 8 6 5 6 6 6 6 6 7 8 6 3 3 4 3 1 4 10 12 14 14 14 13 11 10 9 9 10 9 9 8 9 10 9 11 11 12
12 10 8 8 8 8 7 7 5 4 3 2 2 1 2 3 5 5 5 6 4 5 10 12 13 13 13 12 11 11 9 8 10 10 9 9 10 9 9 10 10 11 11
9 8 6 5 4 4 4 3 3 1 0 1 2 2 3 4 6 9 12 11 9 8 11 14 15 15 13 11 10 9 10 10 9 9 9 8 9 8 7 8 9 9 10
4 5 5 6 4 2 2 2 4 4 5 3 4 4 4 3 4 5 7 7 7 9 10 16 18 16 14 11 10 10 11 9 7 8 8 8 7 6 6 7 8 8 8
3 3 4 5 4 4 6 7 8 9 11 11 9 8 8 7 5 5 6 6 7 9 11 17 17 15 13 12 12 12 10 9 7 7 7 6 6 6 7 7 8 8 7
7 8 7 6 7 8 9 10 10 11 12 13 14 15 11 11 9 7 7 9 10 10 16 19 17 14 13 12 13 12 11 10 9 7 7 6 6 6 6 6 5 6 7
9 9 10 11 13 12 11 11 11 12 14 15 15 15 15 15 13 10 9 9 11 16 20 19 16 14 14 14 13 12 10 10 9 7 6 6 7 6 6 5 5 5 6
12 13 14 13 14 16 17 15 15 16 16 18 19 17 16 17 17 14 14 13 15 18 18 16 15 14 15 14 13 12 12 11 9 7 7 7 7 6 6 5 5 5 5
12 14 14 15 15 15 15 17 17 16 19 21 20 20 18 19 22 20 19 18 20 21 20 17 14 15 15 13 10 9 10 10 8 6 7 7 7 6 5 4 3 4 4
13 13 14 15 15 15 15 16 18 18 19 20 23 23 24 25 23 26 24 22 22 24 22 19 15 14 15 14 12 10 8 8 7 5 6 7 7 6 5 4 2 1 2
12 13 14 15 15 15 16 17 18 20 21 22 23 24 24 25 24 27 28 25 23 28 26 22 17 13 13 14 13 12 11 8 7 6 6 6 6 6 4 4 4 4 5
11 12 12 13 13 15 17 18 19 19 20 21 21 23 21 20 22 20 20 29 26 30 30 26 21 17 15 15 14 14 13 11 10 7 5 6 6 7 6 6 6 6 6

GFSGL_925_spd_117.txt.gz
Wind_Speed
24 21 19 17 16 15 12 11 10 10 6 9 9 11 13 14 15 14 13 12 12 10 9 9 9 10 10 9 8 9 9 8 10 11 9 9 10 7 7 8 7 7 8
22 22 23 19 16 15 13 10 8 7 6 6 7 10 11 13 14 14 13 13 14 15 15 13 13 11 13 12 11 11 10 9 10 11 10 8 7 8 9 9 8 7 6
20 21 22 22 20 16 14 12 9 7 7 7 8 9 10 11 10 11 13 14 15 16 15 14 13 12 15 13 13 12 10 9 9 10 10 7 9 7 6 6 6 6 6
21 21 21 22 20 18 16 14 11 7 5 7 9 9 9 9 11 12 14 14 14 15 18 16 14 13 14 11 12 11 11 12 11 10 10 9 7 6 5 6 8 6 5
23 21 23 26 24 20 18 13 8 12 6 4 4 8 11 11 12 12 10 10 11 11 12 15 11 16 18 11 8 9 10 10 11 9 9 7 7 6 7 7 8 8 2
19 20 24 25 22 20 17 15 13 11 9 6 7 8 5 8 14 14 13 12 11 9 8 6 7 6 7 8 8 7 8 11 10 8 6 6 5 5 5 7 8 7 2
10 9 16 23 25 19 13 13 14 12 14 14 10 10 10 9 11 10 10 9 8 8 7 8 8 5 4 5 4 4 5 5 4 5 4 4 3 3 5 4 3 3 1
12 14 17 21 17 20 19 15 15 12 12 10 12 13 13 13 14 10 7 6 5 3 2 5 8 7 7 7 6 3 2 3 2 0 2 2 0 3 3 3 0 0 2
19 19 19 23 22 18 15 16 13 10 13 15 16 13 11 9 9 6 7 7 9 8 7 8 9 10 9 6 4 4 3 3 3 2 3 4 3 3 3 2 2 4 4
15 14 15 18 18 16 15 16 12 15 17 16 14 11 8 5 5 3 2 2 2 2 3 3 5 5 6 5 4 5 7 7 7 5 4 4 3 3 3 3 4 4 3
10 9 5 0 7 11 10 10 12 13 15 13 13 11 9 5 4 1 1 2 3 2 2 2 3 4 5 6 6 6 6 7 9 5 3 3 5 6 7 7 6 5 2
8 7 9 9 11 10 9 8 10 14 18 16 12 10 8 7 5 3 1 1 3 2 3 4 6 5 5 5 5 5 6 8 7 6 4 3 3 4 5 7 6 7 7
12 12 14 16 13 14 9 7 10 13 16 13 9 9 9 7 6 4 2 2 0 1 4 5 5 3 3 5 5 6 7 7 6 5 3 4 4 4 4 4 5 7 8
19 17 17 17 16 10 9 3 8 8 9 10 10 7 5 4 3 2 1 2 3 3 3 2 3 3 5 8 7 6 6 5 5 5 5 5 4 4 5 4 3 1 2
16 17 18 17 17 12 8 7 9 7 7 6 5 3 3 4 4 3 1 3 4 4 1 4 4 5 6 8 9 5 7 6 5 5 5 4 3 3 5 5 5 4 3
13 11 12 12 12 10 10 11 9 8 6 5 4 2 1 2 3 5 4 4 5 4 3 5 6 7 7 7 7 6 4 5 4 5 6 4 3 4 4 6 4 5 4
13 11 9 8 7 7 6 6 5 4 4 2 0 1 3 3 4 6 8 9 9 8 9 8 8 9 9 7 7 6 5 5 5 5 5 5 4 3 3 4 4 3 3
10 10 7 6 4 3 2 1 0 1 1 2 4 4 4 3 4 6 8 9 5 7 8 10 11 11 10 9 6 6 6 6 6 5 6 5 4 3 3 3 2 2 2
5 4 4 3 2 1 1 2 4 4 5 6 6 7 7 8 8 8 8 7 7 9 9 11 12 13 11 9 8 8 7 6 5 5 4 4 4 4 3 2 3 3 3
5 4 3 3 2 2 2 3 3 4 6 6 8 8 6 9 8 8 8 8 8 9 8 9 11 12 11 10 9 9 8 7 6 6 6 4 4 4 4 4 3 2 2
3 3 3 4 5 6 6 6 6 6 7 8 10 9 11 9 11 11 11 10 10 9 9 12 14 13 11 9 9 9 9 8 8 7 6 6 5 4 3 3 3 2 2
5 5 5 6 6 5 6 7 7 8 10 10 11 11 14 13 13 14 13 12 10 9 11 13 12 12 11 11 11 11 11 10 10 8 7 6 5 5 4 3 3 3 2
5 5 5 5 5 7 7 7 8 8 9 11 11 12 11 12 12 15 16 15 13 12 13 13 13 11 11 11 11 10 10 10 9 8 8 8 7 7 6 5 4 2 1
6 6 7 7 7 8 7 8 9 9 9 11 12 14 15 16 16 15 16 15 16 16 15 15 14 13 12 13 12 10 9 9 8 8 8 8 7 7 6 6 5 2 1
4 5 5 6 6 6 7 8 9 11 12 13 15 16 18 18 18 17 16 15 17 19 17 18 16 14 14 15 13 12 12 11 10 10 8 7 7 6 5 5 5 5 5
6 6 6 7 7 8 8 9 9 10 11 12 13 13 13 14 15 15 14 14 18 18 16 18 19 16 15 15 14 15 13 12 11 9 8 6 6 6 6 6 6 6 6

GFSGL_925_spd_120.txt.gz
Wind_Speed
21 20 18 17 15 13 13 12 11 10 9 9 9 10 11 11 12 13 12 11 11 11 11 9 11 10 12 12 11 11 12 12 12 13 12 6 8 7 9 9 9 9 1
21 21 19 18 16 15 15 13 10 9 9 8 8 8 8 11 12 13 13 13 13 14 14 13 13 13 12 12 13 12 12 11 13 12 13 11 6 9 8 7 6 7 5
20 20 20 19 18 17 15 14 12 10 9 9 8 8 8 10 11 12 11 12 13 14 15 15 15 14 15 14 11 13 12 13 9 11 13 11 7 9 6 5 4 4 5
20 20 20 21 20 18 17 16 14 11 10 10 9 8 8 8 9 10 11 11 12 13 14 14 15 14 14 13 12 11 11 12 11 13 12 12 13 4 7 6 6 2 3
19 19 20 21 20 18 17 17 15 13 10 9 8 8 9 9 7 6 6 8 10 11 12 12 13 16 17 15 12 11 11 11 10 12 10 11 12 11 6 10 8 6 4
15 18 17 17 18 18 18 17 15 12 11 11 10 8 6 7 9 6 9 8 8 9 9 8 8 9 9 7 8 8 9 8 10 10 12 9 9 8 7 8 8 6 0
14 13 14 15 19 20 19 17 14 13 12 14 12 9 7 6 6 5 6 4 7 7 8 8 8 6 5 3 5 6 6 6 7 8 7 9 5 3 6 6 4 5 2
9 9 9 12 10 14 18 16 11 10 14 14 12 11 8 10 9 8 6 6 4 5 3 4 8 7 6 7 6 5 4 5 5 1 1 4 3 3 4 5 5 4 2
12 11 11 16 14 19 19 17 18 18 15 12 8 7 7 7 6 6 4 2 6 11 10 8 7 8 9 9 6 6 3 2 3 3 2 1 2 3 4 6 7 8 8
11 11 12 11 13 18 19 16 19 20 15 11 10 8 4 1 3 4 3 4 7 6 4 4 6 6 5 6 5 6 7 7 6 3 0 2 3 5 6 5 6 10 7
12 10 6 2 2 13 12 8 10 14 15 15 12 9 7 5 2 3 4 2 3 4 3 3 3 3 4 4 6 6 8 7 7 6 5 2 0 3 6 7 8 7 6
13 10 7 5 7 7 5 6 6 11 9 8 13 11 7 4 3 1 2 3 4 4 4 2 4 6 6 6 4 8 7 7 7 7 6 3 2 1 2 4 6 6 7
11 12 13 11 11 11 13 12 12 9 10 10 9 10 7 6 3 2 2 2 2 1 2 4 6 4 2 2 5 3 4 4 4 4 3 2 1 1 2 2 3 4 5
18 14 12 13 13 12 10 10 11 11 8 5 6 8 8 5 3 2 2 4 5 5 7 3 2 2 3 4 4 4 3 3 3 4 3 2 2 2 2 1 2 2 2
20 17 14 13 15 16 18 16 15 10 9 8 6 5 3 5 4 4 3 3 4 3 3 2 2 3 4 4 4 4 5 3 4 3 2 2 3 2 1 1 1 1 3
14 14 11 14 12 14 17 15 11 9 8 7 6 5 5 5 4 4 4 4 5 4 5 7 7 7 7 7 7 5 5 4 4 4 3 4 4 4 2 2 2 2 2
14 12 10 10 10 10 9 7 8 5 5 4 3 3 2 2 2 3 5 7 8 9 7 10 10 10 9 9 9 8 7 5 5 4 4 4 4 4 5 4 2 2 2
11 10 9 9 7 6 5 4 4 2 1 2 1 1 2 2 3 5 6 8 6 7 9 11 12 11 11 12 10 9 6 6 5 5 5 4 6 5 5 3 2 3 4
6 6 6 5 5 4 3 2 1 1 2 3 3 4 6 7 7 9 10 8 10 11 11 11 12 12 13 12 10 8 7 7 6 6 6 6 5 5 3 4 2 2 3
3 3 2 2 1 1 2 3 4 3 3 4 5 5 4 6 7 8 9 10 11 12 12 12 12 12 12 11 10 9 8 6 7 7 6 6 5 5 5 5 4 4 3
2 1 2 4 5 5 6 7 7 7 7 8 9 7 7 9 13 12 12 13 14 14 13 13 12 12 12 12 11 10 9 9 8 8 7 8 7 7 5 4 4 4 3
4 4 4 5 4 5 5 7 8 8 8 9 10 10 6 10 13 15 15 15 16 14 13 12 12 13 13 13 11 10 10 9 9 9 8 7 7 6 5 5 5 4 4
3 3 2 2 4 4 5 6 7 7 8 9 10 11 12 13 14 15 16 16 17 16 14 12 13 14 13 11 10 10 10 9 9 9 8 7 7 6 5 6 5 5 5
5 5 5 5 5 5 6 7 8 7 8 11 12 13 15 16 17 18 17 17 18 18 16 16 15 14 12 11 9 10 10 9 9 8 8 7 6 6 6 6 6 4 5
2 3 3 4 4 5 6 7 9 10 12 13 14 14 15 16 17 18 18 17 18 19 17 16 15 12 16 13 11 10 10 12 7 8 7 6 6 6 6 6 5 5 5
4 4 4 4 5 6 6 8 10 13 15 14 15 15 15 15 15 15 14 15 16 19 18 20 18 16 13 11 10 11 10 10 11 10 6 6 6 5 5 5 4 6 7